[[{"header":{"parameterUnit":"m.s-1","parameterCategory":1,"la1":30.6,"la2":28.766,"lo1":-90.7593,"lo2":-88.6598,"dx":0.0162,"dy":0.0183,"nx":116,"ny":114,"refTime":"2022-12-04T06:00:00:Z","depth":0,"parameterNumber":2,"parameterNumberName":"U-component_of_WINDS"},"data":[0.0,0.0,0.0,0.0,0.0,0.0,0.0,0.0,0.0,0.0,0.0,0.0,0.0,0.0,0.0,0.0,0.0,0.0,0.0,0.0,0.0,0.0,0.0,0.0,0.0,0.0,0.0,0.0,0.0,0.0,0.0,0.0,0.0,0.0,0.0,0.0,0.0,0.0,0.0,0.0,0.0,0.0,0.0,0.0,0.0,0.0,0.0,0.0,0.0,0.0,0.0,0.0,0.0,0.0,0.0,0.0,0.0,0.0,0.0,0.0,0.0,0.0,0.0,0.0,0.0,0.0,0.0,0.0,0.0,0.0,0.0,0.0,0.0,0.0,0.0,0.0,0.0,0.0,0.0,0.0,0.0,0.0,0.0,0.0,0.0,0.0,0.0,0.0,0.0,0.0,0.0,0.0,0.0,0.0,0.0,0.0,0.0,0.0,0.0,0.0,0.0,0.0,0.0,0.0,0.0,0.0,0.0,0.0,0.0,0.0,0.0,0.0,0.0,0.0,0.0,0.0,0.0,0.0,0.0,0.0,0.0,0.0,0.0,0.0,0.0,0.0,0.0,0.0,0.0,0.0,0.0,0.0,0.0,0.0,0.0,0.0,0.0,0.0,0.0,0.0,0.0,0.0,0.0,0.0,0.0,0.0,0.0,0.0,0.0,0.0,0.0,0.0,0.0,0.0,0.0,0.0,0.0,0.0,0.0,0.0,0.0,0.0,0.0,0.0,0.0,0.0,0.0,0.0,0.0,0.0,0.0,0.0,0.0,0.0,0.0,0.0,0.0,0.0,0.0,0.0,0.0,0.0,0.0,0.0,0.0,0.0,0.0,0.0,0.0,0.0,0.0,0.0,0.0,0.0,0.0,0.0,0.0,0.0,0.0,0.0,0.0,0.0,0.0,0.0,0.0,0.0,0.0,0.0,0.0,0.0,0.0,0.0,0.0,0.0,0.0,0.0,0.0,0.0,0.0,0.0,0.0,0.0,0.0,0.0,0.0,0.0,0.0,0.0,0.0,0.0,0.0,0.0,0.0,0.0,0.0,0.0,0.0,0.0,0.0,0.0,0.0,0.0,0.0,0.0,0.0,0.0,0.0,0.0,0.0,0.0,0.0,0.0,0.0,0.0,0.0,0.0,0.0,0.0,0.0,0.0,0.0,0.0,0.0,0.0,0.0,0.0,0.0,0.0,0.0,0.0,0.0,0.0,0.0,0.0,0.0,0.0,0.0,0.0,0.0,0.0,0.0,0.0,0.0,0.0,0.0,0.0,0.0,0.0,0.0,0.0,0.0,0.0,0.0,0.0,0.0,0.0,0.0,0.0,0.0,0.0,0.0,0.0,0.0,0.0,0.0,0.0,0.0,0.0,0.0,0.0,0.0,0.0,0.0,0.0,0.0,0.0,0.0,0.0,0.0,0.0,0.0,0.0,0.0,0.0,0.0,0.0,0.0,0.0,0.0,0.0,0.0,0.0,0.0,0.0,0.0,0.0,0.0,0.0,0.0,0.0,0.0,0.0,0.0,0.0,0.0,0.0,0.0,0.0,0.0,0.0,0.0,0.0,0.0,0.0,0.0,0.0,0.0,0.0,0.0,0.0,0.0,0.0,0.0,0.0,0.0,0.0,0.0,0.0,0.0,0.0,0.0,0.0,0.0,0.0,0.0,0.0,0.0,0.0,0.0,0.0,0.0,0.0,0.0,0.0,0.0,0.0,0.0,0.0,0.0,0.0,0.0,0.0,0.0,0.0,0.0,0.0,0.0,0.0,0.0,0.0,0.0,0.0,0.0,0.0,0.0,0.0,0.0,0.0,0.0,0.0,0.0,0.0,0.0,0.0,0.0,0.0,0.0,0.0,0.0,0.0,0.0,0.0,0.0,0.0,0.0,0.0,0.0,0.0,0.0,0.0,0.0,0.0,0.0,0.0,0.0,0.0,0.0,0.0,0.0,0.0,0.0,0.0,0.0,0.0,0.0,0.0,0.0,0.0,0.0,0.0,0.0,0.0,0.0,0.0,0.0,0.0,0.0,0.0,0.0,0.0,0.0,0.0,0.0,0.0,0.0,0.0,0.0,0.0,0.0,0.0,0.0,0.0,0.0,0.0,0.0,0.0,0.0,0.0,0.0,0.0,0.0,0.0,0.0,0.0,0.0,0.0,0.0,0.0,0.0,0.0,0.0,0.0,0.0,0.0,0.0,0.0,0.0,0.0,0.0,0.0,0.0,0.0,0.0,0.0,0.0,0.0,0.0,0.0,0.0,0.0,0.0,0.0,0.0,0.0,0.0,0.0,0.0,0.0,0.0,0.0,0.0,0.0,0.0,0.0,0.0,0.0,0.0,0.0,0.0,0.0,0.0,0.0,0.0,0.0,0.0,0.0,0.0,0.0,0.0,0.0,0.0,0.0,0.0,0.0,0.0,0.0,0.0,0.0,0.0,0.0,0.0,0.0,0.0,0.0,0.0,0.0,0.0,0.0,0.0,0.0,0.0,0.0,0.0,0.0,0.0,0.0,0.0,0.0,0.0,0.0,0.0,0.0,0.0,0.0,0.0,0.0,0.0,0.0,0.0,0.0,0.0,0.0,0.0,0.0,0.0,0.0,0.0,0.0,0.0,0.0,0.0,0.0,0.0,0.0,0.0,0.0,0.0,0.0,0.0,0.0,0.0,0.0,0.0,0.0,0.0,0.0,0.0,0.0,0.0,0.0,0.0,0.0,0.0,0.0,0.0,0.0,0.0,0.0,0.0,0.0,0.0,0.0,0.0,0.0,0.0,0.0,0.0,0.0,0.0,0.0,0.0,0.0,0.0,0.0,0.0,0.0,0.0,0.0,0.0,0.0,0.0,0.0,0.0,0.0,0.0,0.0,0.0,0.0,0.0,0.0,0.0,0.0,0.0,0.0,0.0,0.0,0.0,0.0,0.0,0.0,0.0,0.0,0.0,0.0,0.0,0.0,0.0,0.0,0.0,0.0,0.0,0.0,0.0,0.0,0.0,0.0,0.0,0.0,0.0,0.0,0.0,0.0,0.0,0.0,0.0,0.0,0.0,0.0,0.0,0.0,0.0,0.0,0.0,0.0,0.0,0.0,0.0,0.0,0.0,0.0,0.0,0.0,0.0,0.0,0.0,0.0,0.0,0.0,0.0,0.0,0.0,0.0,0.0,0.0,0.0,0.0,0.0,0.0,0.0,0.0,0.0,0.0,0.0,0.0,0.0,0.0,0.0,0.0,0.0,0.0,0.0,0.0,0.0,0.0,0.0,0.0,0.0,0.0,0.0,0.0,0.0,0.0,0.0,0.0,0.0,0.0,0.0,0.0,0.0,0.0,0.0,0.0,0.0,0.0,0.0,0.0,0.0,0.0,0.0,0.0,0.0,0.0,0.0,0.0,0.0,0.0,0.0,0.0,0.0,0.0,0.0,0.0,0.0,0.0,0.0,0.0,0.0,0.0,0.0,0.0,0.0,0.0,0.0,0.0,0.0,0.0,0.0,0.0,0.0,0.0,0.0,0.0,0.0,0.0,0.0,0.0,0.0,0.0,0.0,0.0,0.0,0.0,0.0,0.0,0.0,0.0,0.0,0.0,0.0,0.0,0.0,0.0,0.0,0.0,0.0,0.0,0.0,0.0,0.0,0.0,0.0,0.0,0.0,0.0,0.0,0.0,0.0,0.0,0.0,0.0,0.0,0.0,0.0,0.0,0.0,0.0,0.0,0.0,0.0,0.0,0.0,0.0,0.0,0.0,0.0,0.0,0.0,0.0,0.0,0.0,0.0,0.0,0.0,0.0,0.0,0.0,0.0,0.0,0.0,0.0,0.0,0.0,0.0,0.0,0.0,0.0,0.0,0.0,0.0,0.0,0.0,0.0,0.0,0.0,0.0,0.0,0.0,0.0,0.0,0.0,0.0,0.0,0.0,0.0,0.0,0.0,0.0,0.0,0.0,0.0,0.0,0.0,0.0,0.0,0.0,0.0,0.0,0.0,0.0,0.0,0.0,0.0,0.0,0.0,0.0,0.0,0.0,0.0,0.0,0.0,0.0,0.0,0.0,0.0,0.0,0.0,0.0,0.0,0.0,0.0,0.0,0.0,0.0,0.0,0.0,0.0,0.0,0.0,0.0,0.0,0.0,0.0,0.0,0.0,0.0,0.0,0.0,0.0,0.0,0.0,0.0,0.0,0.0,0.0,0.0,0.0,0.0,0.0,0.0,0.0,0.0,0.0,0.0,0.0,0.0,0.0,0.0,0.0,0.0,0.0,0.0,0.0,0.0,0.0,0.0,0.0,0.0,0.0,0.0,0.0,0.0,0.0,0.0,0.0,0.0,0.0,0.0,0.0,0.0,0.0,0.0,0.0,0.0,0.0,0.0,0.0,0.0,0.0,0.0,0.0,0.0,0.0,0.0,0.0,0.0,0.0,0.0,0.0,0.0,0.0,0.0,0.0,0.0,0.0,0.0,0.0,0.0,0.0,0.0,0.0,0.0,0.0,0.0,0.0,0.0,0.0,0.0,0.0,0.0,0.0,0.0,0.0,0.0,0.0,0.0,0.0,0.0,0.0,0.0,0.0,0.0,0.0,0.0,0.0,0.0,0.0,0.0,0.0,0.0,0.0,0.0,0.0,0.0,0.0,0.0,0.0,0.0,0.0,0.0,0.0,0.0,0.0,0.0,0.0,0.0,0.0,0.0,0.0,0.0,0.0,0.0,0.0,0.0,0.0,0.0,0.0,0.0,0.0,0.0,0.0,0.0,0.0,0.0,0.0,0.0,0.0,0.0,0.0,0.0,0.0,0.0,0.0,0.0,0.0,0.0,0.0,0.0,0.0,0.0,0.0,0.0,0.0,0.0,0.0,0.0,0.0,0.0,0.0,0.0,0.0,0.0,0.0,0.0,0.0,0.0,0.0,0.0,0.0,0.0,0.0,0.0,0.0,0.0,0.0,0.0,0.0,0.0,0.0,0.0,0.0,0.0,0.0,0.0,0.0,0.0,0.0,0.0,0.0,0.0,0.0,0.0,0.0,0.0,0.0,0.0,0.0,0.0,0.0,0.0,0.0,0.0,0.0,0.0,0.0,0.0,0.0,0.0,0.0,0.0,0.0,0.0,0.0,0.0,0.0,0.0,0.0,0.0,0.0,0.0,0.0,0.0,0.0,0.0,0.0,0.0,0.0,0.0,0.0,0.0,0.0,0.0,0.0,0.0,0.0,0.0,0.0,0.0,0.0,0.0,0.0,0.0,0.0,0.0,0.0,0.0,0.0,0.0,0.0,0.0,0.0,0.0,0.0,0.0,0.0,0.0,0.0,0.0,0.0,0.0,0.0,0.0,0.0,0.0,0.0,0.0,0.0,0.0,0.0,0.0,0.0,0.0,0.0,0.0,0.0,0.0,0.0,0.0,0.0,0.0,0.0,0.0,0.0,0.0,0.0,0.0,0.0,0.0,0.0,0.0,0.0,0.0,0.0,0.0,0.0,0.0,0.0,0.0,0.0,0.0,0.0,0.0,0.0,0.0,0.0,0.0,0.0,0.0,0.0,0.0,0.0,0.0,0.0,0.0,0.0,0.0,0.0,0.0,0.0,0.0,0.0,0.0,0.0,0.0,0.0,0.0,0.0,0.0,0.0,0.0,0.0,0.0,0.0,0.0,0.0,0.0,0.0,0.0,0.0,0.0,0.0,0.0,0.0,0.0,0.0,0.0,0.0,0.0,0.0,0.0,0.0,0.0,0.0,0.0,0.0,0.0,0.0,0.0,0.0,0.0,0.0,0.0,0.0,0.0,0.0,0.0,0.0,0.0,0.0,0.0,0.0,0.0,0.0,0.0,0.0,0.0,0.0,0.0,0.0,0.0,0.0,0.0,0.0,0.0,0.0,0.0,0.0,0.0,0.0,0.0,0.0,0.0,0.0,0.0,0.0,0.0,0.0,0.0,0.0,0.0,0.0,0.0,0.0,0.0,0.0,0.0,0.0,0.0,0.0,0.0,0.0,0.0,0.0,0.0,0.0,0.0,0.0,0.0,0.0,0.0,0.0,0.0,0.0,0.0,0.0,0.0,0.0,0.0,0.0,0.0,0.0,0.0,0.0,0.0,0.0,0.0,0.0,0.0,0.0,0.0,0.0,-3.0396,-2.6405,0.0,0.0,0.0,0.0,0.0,0.0,0.0,0.0,0.0,0.0,0.0,0.0,0.0,0.0,0.0,0.0,0.0,0.0,0.0,0.0,0.0,0.0,0.0,-1.5323,-1.5344,-1.5408,-1.5384,0.0,0.0,0.0,0.0,0.0,0.0,0.0,0.0,0.0,-1.4297,-1.5977,-1.6797,-1.9414,-2.3594,-2.2227,-2.0937,-1.9687,0.0,0.0,0.0,0.0,0.0,0.0,0.0,0.0,0.0,0.0,0.0,0.0,0.0,0.0,0.0,0.0,0.0,0.0,0.0,0.0,0.0,0.0,0.0,0.0,0.0,0.0,0.0,0.0,0.0,0.0,0.0,0.0,0.0,0.0,0.0,0.0,0.0,0.0,0.0,0.0,0.0,0.0,0.0,0.0,0.0,0.0,0.0,0.0,0.0,0.0,0.0,0.0,0.0,0.0,0.0,0.0,0.0,0.0,0.0,0.0,0.0,0.0,0.0,0.0,0.0,0.0,0.0,0.0,0.0,0.0,-3.4661,-3.1858,0.0,0.0,0.0,0.0,0.0,0.0,0.0,0.0,0.0,0.0,0.0,0.0,0.0,0.0,0.0,0.0,0.0,0.0,0.0,0.0,0.0,-1.5429,-1.5735,-1.5751,-1.5963,-1.6452,-1.6237,-1.6088,-1.6088,-1.578,0.0,0.0,0.0,0.0,-1.5391,-1.5,-1.6406,-1.9766,-2.1953,-2.5312,-2.9648,-2.9805,-2.8711,-2.6523,-2.3359,0.0,0.0,0.0,0.0,0.0,0.0,0.0,0.0,0.0,0.0,0.0,0.0,0.0,0.0,0.0,0.0,0.0,0.0,0.0,0.0,0.0,0.0,0.0,0.0,0.0,0.0,0.0,0.0,0.0,0.0,0.0,0.0,0.0,0.0,0.0,0.0,0.0,0.0,0.0,0.0,0.0,0.0,0.0,0.0,0.0,0.0,0.0,0.0,0.0,0.0,0.0,0.0,0.0,0.0,0.0,0.0,0.0,0.0,0.0,0.0,0.0,0.0,0.0,-3.8905,-4.0169,-4.0885,-4.1578,-4.2656,-4.3726,-3.8806,-3.7991,-3.9708,-3.3744,0.0,0.0,0.0,0.0,0.0,0.0,0.0,0.0,0.0,0.0,0.0,0.0,0.0,0.0,0.0,0.0,0.0,0.0,0.0,-1.5891,-1.7388,-1.7626,-1.8544,-2.0773,-1.9647,-1.8789,-1.8789,-1.7383,0.0,0.0,0.0,0.0,-1.5391,-1.6758,-1.8828,-2.1562,-2.9141,-3.3594,-3.5,-3.5742,-3.5937,-3.5351,-2.9766,-2.7226,-2.6914,0.0,0.0,0.0,0.0,0.0,0.0,0.0,0.0,0.0,0.0,0.0,0.0,0.0,0.0,0.0,0.0,0.0,0.0,0.0,0.0,0.0,0.0,0.0,0.0,0.0,0.0,0.0,0.0,0.0,0.0,0.0,0.0,0.0,0.0,0.0,0.0,0.0,0.0,0.0,0.0,0.0,-2.9072,-3.0855,0.0,0.0,0.0,0.0,0.0,0.0,0.0,0.0,0.0,0.0,0.0,0.0,0.0,-3.6458,-3.8363,-4.144,-4.3086,-4.3334,-4.5796,-4.6984,-4.71,-4.7216,-4.7408,-4.7563,-4.6791,0.0,-4.347,-4.1101,0.0,0.0,0.0,0.0,0.0,0.0,0.0,0.0,0.0,0.0,0.0,0.0,0.0,0.0,0.0,0.0,0.0,0.0,0.0,0.0,0.0,-2.0929,-2.238,-2.4432,-2.3931,-2.2924,-2.1451,-2.0202,0.0,0.0,0.0,-1.5617,-1.613,-1.8731,-2.3011,-2.8977,-3.5257,-3.8703,-3.9563,-4.0468,-4.0898,-4.0742,-3.7617,-3.4101,-3.0351,-2.8359,0.0,0.0,0.0,0.0,0.0,0.0,0.0,0.0,0.0,0.0,0.0,0.0,0.0,0.0,0.0,0.0,0.0,0.0,0.0,0.0,0.0,0.0,0.0,0.0,0.0,0.0,0.0,0.0,0.0,0.0,0.0,0.0,0.0,0.0,0.0,0.0,0.0,0.0,0.0,-2.8787,-3.1441,-3.3122,-3.1103,-2.8848,0.0,0.0,0.0,0.0,0.0,0.0,0.0,0.0,0.0,-3.9206,-4.052,-4.2212,-4.436,-4.5905,-4.6862,-4.7317,-4.8428,-4.9238,-4.9702,-4.9702,-4.9702,-4.9702,-4.9702,-4.902,-4.7675,-4.4068,-4.1068,-3.8382,0.0,0.0,0.0,0.0,-3.4979,-3.5418,0.0,0.0,0.0,0.0,0.0,0.0,0.0,0.0,0.0,0.0,0.0,0.0,-2.2781,-2.4572,-2.6391,-2.8312,-2.8268,-2.7334,-2.544,-2.3264,-2.0817,-1.8024,-1.6282,-1.6024,-1.7326,-2.193,-2.7984,-3.5506,-3.9431,-4.1796,-4.2616,-4.3305,-4.3664,-4.3625,-4.3005,-3.9765,-3.4687,-3.2969,-3.0195,-2.6758,0.0,0.0,0.0,0.0,0.0,0.0,0.0,0.0,0.0,0.0,0.0,0.0,0.0,0.0,0.0,0.0,0.0,0.0,0.0,0.0,0.0,0.0,0.0,0.0,0.0,0.0,0.0,0.0,0.0,0.0,0.0,0.0,0.0,0.0,0.0,0.0,0.0,-3.2111,-3.4454,-3.5289,-3.4427,-3.2609,0.0,0.0,0.0,0.0,0.0,0.0,-3.7852,-3.9554,-4.1821,-4.4737,-4.5696,-4.704,-4.8963,-4.9195,-4.9581,-5.0199,-5.043,-5.0855,-5.1473,-5.1473,-5.1473,-5.1473,-5.1473,-5.1473,-5.1164,-4.6901,-4.4746,-4.3873,-4.0713,-3.949,-3.9625,-4.0939,-4.1383,-4.1889,0.0,0.0,0.0,0.0,0.0,0.0,0.0,0.0,0.0,0.0,0.0,-2.2859,-2.6266,-2.8148,-3.0194,-3.2742,-3.2221,-3.1667,-3.155,-2.6148,-2.249,-2.1472,-1.7561,-1.6555,-1.9039,-2.722,-3.3685,-3.8202,-4.0831,-4.2591,-4.3445,-4.3487,-4.3526,-4.3491,-4.3548,-4.2919,-4.1601,-3.75,-3.5156,-3.3594,-2.6953,0.0,0.0,0.0,0.0,0.0,0.0,0.0,0.0,0.0,0.0,0.0,0.0,0.0,0.0,0.0,0.0,0.0,0.0,0.0,0.0,0.0,0.0,0.0,0.0,0.0,0.0,0.0,0.0,0.0,0.0,0.0,0.0,0.0,0.0,0.0,0.0,0.0,0.0,-3.8218,-3.8644,0.0,0.0,0.0,0.0,-3.7671,-3.9417,-4.1487,-4.3926,-4.5696,-4.748,-4.9219,-5.0107,-5.0626,-5.0774,-5.1594,-5.2028,-5.2066,-5.2917,-5.3304,-5.3382,-5.3382,-5.3382,-5.3382,-5.3382,-5.3382,-5.3219,-5.1241,-4.9007,-4.6807,-4.6576,-4.504,-4.3233,-4.5696,-4.6614,-4.7,0.0,0.0,0.0,-1.5554,-1.5391,-1.5382,-1.5313,-1.6503,-1.7844,-1.9058,-2.3104,-2.6746,-2.9036,-3.2287,-3.5103,-3.7119,-3.7027,-3.613,-3.4502,-2.9272,-2.6322,-2.6586,-2.1983,-2.2642,-2.9683,-3.3378,-3.7307,-4.1535,-4.3059,-4.3985,-4.4296,-4.4904,-4.516,-4.516,-4.4601,-4.4192,-4.3784,-4.1207,-3.8672,-3.6055,-3.2461,-2.8008,0.0,0.0,0.0,0.0,0.0,0.0,0.0,0.0,0.0,0.0,0.0,0.0,0.0,0.0,0.0,0.0,0.0,0.0,0.0,0.0,0.0,0.0,0.0,0.0,0.0,0.0,0.0,0.0,0.0,0.0,0.0,0.0,0.0,0.0,0.0,0.0,0.0,-4.0655,-4.1429,0.0,-3.9572,-4.0862,-4.1937,-4.2273,-4.4882,-4.6885,-4.7789,-4.8949,-5.007,-5.1238,-5.1586,-5.2012,-5.2569,-5.2879,-5.3033,-5.3033,-5.3343,-5.3498,-5.3498,-5.3498,-5.3498,-5.3498,-5.3498,-5.3498,-5.3459,-5.2807,-5.1987,-5.1175,-5.1175,-5.0294,-4.9096,-5.0024,-5.0,-4.9628,0.0,0.0,0.0,-1.5486,-1.5404,-1.5399,-1.5344,-1.7077,-1.8996,-2.0699,-2.5673,-2.9886,-3.2066,-3.565,-3.829,-3.9391,-3.9771,-3.9224,-3.7504,-3.2295,-2.9549,-3.0119,-2.6609,-2.8126,-3.5549,-3.7411,-4.0078,-4.375,-4.4342,-4.481,-4.5087,-4.5706,-4.6012,-4.5973,-4.5456,-4.5196,-4.513,-4.379,-4.1703,-3.9122,-3.6555,-3.2612,-2.7922,0.0,0.0,0.0,0.0,0.0,0.0,0.0,0.0,0.0,0.0,0.0,0.0,0.0,0.0,0.0,0.0,0.0,0.0,0.0,0.0,0.0,0.0,0.0,0.0,0.0,0.0,0.0,0.0,0.0,0.0,0.0,0.0,0.0,0.0,-3.8837,-4.197,-4.1622,-4.3634,-4.4369,-4.2673,-4.4773,-4.639,-4.6682,-4.9065,-5.0496,-5.0558,-5.1331,-5.2028,-5.2608,-5.2655,-5.2917,-5.3498,-5.3807,-5.3923,-5.3923,-5.4194,-5.4349,-5.4349,-5.4349,-5.4349,-5.4349,-5.4349,-5.4349,-5.4349,-5.4349,-5.4349,-5.4271,-5.373,-5.3149,-5.2655,-5.2655,-5.2282,-5.1794,0.0,0.0,-1.539,-1.5384,-1.5382,-1.5382,-1.5382,-1.7649,-2.0535,-2.3873,-2.8082,-3.2046,-3.5379,-3.8009,-3.9539,-3.9539,-4.0313,-4.0759,-4.0642,-3.5063,-3.1821,-3.1829,-3.1318,-3.257,-3.5897,-3.923,-4.2125,-4.4632,-4.4632,-4.5026,-4.5807,-4.5807,-4.5807,-4.5807,-4.5941,-4.5991,-4.5919,-4.5157,-4.4316,-4.3133,-3.9039,-3.6791,-3.5264,0.0,0.0,0.0,0.0,0.0,0.0,0.0,0.0,0.0,0.0,0.0,0.0,0.0,0.0,0.0,0.0,0.0,0.0,0.0,0.0,0.0,0.0,0.0,0.0,0.0,0.0,0.0,0.0,0.0,0.0,0.0,0.0,0.0,-3.7295,-4.1461,-4.3827,-4.1358,-4.5452,-4.7811,-4.6194,-4.8314,-5.0094,-5.0859,-5.1757,-5.2229,-5.2229,-5.3033,-5.3498,-5.3536,-5.3536,-5.3536,-5.3575,-5.4426,-5.4851,-5.4851,-5.5625,-5.6012,-5.6012,-5.6012,-5.6012,-5.6012,-5.6012,-5.6012,-5.6012,-5.6012,-5.6012,-5.5857,-5.4194,-5.3575,-5.3536,-5.3536,-5.3536,-5.3498,-1.7695,-1.6444,-1.5386,-1.5383,-1.5382,-1.5382,-1.5382,-1.8162,-2.1202,-2.3951,-2.9071,-3.3545,-3.626,-3.8893,-4.0429,-4.0429,-4.0661,-4.0268,-3.8974,-3.4455,-3.2096,-3.271,-3.7284,-4.0539,-4.2125,-4.3053,-4.4175,-4.5452,-4.5452,-4.5568,-4.5807,-4.5807,-4.5793,-4.5803,-4.5845,-4.5814,-4.5786,-4.555,-4.5311,-4.4871,-4.2629,-4.0118,-3.7501,0.0,0.0,0.0,0.0,0.0,0.0,0.0,0.0,0.0,0.0,0.0,0.0,0.0,0.0,0.0,0.0,0.0,0.0,0.0,0.0,0.0,0.0,0.0,0.0,0.0,0.0,0.0,0.0,0.0,0.0,0.0,-3.8442,-4.1203,-4.0667,-4.4485,-4.7347,-4.727,-4.8508,-4.9397,-4.9513,-5.0712,-5.1602,-5.1834,-5.2647,-5.3149,-5.3149,-5.3382,-5.3807,-5.4426,-5.4426,-5.4735,-5.5316,-5.5548,-5.5664,-5.5664,-5.5896,-5.6012,-5.6012,-5.6012,-5.6012,-5.6012,-5.6012,-5.6012,-5.6012,-5.6012,-5.6012,-5.5973,-5.5509,-5.4967,-5.4426,-5.4426,-5.4039,-5.3498,-1.8086,-1.6874,-1.5935,-1.5935,-1.5622,-1.5505,-1.5896,-1.8593,-2.1867,-2.5447,-3.0152,-3.4431,-3.7655,-3.9655,-4.0816,-4.0816,-4.1126,-4.0571,-3.8813,-3.6068,-3.4875,-3.5742,-4.0268,-4.3324,-4.4555,-4.4949,-4.5336,-4.5807,-4.5807,-4.5807,-4.5807,-4.5807,-4.5793,-4.581,-4.581,-4.5788,-4.575,-4.575,-4.5727,-4.5626,-4.4737,-4.3038,-4.0936,-3.9355,-3.7286,-3.5,-3.3398,-3.2266,-3.1484,-3.1289,0.0,0.0,0.0,0.0,0.0,0.0,0.0,0.0,0.0,0.0,0.0,0.0,0.0,0.0,0.0,0.0,0.0,0.0,0.0,0.0,0.0,0.0,0.0,0.0,-4.2859,-4.5273,-4.5226,-4.7386,-4.9126,-4.9629,-5.0326,-5.0945,-5.1409,-5.2221,-5.2724,-5.2724,-5.3536,-5.4039,-5.4039,-5.4349,-5.4774,-5.5277,-5.5316,-5.5548,-5.6012,-5.6012,-5.6012,-5.6012,-5.6012,-5.6012,-5.6012,-5.6012,-5.6012,-5.6012,-5.6012,-5.6012,-5.6012,-5.6012,-5.6012,0.0,0.0,0.0,0.0,0.0,-5.4967,-5.4542,-1.8281,-1.7422,-1.6836,-1.6836,-1.6211,-1.5937,-1.6719,-1.9062,-2.2568,-2.7585,-3.1122,-3.4855,-3.917,-4.0352,-4.0816,-4.0816,-4.1622,-4.1455,-3.9799,-3.8949,-3.889,-3.9733,-4.1467,-4.3169,-4.4717,-4.5413,-4.5807,-4.5807,-4.5807,-4.5807,-4.5807,-4.5807,-4.58,-4.58,-4.58,-4.5817,-4.5781,-4.5773,-4.5758,-4.568,-4.5671,-4.5363,-4.4599,-4.2373,-4.1579,-4.1328,-3.8984,-3.7617,-3.6641,-3.5195,0.0,0.0,0.0,0.0,0.0,0.0,0.0,0.0,0.0,0.0,0.0,0.0,0.0,0.0,0.0,0.0,0.0,0.0,0.0,0.0,0.0,0.0,0.0,0.0,-4.7048,-4.9745,-4.9823,-4.9939,-4.9977,-4.9977,-5.1293,-5.2229,-5.2345,-5.3149,-5.3652,-5.3652,-5.4465,-5.4929,-5.4929,-5.5625,0.0,0.0,0.0,-5.6012,-5.6012,-5.6012,-5.6012,-5.6012,-5.6012,-5.6012,-5.6012,-5.6012,-5.6012,-5.6012,-5.6012,-5.6012,-5.6012,-5.6012,-5.6012,-5.6012,-5.6012,-5.6012,-5.6012,-5.6012,-5.6012,-5.6012,-1.9062,-1.8359,-1.7734,-1.7734,-1.7617,-1.7539,-1.7734,-1.9961,-2.3466,-2.8474,-3.1508,-3.5088,-4.0022,-4.07,-4.0816,-4.0816,-4.2164,-4.2621,-4.1577,-4.0726,-4.0655,-4.1467,-4.3795,-4.5226,-4.5568,-4.5729,-4.5807,-4.5807,-4.5807,-4.5807,-4.5807,-4.5807,-4.5786,-4.5795,-4.5795,-4.5773,-4.5735,-4.5703,-4.5703,-4.5719,-4.5637,-4.5652,-4.5685,-4.5179,-4.466,-4.4217,-4.3671,-4.2968,-4.2266,-4.2617,-4.0703,-3.8125,-3.7969,-3.5508,0.0,0.0,0.0,0.0,0.0,0.0,0.0,0.0,0.0,0.0,0.0,0.0,0.0,0.0,0.0,0.0,0.0,0.0,0.0,-4.5082,-4.7829,-4.9939,-5.0589,-5.1254,-5.1718,-5.1718,-5.1997,-5.25,-5.3188,-5.4039,-5.4542,-5.4542,-5.5316,-5.578,-5.578,-5.5935,-5.6012,-5.6012,-5.6012,-5.6012,-5.6012,-5.6012,-5.6012,-5.6012,0.0,0.0,-5.6012,-5.6012,-5.6012,-5.6012,-5.6012,-5.6012,-5.6012,-5.6012,-5.6012,-5.6012,-5.6012,-5.6012,-5.6012,-5.6012,-5.6012,-5.6012,-1.9844,-1.8906,-1.8125,-1.8555,-1.8281,-1.8164,-1.8594,-2.0508,-2.3549,-2.8173,-3.1059,-3.4269,-3.849,-3.8549,-3.8263,-3.8262,-3.9027,-4.0036,-4.1313,-4.139,-4.1777,-4.2628,-4.4678,-4.5807,-4.5807,-4.5807,-4.5807,-4.5807,-4.5807,-4.5807,-4.5807,-4.5807,-4.5793,-4.5817,-4.5817,-4.5795,-4.575,-4.5711,-4.5695,-4.5687,-4.5646,-4.5764,-4.5908,-4.5881,-4.5786,-4.5662,-4.5663,-4.5351,-4.5078,-4.5508,-4.4219,-4.2461,-4.2461,-4.0078,-3.6523,0.0,0.0,0.0,0.0,0.0,0.0,0.0,0.0,0.0,0.0,0.0,0.0,0.0,0.0,-3.821,-4.1509,0.0,-4.5485,-4.7998,-4.9466,-5.0596,-5.1447,-5.1912,-5.219,-5.219,-5.2956,-5.3652,-5.4116,-5.4929,-5.5393,-5.5393,-5.578,-5.6012,-5.6012,-5.6012,-5.6012,-5.6012,-5.6012,-5.6012,-5.6012,-5.6012,-5.6012,-5.6012,-5.6012,-5.6012,-5.6012,-5.6012,-5.6012,-5.6012,-5.6012,-5.6012,-5.6012,-5.6012,-5.6012,-5.6012,-5.6012,-5.6012,-5.6012,-5.6012,-5.6012,-5.6012,-2.0195,-1.9219,-1.8516,-1.9414,-1.8984,-1.875,-1.9453,-2.0898,-2.3357,-2.7431,-2.9928,-3.2569,-3.5752,-3.5311,-3.5051,-3.565,-3.5694,-3.7307,-4.1048,-4.1893,-4.2628,-4.3518,-4.4987,-4.5807,-4.5807,-4.5807,-4.5807,-4.5807,-4.5807,-4.5807,-4.5807,-4.5807,-4.5807,-4.5807,-4.5807,-4.5786,-4.5795,-4.5758,-4.5719,-4.5734,-4.5717,-4.5757,-4.5852,-4.5891,-4.6061,-4.6284,-4.6288,-4.6289,-4.6289,-4.6289,-4.582,-4.5234,-4.5234,-4.3359,-4.0508,-3.7187,-3.5859,0.0,0.0,0.0,0.0,0.0,0.0,0.0,0.0,-3.332,-3.3943,-3.9566,-4.0725,-4.1971,-4.6102,-4.6874,-4.774,-5.0449,-5.1053,-5.1409,-5.2113,-5.25,-5.2732,-5.2732,-5.3923,-5.4851,-5.5006,-5.5625,-5.6012,-5.6012,-5.6012,-5.6012,-5.6012,-5.6012,-5.6012,-5.6012,-5.6012,-5.6012,-5.6012,-5.6012,-5.6012,-5.6012,-5.6012,-5.6012,-5.6012,-5.6012,-5.6012,-5.6012,-5.6012,-5.6012,-5.6012,-5.6012,-5.6012,-5.6012,-5.6012,-5.6012,-5.6012,-5.6012,-5.6012,-5.6012,-1.9414,-1.9297,-1.9414,-2.0312,-2.0352,-2.0352,-2.043,-2.1289,-2.3123,-2.6571,-2.7972,-2.9634,-3.2263,-3.1783,-3.2488,-3.5437,-3.5708,-3.7776,-4.2705,-4.3092,-4.3556,-4.44,-4.5336,-4.5807,-4.5807,-4.5807,-4.5807,-4.5807,-4.5807,-4.5807,-4.5807,-4.5807,-4.5807,-4.5807,-4.5807,-4.58,-4.58,-4.5795,-4.5795,-4.5778,-4.5712,-4.5835,-4.6052,-4.6021,-4.6083,-4.6218,-4.6284,-4.6289,-4.6289,-4.6289,-4.625,-4.6133,-4.6133,-4.5898,-4.5039,-4.2344,-3.9922,-3.7344,-3.3672,-3.25,-3.3008,-3.5742,-3.6367,-3.8164,0.0,-4.4414,-4.3354,-4.7723,-4.8631,-4.8967,-5.0121,-5.0333,-5.0449,-5.0821,-5.1563,-5.2113,-5.219,-5.3536,-5.4503,-5.4503,-5.4697,-5.5084,-5.5818,-5.5935,-5.6012,-5.6012,-5.6012,-5.6012,-5.6012,-5.6012,-5.6012,-5.6012,-5.6012,-5.6012,-5.6012,-5.6012,-5.6012,-5.6012,-5.6012,-5.6012,-5.6012,-5.6012,-5.6012,-5.6012,-5.6012,-5.6012,-5.6012,-5.6012,-5.6012,-5.6012,-5.6012,-5.6012,-5.6012,-5.6012,-5.6012,-5.6012,-2.0078,-2.0078,-2.0156,-2.0547,-2.0586,-2.0586,-2.0586,-2.1328,-2.2578,-2.4486,-2.5892,-2.7138,-2.8218,-2.7574,-2.7965,-3.0309,-3.2326,-3.5229,-3.9301,-4.1429,-4.2937,-4.3827,-4.4639,-4.5336,-4.5807,-4.5807,-4.5807,-4.5807,-4.5807,-4.5807,-4.5807,-4.5807,-4.5807,-4.5807,-4.5807,-4.5807,-4.58,-4.5803,-4.5795,-4.5817,-4.5796,-4.5891,-4.6003,-4.6076,-4.616,-4.6222,-4.6286,-4.5976,0.0,-4.6133,-4.5976,-4.5625,-4.6133,-4.5273,-4.3828,-4.2734,-4.1328,-4.0234,-4.0742,-3.9219,-3.8242,-4.168,-4.2148,-4.2891,-4.7187,-4.6601,-4.6245,-4.9903,-5.0654,-5.0714,-5.0882,-5.1331,-5.1641,-5.1641,-5.2376,-5.3111,-5.3652,-5.4349,-5.4967,-5.5432,-5.5509,-5.5625,-5.5973,-5.6012,-5.6012,-5.6012,-5.6012,-5.6012,-5.6012,-5.6012,-5.6012,-5.6012,-5.6012,-5.6012,-5.6012,-5.6012,-5.6012,-5.6012,-5.6012,-5.6012,-5.6012,-5.6012,-5.6012,-5.6012,-5.6012,-5.6012,-5.6012,-5.6012,-5.6012,-5.6012,-5.6012,-5.6012,-5.6012,-5.6012,-5.6012,-5.6012,-2.0664,-2.0586,-2.0586,-2.0586,-2.0586,-2.0586,-2.0586,-2.1133,-2.1836,-2.2734,-2.3906,-2.4453,-2.3984,-2.3161,-2.3493,-2.5591,-2.8874,-3.2464,-3.6322,-3.9777,-4.2048,-4.2899,-4.402,-4.4871,-4.5452,-4.5691,-4.5807,-4.5807,-4.5807,-4.5807,-4.5807,-4.5807,-4.5807,-4.5807,-4.5807,-4.5807,-4.58,-4.5817,-4.5824,-4.5873,-4.5896,-4.5968,-4.5996,-4.6155,-4.576,-4.5144,-4.5194,-4.4805,-4.4258,-4.3906,-4.3711,-4.3633,-4.3789,-4.2851,-4.1797,-4.2266,-4.1641,-4.1289,-4.3281,-4.2695,-4.2305,-4.5508,-4.6523,-4.7109,-4.8359,-4.8359,-4.8667,-5.0764,-5.1398,-5.1497,-5.1315,-5.1757,-5.2268,-5.2539,-5.3304,-5.4078,-5.4697,-5.5006,-5.5354,-5.5935,-5.6012,-5.6012,-5.6012,-5.6012,-5.6012,-5.6012,-5.6012,-5.6012,-5.6012,-5.6012,-5.6012,-5.6012,-5.6012,-5.6012,-5.6012,-5.6012,-5.6012,-5.6012,-5.6012,-5.6012,-5.6012,-5.6012,-5.6012,-5.6012,-5.6012,-5.6012,-5.6012,-5.6012,-5.6012,-5.6012,-5.6012,-5.6012,-5.6012,-5.6012,-5.6012,-5.6012,-2.0781,-2.0586,-2.0586,-2.0586,-2.0586,-2.0586,-2.0586,-2.0625,-2.0937,-2.1836,-2.1992,-2.1367,-1.9687,-1.8711,-1.9566,-2.2935,-2.6277,-3.0348,-3.5391,-3.8922,-4.1203,-4.2009,-4.3672,-4.4594,-4.4632,-4.5413,-4.5807,-4.5807,-4.5807,-4.5807,-4.5807,-4.5807,-4.5807,-4.5807,-4.5807,-4.5807,-4.5807,-4.5807,-4.588,-4.5997,-4.5997,-4.6072,-4.6179,-4.6183,-4.4677,-4.2539,-4.2539,-4.25,-4.1992,-3.8672,-3.8672,-3.9766,-3.8086,-3.8672,-4.0312,-4.1914,-4.1211,-3.9609,-3.8008,-3.9922,-4.3008,-4.5625,-4.8789,-5.1211,-5.1289,-5.1914,-5.2261,-5.1392,-5.1865,-5.2397,-5.2213,-5.219,-5.25,-5.3304,-5.4194,-5.4774,-5.4813,-5.547,-5.5973,-5.6012,-5.6012,-5.6012,-5.6012,-5.6012,-5.6012,-5.6012,-5.6012,-5.6012,-5.6012,-5.6012,-5.6012,-5.6012,-5.6012,-5.6012,-5.6012,-5.6012,-5.6012,-5.6012,-5.6012,-5.6012,-5.6012,-5.6012,-5.6012,-5.6012,-5.6012,-5.6012,-5.6012,-5.6012,-5.6012,-5.6012,-5.6012,-5.6012,-5.6012,-5.6012,-5.6012,-5.6012,-2.1602,-2.1875,-2.2109,-2.1562,-2.1445,-2.1289,-2.0703,-2.0586,-2.0703,-2.1016,-2.0547,0.0,0.0,0.0,0.0,0.0,-2.5889,-2.9588,-3.2943,-3.692,-3.9758,-4.1126,-4.228,-4.3169,-4.3711,-4.4562,-4.4987,-4.4987,-4.5529,-4.5807,-4.5807,-4.5807,-4.5854,-4.5941,-4.5941,-4.5947,-4.6012,-4.6012,-4.6031,-4.6064,-4.6115,-4.6155,-4.6342,-4.7532,-4.496,-4.0664,0.0,-3.9141,-3.8086,-3.75,-3.6914,-3.6562,-3.7109,-3.6523,-3.582,-3.6953,-3.8516,-4.0273,-4.1953,-4.3672,-4.5742,-4.8906,-5.0976,-5.2266,-5.2266,-5.293,-5.3433,-5.3026,-5.2684,-5.2436,-5.2252,-5.2647,-5.3149,-5.3459,-5.4697,-5.5586,-5.5586,-5.5818,-5.6012,-5.6012,-5.6012,-5.6012,-5.6012,-5.6012,-5.6012,-5.6012,-5.6012,-5.6012,-5.6012,-5.6012,-5.6012,-5.6012,-5.6012,-5.6012,-5.6012,-5.6012,-5.6012,-5.6012,-5.6012,-5.6012,-5.6012,-5.6012,-5.6012,-5.6012,-5.6012,-5.6012,-5.6012,-5.6012,-5.6012,-5.6012,-5.6012,-5.6012,-5.6012,-5.6012,-5.6012,-5.6012,-2.2539,-2.2773,-2.2852,-2.2031,-2.1914,0.0,0.0,0.0,0.0,0.0,0.0,0.0,0.0,0.0,0.0,0.0,0.0,-2.7558,-3.0374,-3.4008,-3.6932,-3.8942,-3.9513,-4.0327,-4.1535,-4.1795,-4.2538,-4.3757,-4.3945,-4.4533,-4.5437,-4.5437,-4.532,-4.5113,-4.5745,-4.5875,-4.5628,-4.5971,-4.6452,-4.6888,-4.5384,-4.5018,-4.5225,-4.453,-4.1133,0.0,-3.5351,-3.3789,-3.2383,-3.2969,-3.3047,-3.3008,-3.3828,-3.3984,-3.4023,-3.4922,-3.7422,-4.0703,-4.4453,-4.6094,-4.7578,-5.1016,-5.2539,-5.3164,-5.3164,-5.3827,-5.432,-5.388,-5.2858,-5.2041,-5.2159,-5.2414,-5.2763,-5.3382,-5.4929,-5.6012,-5.6012,-5.6012,-5.6012,-5.6012,-5.6012,-5.6012,-5.6012,-5.6012,-5.6012,-5.6012,-5.6012,-5.6012,-5.6012,-5.6012,-5.6012,-5.6012,-5.6012,-5.6012,-5.6012,-5.6012,-5.6158,-5.6467,-5.6786,-5.694,-5.6902,-5.6631,-5.6467,-5.6429,-5.6128,-5.6012,-5.6012,-5.6012,-5.6012,-5.6012,-5.6012,-5.6012,-5.6012,-5.6012,-5.6012,-5.6012,-2.3437,-2.3281,-2.3047,0.0,0.0,0.0,0.0,0.0,0.0,0.0,0.0,0.0,0.0,0.0,0.0,0.0,0.0,0.0,-2.7777,-3.0431,-3.2975,-3.5509,-3.5697,-3.6518,-3.8241,-3.7488,-3.8698,-4.1948,-4.1165,-4.2026,-4.4455,-4.4455,-4.4026,-4.3325,-4.4972,-4.5204,-4.4463,-4.5336,-4.6619,-4.7681,-4.3669,-4.2568,-4.2773,-3.7969,-3.3945,-3.0625,-2.9062,-2.7266,-2.5664,-2.5781,-2.7656,-2.9805,-2.9062,-3.1641,-3.5156,-3.6055,-3.8164,-4.1133,-4.5234,-4.7109,-4.8633,-5.1875,-5.3398,-5.4062,-5.4062,-5.4678,-5.495,-5.3908,-5.2266,-5.1178,-5.1718,-5.1293,-5.1362,-5.3033,-5.4813,-5.6012,-5.6012,-5.6012,-5.6012,-5.6012,-5.6012,-5.6012,-5.6012,-5.6012,-5.6012,-5.6012,-5.6012,-5.6012,-5.6012,-5.6012,-5.6012,-5.6012,-5.6012,-5.6012,-5.6089,-5.6128,-5.6545,-5.7318,-5.8178,-5.8574,-5.8488,-5.7714,-5.7357,-5.7318,-5.6467,-5.6128,-5.6128,-5.6128,-5.6128,-5.6089,-5.6089,-5.6051,-5.6012,-5.6012,-5.6012,-5.6012,0.0,0.0,0.0,0.0,0.0,0.0,0.0,0.0,0.0,0.0,0.0,0.0,0.0,0.0,0.0,0.0,0.0,0.0,-2.5201,-2.8315,-3.0988,-3.2894,-3.4176,-3.5347,-3.6447,-3.6868,-3.7534,-3.8393,-3.8818,-3.9364,-4.0029,-4.0029,-3.9941,-3.9794,-4.0223,-4.0315,-4.0176,-4.0419,-4.0382,-4.0109,-3.902,-3.8319,-3.7969,-3.793,-3.4609,-3.0039,-3.0898,-2.8437,-2.5039,-2.6992,-3.0625,-3.457,-3.5625,-3.7187,-3.8867,-4.0351,-4.2617,-4.5039,-4.6797,-4.9297,-5.1601,-5.2461,-5.3828,-5.4961,-5.4961,-5.5576,-5.5345,-5.2444,-5.0957,-4.9398,-4.6989,-4.843,-5.0171,-5.0596,-5.3691,-5.6012,-5.6012,-5.6012,-5.6012,-5.6012,-5.6012,-5.6012,-5.6012,-5.6012,-5.6012,-5.6012,-5.6012,-5.6012,-5.6012,-5.6012,-5.6012,-5.6012,-5.6012,-5.6313,-5.697,-5.7598,-5.7714,-5.7318,-5.8178,-5.8255,-5.7637,-5.8062,-5.8255,-5.8255,-5.8023,-5.7946,-5.7946,-5.7946,-5.7559,-5.697,-5.697,-5.6583,-5.6012,-5.6012,-5.6012,-5.6012,0.0,0.0,0.0,0.0,0.0,0.0,0.0,0.0,0.0,0.0,0.0,0.0,0.0,0.0,0.0,0.0,0.0,0.0,0.0,-2.5457,-2.7482,-2.9141,-2.9762,-3.0659,-3.1911,-3.1675,-3.2457,-3.4373,-3.4096,-3.4759,-3.6206,-3.5853,-3.5711,-3.577,-3.6512,-3.6826,-3.6869,-3.7265,-3.7382,0.0,0.0,-3.4766,-3.4219,-3.3281,-3.0586,-2.7383,-2.8047,-2.8086,-2.8281,-3.125,-3.4414,-3.7383,-3.875,-4.0,-4.1406,-4.3516,-4.543,-4.7226,-4.8828,-5.1211,-5.3281,-5.3281,-5.457,-5.5469,-5.3945,-5.3896,-5.3118,-4.9208,-4.7328,-4.5809,-4.3815,-4.6264,-4.8662,-4.9088,-5.2995,-5.6012,-5.6012,-5.6012,-5.6012,-5.6012,-5.6012,-5.6012,-5.6012,-5.6012,-5.6012,-5.6012,-5.6012,-5.6012,-5.6012,-5.6012,-5.6012,-5.6012,-5.6012,-5.6429,-5.728,-5.8526,-5.8913,-5.8449,-5.93,-5.9455,-5.899,-5.9106,-5.9184,-5.9145,-5.8767,-5.8613,-5.8613,-5.8613,-5.8294,-5.783,-5.7434,-5.7009,-5.6506,-5.6119,-5.6012,-5.6012,0.0,0.0,0.0,0.0,0.0,0.0,0.0,0.0,0.0,-2.1836,-2.1211,-2.082,-2.0937,-2.0742,0.0,0.0,0.0,0.0,0.0,0.0,-2.3711,-2.5312,-2.4766,-2.5156,-2.6797,-2.5352,-2.6406,-3.0195,-2.8711,-2.9453,-3.2344,-3.1641,-3.1328,-3.1406,-3.2851,-3.3473,-3.349,-3.4412,-3.5152,-3.5444,-3.2615,-3.1445,-3.0937,0.0,-2.5234,-2.4492,-2.4023,-2.7539,-3.2891,-3.6328,-3.8437,-3.9805,-4.0781,-4.2226,-4.4023,-4.6328,-4.75,-4.8594,-5.0781,-5.2656,-5.3984,-5.3984,-5.5312,-5.5703,-5.2187,-5.1356,-4.9913,-4.5111,-4.2952,-4.1745,-4.1099,-4.3982,-4.6767,-4.7889,-5.226,-5.5625,-5.5935,-5.6012,-5.6012,-5.6012,-5.6012,-5.6012,-5.6012,-5.6012,-5.6012,-5.6012,-5.6012,-5.6012,-5.6012,-5.6012,-5.6051,-5.6158,-5.6283,-5.6747,-5.7628,-5.9261,-5.9996,-5.9919,-6.0731,-6.1041,-6.0925,-6.0344,-6.0074,-6.0035,-5.9261,-5.8913,-5.8913,-5.8913,-5.8874,-5.8681,-5.783,-5.7396,-5.7202,-5.6313,-5.6012,-5.6012,0.0,0.0,0.0,0.0,0.0,0.0,0.0,0.0,0.0,0.0,-2.4336,-2.1953,0.0,0.0,0.0,0.0,0.0,0.0,0.0,0.0,0.0,-2.3594,-2.4141,-2.4883,-2.5898,-2.5625,-2.5859,-2.6602,-2.6289,-2.6445,-2.7031,-2.6875,-2.6836,-2.6836,-2.7148,-2.7265,-2.7303,-2.8203,-2.8242,-2.7694,-2.7851,-2.7461,-2.6758,-2.5977,-2.5625,0.0,-2.6953,-2.9883,-3.3711,-3.7187,-4.1328,-4.5234,-4.6836,-4.8476,-4.9922,-5.0391,-5.0625,-5.0859,-5.1289,-5.2656,-5.3984,-5.3984,-5.5312,-5.5703,-5.2187,-5.1356,-4.9252,-4.2083,-4.0824,-3.9927,-3.6383,-3.9649,-4.3634,-4.5884,-4.9985,-5.3575,-5.5702,-5.6012,-5.6012,-5.6012,-5.6012,-5.6012,-5.6012,-5.6012,-5.6012,-5.6012,-5.6012,-5.6012,-5.6012,-5.6012,-5.6313,-5.7048,-5.7753,-5.8565,-5.9455,-6.0422,-6.0576,-5.9919,-6.0731,-6.0731,-6.0112,-6.0654,-6.0886,-6.0886,-6.0731,0.0,-6.0654,-6.0654,-6.0267,-5.9571,-5.872,-5.7946,-5.7202,-5.6313,-5.6012,-5.6012,0.0,0.0,0.0,0.0,0.0,0.0,0.0,-2.7773,-2.9023,-3.2461,-3.0781,-2.8359,-2.6094,-2.3516,-2.2109,0.0,0.0,0.0,0.0,0.0,0.0,-2.1836,-2.2227,-2.2617,-2.3047,-2.3047,-2.3281,-2.3711,0.0,-2.3477,-2.4336,-2.3906,-2.418,-2.5039,-2.5039,-2.5273,-2.5742,-2.6133,-2.582,-2.5117,-2.5977,-2.5781,-2.5078,-2.5547,-2.5977,0.0,-2.8359,-3.1172,-3.4336,-3.6016,-4.0898,-4.6601,-4.8359,-5.0039,-5.1406,-5.1406,-5.1406,-5.1406,-5.1406,-5.2344,-5.3437,-5.3906,-5.4961,-5.4648,-4.9844,-4.8357,-4.5805,-3.7992,-3.6998,-3.6724,-3.4187,-3.7909,-4.1893,-4.3556,-4.8159,-5.2105,-5.3807,-5.5161,-5.6012,-5.6012,-5.6012,-5.6012,-5.6012,-5.6012,-5.6012,-5.6012,-5.6012,-5.6012,-5.6012,-5.6429,-5.6854,-5.728,-5.8604,-5.9493,-5.988,-6.0692,-6.0925,-6.0538,-6.0925,-6.0886,-6.0538,-6.0925,-6.1118,-6.1118,-6.1118,-6.1118,-6.1118,-6.1118,-6.0886,-6.0422,-5.9609,-5.872,-5.7869,-5.7018,-5.639,-5.6012,0.0,0.0,0.0,0.0,0.0,0.0,0.0,-3.1601,-3.3203,-3.7383,-3.7305,-3.5156,-3.0703,-2.6836,-2.4258,0.0,0.0,0.0,0.0,0.0,0.0,0.0,0.0,0.0,-2.1172,0.0,0.0,-2.2187,-2.1484,0.0,0.0,0.0,0.0,0.0,-2.4141,-2.4492,-2.5156,-2.5352,-2.5039,0.0,0.0,-2.5586,-2.5039,0.0,0.0,0.0,0.0,-3.1445,-3.3984,-3.4726,-3.9141,-4.4726,-4.6836,-4.9297,-5.1367,-5.1172,-5.125,-5.1406,-5.1406,-5.2187,-5.3125,-5.3828,-5.4805,-5.3945,-4.7734,-4.5625,-4.2771,-3.4915,-3.379,-3.402,-3.3252,-3.6726,-4.0203,-4.177,-4.6278,-5.0171,-5.1958,-5.4078,-5.5586,-5.5973,-5.6012,-5.6012,-5.6012,-5.6012,-5.6012,-5.6012,-5.6158,-5.6274,-5.6274,-5.6932,-5.7473,-5.786,-5.9184,-5.9996,-6.0151,-6.077,-6.1118,-6.1118,-6.1118,-6.1118,-6.1118,-6.1118,-6.1118,-6.1118,-6.1118,-6.1118,-6.1118,-6.1118,-6.1118,-6.1041,-6.019,-5.9377,-5.8488,-5.7637,-5.6738,-5.6012,0.0,0.0,0.0,0.0,0.0,0.0,0.0,-3.3828,-3.6719,-4.332,-4.1484,-3.875,-3.6719,-3.1992,-2.7734,0.0,0.0,0.0,0.0,0.0,0.0,0.0,0.0,0.0,0.0,0.0,0.0,-2.3086,-2.293,0.0,0.0,0.0,0.0,0.0,0.0,-2.3242,-2.3398,-2.418,0.0,0.0,0.0,0.0,0.0,0.0,0.0,0.0,0.0,-3.0312,-3.1719,-3.4844,-3.6875,-3.8711,-4.1953,-4.6875,-5.125,-5.0508,-5.082,-5.1406,-5.1406,-5.2617,-5.3906,-5.3984,-5.5234,-5.4687,-4.7851,-4.5625,-4.2771,-3.4915,-3.3363,-3.3379,-3.3227,-3.4807,-3.7478,-4.1435,-4.3814,-4.6806,-5.1533,-5.3072,-5.4271,-5.5818,-5.6012,-5.6012,-5.6012,-5.6012,-5.6012,-5.6012,-5.6738,-5.7164,-5.7164,-5.7241,-5.8023,-5.9609,-5.9803,-6.0267,-6.0963,-6.1079,-6.1118,-6.1118,-6.1118,-6.1118,-6.1118,-6.1118,-6.1118,-6.1118,-6.1118,-6.1118,0.0,-6.1118,-6.1118,-6.1041,-6.019,-5.9377,-5.8488,-5.7637,-5.6738,-5.6012,0.0,0.0,0.0,0.0,0.0,0.0,-3.4922,-3.5586,-3.8359,-4.6328,-4.5234,-4.3086,-4.1328,-3.7461,-3.2344,-2.5742,0.0,0.0,0.0,0.0,0.0,0.0,0.0,0.0,0.0,0.0,-2.3125,-2.3203,-2.3672,0.0,0.0,0.0,0.0,0.0,0.0,-2.4648,-2.4687,-2.5039,0.0,0.0,0.0,0.0,0.0,0.0,0.0,0.0,0.0,0.0,-3.1797,-3.2656,-3.4883,-3.7344,-3.7656,-4.1562,-4.6328,-4.8125,-4.9609,-5.0898,-5.1914,-5.2695,-5.3476,-5.4531,-5.4101,-5.207,-4.6719,-4.3672,-4.0154,-3.3819,-3.2563,-3.271,-3.3128,-3.377,-3.5417,-3.9214,-4.123,-4.3363,-4.6419,-4.9359,-5.1641,-5.2793,-5.3846,-5.489,-5.5896,-5.6012,-5.6012,-5.6012,-5.6815,-5.7512,-5.8062,-5.8565,-5.9184,-5.988,-6.0383,-6.077,-6.1118,-6.1118,-6.1118,-6.1118,-6.1118,-6.1118,-6.1118,-6.1118,-6.1118,-6.1118,-6.1118,-6.1118,0.0,-6.1118,-6.1118,-6.1079,-6.0731,-5.9803,-5.8574,-5.8217,-5.7211,-5.6012,0.0,0.0,0.0,0.0,0.0,-3.0156,-3.5703,-3.6875,-3.9687,-4.6836,-4.668,-4.5234,-4.3516,-3.957,-3.4492,-2.8164,-2.6445,0.0,0.0,0.0,0.0,0.0,0.0,0.0,0.0,0.0,-2.4297,-2.4336,-2.5156,-2.5547,0.0,0.0,-2.6484,-2.6445,0.0,0.0,0.0,0.0,0.0,0.0,0.0,0.0,0.0,0.0,0.0,0.0,0.0,0.0,0.0,0.0,0.0,-3.5625,-3.4648,-3.7148,-4.1328,-4.5586,-4.8242,-5.0234,-5.2187,-5.3086,-5.375,-5.5,-5.3516,-5.0664,-4.6367,-4.2539,-3.8474,-3.3427,-3.2028,-3.203,-3.3047,-3.3191,-3.4222,-3.7436,-3.9125,-4.0887,-4.3324,-4.6496,-4.9126,-5.0705,-5.2221,-5.3691,-5.5122,-5.5702,-5.6012,-5.6012,-5.7056,-5.7946,-5.8574,-5.9648,-6.0267,-6.0267,-6.0809,-6.1118,-6.1118,-6.1118,-6.1118,-6.1118,-6.1118,-6.1118,-6.1118,-6.1118,-6.1118,-6.1118,-6.1118,-6.1118,0.0,-6.1118,-6.1118,-6.1118,-6.1118,-6.0074,-5.8613,-5.8613,-5.7482,-5.6012,0.0,0.0,0.0,0.0,0.0,0.0,-3.4062,-3.7656,-4.1094,-4.4609,-4.5039,-4.4336,-4.2617,-3.7031,-3.3086,-3.2226,-2.8203,0.0,0.0,0.0,0.0,0.0,0.0,0.0,0.0,0.0,-2.6953,-2.6953,-2.7812,-2.8242,-2.8242,-2.8281,-2.8281,-2.8242,0.0,0.0,0.0,0.0,0.0,0.0,0.0,0.0,0.0,0.0,0.0,0.0,0.0,0.0,0.0,0.0,0.0,0.0,0.0,-3.4648,-3.7266,-4.3242,-4.6875,-4.9453,-5.1992,-5.3945,-5.5273,-5.5312,-5.3984,-5.1562,-4.7266,-4.2969,-3.8631,-3.4211,-3.1954,-3.1301,-3.2987,-3.3229,-3.405,-3.669,-3.7734,-3.9721,-4.3975,-4.5297,-4.7115,-5.0511,-5.1679,-5.2577,-5.342,-5.5045,-5.6012,-5.6012,-5.7598,-5.8613,-5.8613,-6.019,-6.1079,-6.1079,-6.1118,-6.1118,-6.1118,-6.1118,-6.1118,-6.1118,-6.1118,-6.1118,-6.1118,-6.1118,-6.1118,-6.1118,-6.1118,-6.1118,0.0,-6.1118,-6.1118,-6.1118,-6.1118,-6.0074,-5.8613,-5.8613,-5.7482,-5.6012,0.0,0.0,0.0,0.0,0.0,0.0,0.0,-3.3945,-3.6289,-4.0898,-4.0469,-3.9961,-4.0625,-3.6328,-3.3281,-3.3047,-2.8516,0.0,0.0,0.0,0.0,0.0,0.0,0.0,0.0,-2.6875,-2.7891,-2.9687,-3.1094,-3.1484,-3.0976,-3.1523,-3.0859,-2.9141,-2.8281,-2.7891,0.0,0.0,0.0,0.0,0.0,0.0,-3.0898,0.0,0.0,0.0,0.0,0.0,0.0,0.0,0.0,0.0,0.0,0.0,0.0,-3.7773,-4.2344,-4.6523,-4.7969,-4.9609,-5.0625,-4.9453,-4.7383,-4.5,-4.25,-3.8555,-3.4882,-3.2907,-3.116,-3.0502,-3.2161,-3.1926,-3.3095,-3.8007,-3.8462,-3.9489,-4.3208,-4.5955,-4.7966,-4.9049,-5.2531,-5.4929,-5.52,-5.5702,-5.6012,-5.6012,-5.7598,-5.8613,-5.8613,-6.019,-6.1118,-6.1118,-6.1118,-6.1118,-6.1118,-6.1118,-6.1118,-6.1118,-6.1118,-6.1118,-6.1118,-6.1118,-6.1118,-6.1118,-6.1118,-6.1118,-6.1118,-6.1118,-6.1118,-6.1118,-6.1118,-6.0074,-5.8613,-5.8613,-5.7482,-5.6012,0.0,0.0,0.0,0.0,0.0,0.0,0.0,-3.2031,-3.3906,-3.7461,-3.6992,-3.7109,-3.918,-3.4961,-3.25,-3.3789,-2.9453,0.0,0.0,0.0,0.0,0.0,0.0,0.0,-2.6992,-2.7305,-2.9062,-3.2344,-3.3711,-3.4648,-3.5117,-3.5625,-3.4297,-3.1484,-3.0625,-2.9687,0.0,0.0,0.0,0.0,0.0,0.0,-3.0898,0.0,0.0,0.0,0.0,0.0,0.0,0.0,0.0,0.0,0.0,0.0,0.0,0.0,-3.8164,-4.207,-4.4258,-4.5859,-4.668,-4.5586,-4.3359,-4.1172,-4.0156,-3.6523,-3.3241,-3.2681,-3.1246,-3.0507,-3.186,-3.1595,-3.2611,-3.6959,-3.7458,-3.8682,-4.2744,-4.5413,-4.7695,-4.9591,-5.2917,-5.52,-5.5509,-5.5818,-5.6012,-5.6012,-5.7598,-5.8613,-5.8613,-6.019,-6.1118,-6.1118,-6.1118,-6.1118,-6.1118,-6.1118,-6.1118,-6.1118,-6.1118,-6.1118,-6.1118,-6.1118,-6.1118,-6.1118,-6.1118,-6.1118,0.0,-6.1118,-6.1118,-6.1118,-6.1118,-6.0074,-5.8613,-5.8613,-5.7482,-5.6012,0.0,0.0,0.0,0.0,0.0,0.0,0.0,-3.1523,-3.3437,-3.4219,-3.4375,-3.5312,-3.7695,-3.2969,-3.0898,-3.4062,0.0,0.0,0.0,0.0,0.0,0.0,0.0,0.0,-2.707,-2.7969,-3.0547,-3.4883,-3.5898,-3.7656,-4.0156,-4.0234,-3.8359,-3.4844,-3.3984,-3.2148,0.0,0.0,0.0,0.0,-2.9687,-3.0195,0.0,0.0,0.0,0.0,0.0,0.0,0.0,0.0,0.0,0.0,0.0,0.0,0.0,0.0,0.0,0.0,0.0,-4.2383,-4.3203,-4.3008,-4.1211,-3.9492,-3.9375,-3.6211,0.0,-3.323,-3.1949,-3.1092,-3.2018,-3.2102,-3.2611,-3.4559,-3.5525,-3.7831,-4.286,-4.4523,-4.7038,-5.1873,-5.3188,-5.4,-5.4813,-5.5548,-5.6012,-5.6012,-5.7598,-5.8613,-5.8613,-6.019,-6.1118,-6.1118,-6.1118,-6.1118,-6.1118,-6.1118,-6.1118,-6.1118,-6.1118,-6.1118,-6.1118,-6.1118,-6.1118,0.0,-6.1118,-6.1118,-6.1118,-6.1118,-6.1118,-6.1079,-6.1041,-6.0035,-5.8613,-5.8526,-5.7443,-5.6012,0.0,0.0,0.0,0.0,0.0,0.0,0.0,0.0,0.0,0.0,-3.1367,-3.1758,-3.1719,-3.0469,-2.9922,0.0,0.0,0.0,0.0,0.0,0.0,0.0,0.0,0.0,-2.7969,-2.8867,-3.1719,-3.668,-3.8906,-4.0937,-4.2812,-4.3476,-4.125,-3.6641,-3.5781,-3.3594,0.0,0.0,0.0,0.0,-3.0586,-3.0703,0.0,0.0,0.0,0.0,-3.0898,-3.1328,0.0,0.0,0.0,0.0,0.0,0.0,0.0,0.0,-3.1797,-3.2305,-3.332,0.0,-3.832,-3.6328,-3.5859,-3.5586,0.0,-3.3161,-3.2218,-3.16,-3.0581,-3.0499,-3.2694,-3.2471,-3.3429,-3.7786,-3.9093,-4.1164,-4.5568,-4.9204,-5.2337,-5.4813,-5.5277,-5.5509,-5.5702,-5.5896,-5.6012,-5.6012,-5.7598,-5.8613,-5.8613,-6.019,-6.1118,-6.1118,-6.1118,-6.1118,-6.1118,-6.1118,-6.1118,-6.1118,-6.1118,-6.1118,-6.1118,-6.1118,-6.1118,-6.1118,-6.1118,-6.1118,-6.1118,-6.1118,-6.1118,-6.1041,-6.0422,-5.9532,-5.8526,-5.7869,-5.694,-5.6012,0.0,0.0,0.0,0.0,0.0,0.0,0.0,0.0,0.0,0.0,0.0,-3.0703,-3.0234,-3.0195,0.0,0.0,0.0,0.0,0.0,0.0,0.0,0.0,0.0,-2.6523,-2.8242,-2.9141,-3.2539,-3.8476,-4.0312,-4.2891,-4.6094,-4.6172,-4.3437,-3.8359,-3.5117,-3.2617,0.0,0.0,0.0,-3.0859,-3.0469,0.0,0.0,0.0,0.0,0.0,-3.0898,-3.1211,0.0,-3.2422,-3.2461,-3.2266,0.0,0.0,0.0,0.0,-3.0039,-2.9726,-2.9726,-3.2539,-3.5078,-3.3281,-3.3203,-3.332,-3.2422,-3.1561,-3.0934,-3.0898,-3.0506,-3.0697,-3.2455,-3.3668,-3.5239,-3.8011,-4.1075,-4.4607,-4.8863,-5.2801,-5.5432,-5.5935,-5.6351,-5.6429,-5.6051,-5.6012,-5.6012,-5.6012,-5.7598,-5.8613,-5.8613,-6.019,-6.1118,-6.1118,-6.1118,-6.1118,-6.1118,-6.1118,-6.1118,-6.1118,-6.1118,-6.1118,-6.1118,-6.1118,-6.1118,-6.1118,-6.1118,-6.1118,-6.1118,-6.1118,-6.1118,-6.1079,-6.0615,-5.9687,-5.8526,-5.8062,-5.7095,-5.6012,0.0,0.0,0.0,0.0,0.0,0.0,0.0,0.0,0.0,0.0,0.0,0.0,0.0,0.0,0.0,0.0,0.0,0.0,0.0,0.0,0.0,0.0,0.0,-2.6836,-2.8867,-2.9492,-3.3125,-3.9883,-4.1016,-4.4023,-4.8711,-4.8476,-4.543,-3.9844,-3.4219,-3.1406,-3.0859,0.0,-3.0234,-3.0859,-3.0117,0.0,0.0,0.0,0.0,0.0,0.0,0.0,0.0,-3.3437,-3.3242,-3.2383,-3.3555,0.0,0.0,0.0,0.0,0.0,-2.8945,-3.1562,-3.3828,-3.2187,-3.2187,-3.2461,-3.2109,-3.1133,-3.0507,-3.1016,-3.1211,-3.1716,-3.3179,-3.5551,-3.7552,-3.8412,-4.3123,-4.8012,-5.1881,-5.5122,-5.6815,-5.6089,-5.6661,-5.6815,-5.6089,-5.6012,-5.6012,-5.6012,-5.7598,-5.8613,-5.8613,-6.019,-6.1118,-6.1118,-6.1118,-6.1118,-6.1118,-6.1118,-6.1118,-6.1118,-6.1118,-6.1118,-6.1118,-6.1118,-6.1118,-6.1118,0.0,0.0,-6.1118,-6.1118,-6.1118,-6.1079,-6.0963,-5.9957,-5.8574,-5.8449,-5.7366,-5.6012,0.0,0.0,0.0,0.0,0.0,0.0,0.0,0.0,0.0,0.0,0.0,0.0,0.0,0.0,0.0,0.0,0.0,0.0,0.0,0.0,0.0,-2.793,-2.7187,-2.832,-3.1523,-3.1016,-3.3711,-3.9883,-4.2187,-4.4844,-4.7851,-5.0625,-4.8008,-4.082,-3.6953,-3.3594,-3.0898,-3.0742,-3.0781,-3.0898,-3.0742,0.0,0.0,0.0,0.0,0.0,0.0,0.0,0.0,-3.1601,-3.1797,-3.1992,-3.0781,0.0,0.0,0.0,0.0,0.0,-3.1836,-3.5156,-3.6562,-3.1328,-3.2187,-3.375,-3.1601,-3.2535,-3.3468,-3.2265,-3.2535,-3.4357,-3.8826,-3.8865,-3.9813,-4.4821,-4.816,-5.0867,-5.2995,-5.4967,-5.6158,-5.6012,-5.6128,-5.6158,-5.6012,-5.6012,-5.6012,-5.6012,-5.7598,-5.8613,-5.8613,-6.019,-6.1118,-6.1118,-6.1118,-6.1118,-6.1118,-6.1118,-6.1118,-6.1118,-6.1118,-6.1118,-6.1118,-6.1118,-6.1118,-6.1118,0.0,-6.1118,-6.1118,-6.1118,-6.1118,-6.1041,-6.0344,-5.9493,-5.8488,-5.7791,-5.6854,-5.6012,0.0,0.0,0.0,0.0,0.0,0.0,0.0,0.0,0.0,0.0,0.0,0.0,0.0,0.0,0.0,0.0,0.0,0.0,0.0,0.0,0.0,-3.1719,-3.0937,-3.1211,-3.2812,-3.3398,-3.6836,-4.3359,-4.5469,-4.8086,-5.1016,-4.8359,-4.4766,-4.0273,-3.5391,-3.2383,-3.0898,-3.0898,-3.0898,-3.0898,0.0,0.0,0.0,0.0,0.0,0.0,0.0,0.0,0.0,0.0,-3.1172,-3.1445,-3.1094,0.0,0.0,0.0,0.0,0.0,-2.9492,-3.2148,-3.4219,-3.3281,-3.668,-3.9844,-3.8203,-3.8319,-3.8357,-3.6719,-3.6639,-3.7879,-4.1064,-4.211,-4.4569,-5.0939,-5.2144,-5.2917,-5.4619,-5.5935,-5.6545,-5.6051,-5.6429,-5.6506,-5.6051,-5.6012,-5.6012,-5.6012,-5.7598,-5.8613,-5.8613,-6.019,-6.1118,-6.1118,-6.1118,-6.1118,-6.1118,-6.1118,-6.1118,-6.1118,-6.1118,-6.1118,-6.1118,-6.1118,-6.1118,-6.1118,0.0,-6.1118,-6.1118,-6.1118,-6.1118,-6.1079,-6.0692,-6.0035,-5.9145,-5.7791,-5.6738,-5.6012,0.0,0.0,0.0,0.0,0.0,0.0,0.0,0.0,0.0,0.0,0.0,0.0,0.0,0.0,0.0,0.0,0.0,0.0,0.0,0.0,-3.1172,-3.3984,-3.4062,-3.457,-3.5781,-3.6914,-4.0703,-4.7226,-4.8945,-5.1211,-5.3867,-4.6875,-4.2305,-3.9687,-3.4414,-3.1641,-3.0898,-3.0898,-3.0898,-3.0898,0.0,0.0,0.0,0.0,0.0,0.0,0.0,0.0,0.0,0.0,0.0,0.0,0.0,0.0,0.0,-2.875,-2.7695,-2.7187,-2.8008,-3.0117,-3.293,-3.6367,-4.0078,-4.3086,-4.3828,-4.3047,-4.1992,-4.1482,-4.1365,-4.1898,-4.3658,-4.6202,-4.9664,-5.4605,-5.4658,-5.4542,-5.5818,-5.6583,-5.6738,-5.6089,-5.6583,-5.6738,-5.6042,-5.6012,-5.6012,-5.6012,-5.7598,-5.8613,-5.8613,-6.019,-6.1118,-6.1118,-6.1118,-6.1118,-6.1118,-6.1118,-6.1118,-6.1118,-6.1118,-6.1118,-6.1118,-6.1118,-6.1118,-6.1118,-6.1118,-6.1118,-6.1118,-6.1118,-6.1118,-6.1118,-6.1118,-6.0499,-5.9416,-5.7869,-5.6738,-5.6012,0.0,0.0,0.0,0.0,0.0,0.0,0.0,0.0,0.0,0.0,0.0,0.0,0.0,0.0,0.0,0.0,0.0,0.0,0.0,0.0,-3.1289,-3.2344,-3.457,-3.8047,-4.2851,-4.2305,-4.457,-4.9922,-5.1601,-5.2969,-5.3906,-4.9336,-4.4609,-3.9766,-3.6914,-3.3867,-3.0898,-3.0898,-3.0898,-3.0898,-3.0898,0.0,0.0,0.0,0.0,0.0,0.0,0.0,0.0,0.0,0.0,0.0,0.0,0.0,-2.9492,-2.8555,-2.7695,-2.7695,-3.0937,-3.3672,-3.6484,-3.9961,-3.8711,-3.8086,-4.3633,-4.3047,-4.2147,-4.5129,-4.5744,-4.6451,-4.8838,-5.1932,-5.4056,-5.3738,-5.489,-5.5857,-5.5973,-5.6051,-5.6089,-5.6012,-5.6051,-5.6089,-5.6012,-5.6012,-5.6012,-5.6012,-5.7598,-5.8613,-5.8613,-6.019,-6.1118,-6.1118,-6.1118,-6.1118,-6.1118,-6.1118,-6.1118,-6.1118,-6.1118,-6.1118,-6.1118,-6.1118,-6.1118,-6.1118,-6.1118,-6.1118,-6.1118,-6.1118,-6.1118,-6.1118,-6.1118,-6.0112,-5.8565,-5.7637,-5.6738,-5.6012,0.0,0.0,0.0,0.0,0.0,0.0,0.0,0.0,0.0,0.0,0.0,0.0,0.0,0.0,0.0,0.0,0.0,0.0,0.0,-3.0898,-3.1992,-3.4453,-3.6523,-3.9023,-4.207,-4.4961,-4.8984,-5.418,-5.4805,-5.4453,-5.3047,-4.6601,-4.1992,-3.8906,-3.4687,-3.2422,-3.168,-3.1133,-3.1211,-3.1641,-3.1133,-3.0898,0.0,0.0,0.0,0.0,0.0,0.0,0.0,0.0,-2.8164,-2.8867,-2.918,-2.9805,-3.0234,-2.9375,-2.8476,-2.8203,-3.0078,-3.3242,-3.6719,-3.9648,-4.0586,-4.2226,-4.7734,-4.9062,-4.9531,-5.0777,-5.0605,-5.0277,-5.0509,-5.3274,-5.5277,-5.4426,-5.5277,-5.6012,-5.6012,-5.6012,-5.6012,-5.6012,-5.6012,-5.6012,-5.6012,-5.6012,-5.6012,-5.6012,-5.7095,-5.8023,-5.8574,-5.9725,-6.0576,-6.1079,-6.1118,-6.1118,-6.1118,-6.1118,-6.1118,-6.1118,-6.1118,-6.1118,-6.1118,-6.1118,-6.1118,-6.1118,-6.1118,-6.1118,-6.1118,-6.1118,-6.1118,-6.1118,-6.1118,-6.0074,-5.8574,-5.8217,-5.7211,-5.6012,0.0,0.0,0.0,0.0,0.0,0.0,0.0,0.0,0.0,0.0,0.0,0.0,0.0,0.0,0.0,0.0,0.0,0.0,-3.0898,-3.0898,-3.207,-3.4687,-3.6719,-3.8867,-4.1133,-4.625,-5.0898,-5.4961,-5.6055,-5.4844,-5.1367,-4.4961,-4.1055,-3.9219,-3.457,-3.3008,-3.3711,-3.2305,-3.1875,-3.2109,-3.125,-3.0898,0.0,0.0,0.0,0.0,0.0,0.0,0.0,0.0,-2.7305,-2.8398,-2.8945,-3.0117,-3.1094,-2.9922,-3.0312,-3.1133,-3.1211,-3.3945,-3.75,-4.0391,-4.2422,-4.5039,-5.0234,-5.1914,-5.2851,-5.445,-5.3793,-5.2758,-5.2279,-5.3863,-5.5122,-5.4851,-5.547,-5.6012,-5.6012,-5.6012,-5.6012,-5.6012,-5.6012,-5.6012,-5.6012,-5.6012,-5.6012,-5.6012,-5.7056,-5.7985,-5.8574,-5.9648,-6.0538,-6.1079,-6.1118,-6.1118,-6.1118,-6.1118,-6.1118,-6.1118,-6.1118,-6.1118,-6.1118,-6.1118,-6.1118,-6.1118,-6.1118,-6.1118,-6.1118,-6.1118,-6.1118,-6.1118,-6.1118,-6.0228,-5.899,-5.899,-5.7907,-5.639,0.0,0.0,0.0,0.0,0.0,0.0,0.0,0.0,0.0,0.0,0.0,0.0,0.0,0.0,0.0,0.0,0.0,0.0,-3.0898,-3.0898,-3.1289,-3.2148,-3.4648,-3.7617,-4.1055,-4.6172,-4.9648,-5.1406,-5.4844,-5.3906,-4.875,-4.5273,-4.2773,-4.1016,-3.7578,-3.6484,-3.7109,-3.4492,-3.293,-3.2109,-3.125,-3.0898,-3.0781,0.0,0.0,0.0,0.0,0.0,0.0,0.0,-2.8281,-2.8594,-3.0351,-3.1484,-3.1875,-3.0117,-3.3242,-3.6875,-3.5156,-3.6601,-3.9453,-4.2812,-4.375,-4.5156,-5.0234,-5.0117,-5.0389,-5.5443,-5.4983,-5.3851,-5.4652,-5.4116,-5.3807,-5.4658,-5.547,-5.6012,-5.6012,-5.6012,-5.6012,-5.6012,-5.6012,-5.6012,-5.6012,-5.6012,-5.6012,-5.6012,-5.7598,-5.8574,-5.8613,-6.0151,-6.1079,-6.1118,-6.1118,-6.1118,-6.1118,-6.1118,-6.1118,-6.1118,-6.1118,-6.1118,-6.1118,-6.1118,-6.1118,-6.1118,-6.1118,-6.1118,-6.1118,-6.1118,-6.1118,-6.1118,-6.1118,-6.0615,-5.988,-5.988,-5.8797,-5.728,0.0,0.0,0.0,0.0,0.0,0.0,0.0,0.0,0.0,0.0,0.0,0.0,0.0,0.0,0.0,0.0,0.0,0.0,-3.0898,-3.0898,-3.1016,-3.1289,-3.3711,-3.5039,-3.4883,-3.9336,-4.4844,-5.1406,-5.125,-4.8828,-4.4297,-4.207,-3.9766,-3.7539,-3.7734,-3.6601,-3.4492,-3.3711,-3.293,-3.2187,-3.1914,-3.1445,-3.0781,0.0,0.0,0.0,0.0,0.0,0.0,0.0,0.0,0.0,-2.9453,-3.1406,-3.2695,-3.1016,-3.2422,-3.418,-3.25,-3.6562,-4.1367,-4.1836,-4.6484,-5.1172,-5.2109,-5.2383,-5.3241,-5.595,-5.5961,-5.538,-5.4938,-5.5087,-5.5161,-5.4851,-5.547,-5.6012,-5.6012,-5.6012,-5.6012,-5.6012,-5.6012,-5.6012,-5.6012,-5.6012,-5.6012,-5.6012,-5.6476,-5.7327,-5.8535,-5.9068,-5.988,-6.1079,-6.1118,-6.1118,-6.1118,-6.1118,-6.1118,-6.1118,-6.1118,-6.1118,-6.1118,-6.1118,-6.1118,-6.1118,-6.1118,-6.1118,-6.1118,-6.1118,-6.1118,-6.1118,-6.1118,-6.0615,-5.988,-5.988,-5.8797,-5.728,0.0,0.0,0.0,0.0,0.0,0.0,0.0,0.0,0.0,0.0,-3.0898,-3.0898,0.0,0.0,0.0,0.0,0.0,0.0,-3.0898,-3.0898,-3.1055,-3.1406,-3.2891,-3.3867,-3.4219,-3.8086,-4.1992,-4.5781,-4.6133,-4.4648,-4.1406,-4.1406,-4.0742,-3.9648,-4.1055,-3.9922,-3.6914,-3.5898,-3.4609,-3.3164,-3.2812,-3.2344,-3.1758,0.0,0.0,0.0,0.0,0.0,0.0,0.0,0.0,0.0,-2.8242,-2.9844,-3.1523,-3.2226,-3.457,-3.7148,-3.7851,-4.1914,-4.6172,-4.7109,-5.0156,-5.3203,-5.4062,-5.4648,-5.5311,-5.6302,-5.6131,-5.5696,-5.5468,-5.5474,-5.547,-5.5316,-5.5664,-5.6012,-5.6012,-5.6012,-5.6012,-5.6012,-5.6012,-5.6012,-5.6012,-5.6012,-5.6012,-5.6012,-5.6313,-5.7134,-5.8535,-5.8913,-5.9725,-6.1079,-6.1118,-6.1118,-6.1118,-6.1118,-6.1118,-6.1118,-6.1118,-6.1118,-6.1118,-6.1118,-6.1118,-6.1118,-6.1118,-6.1118,-6.1118,-6.1118,-6.1118,-6.1118,-6.1118,-6.0809,-6.0383,-6.0383,-5.93,-5.783,0.0,0.0,0.0,0.0,0.0,0.0,0.0,0.0,0.0,-3.0898,-3.0898,-3.0898,0.0,0.0,0.0,-3.0898,-3.0898,-3.0898,-3.0898,-3.0898,-3.1289,-3.2148,-3.2422,-3.3984,-3.7109,-4.0078,-4.0078,-3.6953,-4.0312,-4.1133,-3.9609,-4.2226,-4.3906,-4.4687,-4.5625,-4.4531,-4.1758,-3.9219,-3.668,-3.4297,-3.3594,-3.3242,-3.3008,-3.1406,0.0,0.0,0.0,0.0,0.0,0.0,0.0,0.0,-2.7187,-2.7851,-2.9297,-3.3203,-3.8086,-4.3008,-4.6797,-4.9531,-5.207,-5.5312,-5.3984,-5.2695,-5.5898,-5.6601,-5.6561,-5.6502,-5.5786,-5.5351,-5.6063,-5.5482,-5.5161,-5.5896,-5.6012,-5.6012,-5.6012,-5.6012,-5.6012,-5.6012,-5.6012,-5.6012,-5.6012,-5.6012,-5.6012,-5.6012,-5.6738,-5.7559,-5.8449,-5.93,-6.0151,-6.0963,-6.1079,-6.1118,-6.1118,-6.1118,-6.1118,-6.1118,-6.1118,-6.1118,-6.1118,-6.1118,-6.1118,-6.1118,-6.1118,-6.1118,-6.1118,-6.1118,-6.1118,-6.1118,-6.1118,-6.1118,-6.1118,-6.1118,-6.0035,-5.8613,0.0,0.0,0.0,0.0,0.0,0.0,0.0,0.0,-3.0898,-3.0898,-3.0898,-3.0898,-3.0898,-3.0898,0.0,-3.0898,-3.0898,-3.0898,-3.0898,-3.0898,-3.1289,-3.2148,-3.4101,-3.5547,-3.625,-3.5664,-3.4961,-3.4258,-3.7031,-3.7851,-3.6914,-4.0195,-4.1836,-4.207,-4.3594,-4.207,-3.8242,-3.5625,-3.3437,-3.1758,-3.2266,-3.2031,-3.1328,-3.0273,-2.9648,0.0,0.0,0.0,0.0,0.0,0.0,0.0,-2.8594,-2.9648,-3.0508,-3.1445,-3.5859,-4.0351,-3.9922,-4.5,-5.0781,-5.2187,-5.4023,-5.5664,-5.6445,-5.6601,-5.6601,-5.6561,-5.6282,-5.607,-5.6242,-5.598,-5.5818,-5.5973,-5.6012,-5.6012,-5.6012,-5.6012,-5.6012,-5.6012,-5.6012,-5.6012,-5.6012,-5.6012,-5.6012,-5.6012,-5.6158,-5.6661,-5.7521,-5.841,-5.9261,-6.0112,-6.077,-6.1118,-6.1118,-6.1118,-6.1118,0.0,-6.1118,-6.1118,-6.1118,-6.1118,-6.1118,-6.1118,-6.1118,-6.1118,-6.1118,-6.1118,-6.1118,-6.1118,-6.1118,-6.1118,-6.1118,-6.1118,-6.0035,-5.8613,0.0,0.0,0.0,0.0,0.0,0.0,0.0,0.0,-3.0897,-3.0897,-3.0897,-3.0897,-3.0897,-3.0898,0.0,0.0,-3.0898,-3.0898,-3.0898,-3.0898,-3.1445,-3.2734,-3.4453,-3.5195,-3.4766,-3.3476,-3.2617,-3.2187,-3.3164,-3.4414,-3.6055,-3.8711,-4.082,-4.2422,-4.332,-4.1328,-3.7187,-3.5391,-3.3437,-3.1601,-3.2422,-3.25,-3.1953,-3.0703,-2.9687,-2.875,-2.6953,0.0,0.0,0.0,0.0,0.0,0.0,0.0,-2.9062,-3.2383,-3.5273,-3.8281,-4.2383,-4.7031,-5.1289,-5.3359,-5.5273,-5.6601,-5.6601,-5.6601,-5.6601,-5.6601,-5.6501,-5.6404,-5.6404,-5.6247,-5.6094,-5.6094,-5.6024,-5.6012,-5.6012,-5.6012,-5.6012,-5.6012,-5.6012,-5.6012,-5.6012,-5.6012,-5.6012,-5.6012,-5.6012,-5.639,-5.7241,-5.7714,-5.8565,-5.9841,-6.0306,-6.0692,-6.1118,-6.1118,-6.1118,-6.1118,-6.1118,-6.1118,-6.1118,-6.1118,-6.1118,-6.1118,-6.1118,-6.1118,-6.1118,-6.1118,-6.1118,-6.1118,-6.1118,-6.1118,-6.1118,-6.1118,-6.0035,-5.8613,0.0,0.0,0.0,0.0,0.0,0.0,0.0,0.0,0.0,-3.0894,-3.0894,-3.0894,-3.0895,-3.0896,-3.0897,0.0,0.0,0.0,-3.0898,-3.1055,-3.1797,-3.332,-3.4219,-3.4375,-3.3633,-3.2539,-3.1719,-3.1133,-2.9961,-3.1719,-3.625,-3.7851,-4.0351,-4.3476,-4.3008,-4.0664,-3.6992,-3.5508,-3.3594,-3.1562,-3.2266,-3.2422,-3.2148,-3.0742,-2.9336,-2.7969,-2.7109,-2.707,-2.7539,-2.8125,0.0,0.0,0.0,0.0,-2.7305,-3.3164,-3.4922,-3.6758,-4.5234,-4.9219,-5.1875,-5.5664,-5.6601,-5.6601,-5.6601,-5.6601,-5.6601,-5.6601,-5.6553,-5.6489,-5.6489,-5.6333,-5.6214,-5.6214,-5.6087,-5.6012,-5.6012,-5.6012,-5.6012,-5.6012,-5.6012,-5.6012,-5.6012,-5.6012,-5.6012,-5.6012,-5.6012,-5.6313,-5.7048,-5.7202,-5.8023,-5.9609,-5.9803,-6.0306,-6.1079,-6.1118,-6.1118,-6.1118,-6.1118,-6.1118,-6.1118,-6.1118,-6.1118,-6.1118,-6.1118,-6.1118,-6.1118,-6.1118,-6.1118,-6.1118,-6.1118,-6.1118,-6.1118,-6.1118,-6.0035,-5.8613,0.0,0.0,0.0,0.0,0.0,0.0,0.0,0.0,0.0,0.0,-3.0894,-3.0895,-3.0897,-3.0897,-3.0897,-3.0898,-3.0898,-3.0898,-3.0898,0.0,0.0,-3.3359,-3.4219,-3.4648,-3.4531,-3.2266,-3.1406,-3.2031,-2.9648,-3.1445,-3.7148,-3.8125,-4.0039,-4.2461,-4.0273,-3.8125,-3.5937,-3.207,-2.9805,-2.8828,-2.8945,-2.8516,-2.7812,-2.7617,-2.7383,-2.707,-2.6172,-2.7344,-2.9141,-2.8516,-2.9297,0.0,0.0,0.0,-2.8281,-2.9961,-3.3008,-3.5976,-3.6601,-4.2851,-5.043,-5.5351,-5.6601,-5.6601,-5.6601,-5.6601,-5.6601,-5.6601,-5.6553,-5.6489,-5.6489,-5.6333,-5.6214,-5.6214,-5.6087,-5.6012,-5.6012,-5.6012,-5.6012,-5.6012,-5.6012,-5.6012,-5.6012,-5.6012,-5.6012,-5.6012,-5.6012,-5.6051,-5.6158,-5.6893,-5.7753,-5.872,-5.9493,-6.0306,-6.1079,-6.1118,-6.1118,-6.1118,-6.1118,-6.1118,-6.1118,-6.1118,-6.1118,-6.1118,-6.1118,-6.1118,-6.1118,-6.1118,-6.1118,-6.1118,-6.1118,-6.1118,-6.1118,-6.1118,-6.0035,-5.8613,0.0,0.0,0.0,0.0,0.0,0.0,0.0,0.0,0.0,0.0,0.0,-3.0891,-3.085,-3.0892,-3.0699,-3.0194,-3.0624,-3.0898,-3.0898,-3.125,-3.1836,-3.2695,-3.2617,-3.2578,-3.2578,-3.0508,-2.9883,-3.0742,-2.9101,-3.1406,-3.7305,-3.8203,-3.9961,-4.2266,-3.9219,-3.6914,-3.5039,-3.1211,-2.9101,-2.8281,-2.8281,-2.9492,-3.1016,-2.8086,-2.8476,-3.0234,-2.7422,-2.7461,-2.8945,-2.957,-3.0586,-3.1641,-3.1641,0.0,0.0,0.0,-3.0586,-3.2851,-3.8281,-4.4922,-5.1328,-5.5547,-5.6601,-5.6601,-5.6601,-5.6601,-5.6601,-5.6601,-5.656,-5.6556,-5.6556,-5.6433,-5.6347,-5.6251,-5.6175,-5.6087,-5.602,-5.6012,-5.6012,-5.6012,-5.6012,-5.6012,-5.6012,-5.6012,-5.6012,-5.6012,-5.6012,-5.6012,-5.6012,-5.6351,-5.7211,-5.8574,-5.8952,-5.9803,-6.1079,-6.1118,-6.1118,-6.1118,-6.1118,-6.1118,-6.1118,-6.1118,-6.1118,-6.1118,-6.1118,-6.1118,-6.1118,-6.1118,-6.1118,-6.1118,-6.1118,-6.1118,-6.1118,-6.1118,-6.0344,-5.9339,0.0,0.0,0.0,0.0,0.0,0.0,0.0,0.0,0.0,0.0,0.0,-3.0846,-3.0843,0.0,0.0,0.0,-2.9997,-3.0233,-3.0234,-3.0469,-3.0859,-3.1523,-3.0703,-3.0234,-3.0234,-2.875,-2.8398,-2.9258,-2.8828,-3.1836,-3.7969,-3.8633,-4.0547,-4.3242,-3.9805,-3.707,-3.4805,-3.1133,-2.9219,-2.8633,-2.8867,-3.0898,-3.3476,-3.1172,-3.2266,-3.4492,-3.0156,-2.9336,-3.0273,-3.0508,-3.1289,-3.2148,-3.1953,-3.082,0.0,0.0,0.0,-2.9766,-3.9453,-4.4726,-4.8672,-5.3711,-5.5117,-5.5508,-5.6406,-5.6601,-5.6601,-5.6601,-5.6601,-5.6601,-5.6601,-5.6551,-5.6477,-5.6351,-5.628,-5.6174,-5.6056,-5.6037,-5.6012,-5.6012,-5.6012,-5.6012,-5.6012,-5.6012,-5.6012,-5.6012,-5.6012,-5.6012,-5.6012,-5.6012,-5.6786,-5.8535,-5.8613,-5.9416,-6.1079,-6.1118,-6.1118,-6.1118,-6.1118,-6.1118,-6.1118,-6.1118,-6.1118,-6.1118,-6.1118,-6.1118,-6.1118,-6.1118,-6.1118,-6.1118,-6.1118,-6.1118,-6.1118,-6.1118,-6.0576,-5.988,0.0,0.0,0.0,0.0,0.0,0.0,0.0,0.0,0.0,0.0,0.0,-3.0843,-3.0887,-3.015,-2.9645,-2.9608,-2.8906,-2.8437,-2.8437,-2.9219,-2.9687,-2.9726,-2.8906,0.0,-2.8437,-2.7539,-2.75,-2.8359,-2.9141,-3.3047,-3.9766,-3.9805,-4.207,-4.5937,-4.2539,-3.9101,-3.5664,-3.1406,-2.957,-2.9609,-3.043,-3.0898,-3.168,-3.7148,-3.9375,-3.8984,-3.4648,-3.4141,-3.5,-3.1016,-3.0781,-3.207,-3.1211,-3.0351,-2.9297,0.0,0.0,0.0,-3.5469,-3.7226,-3.9023,-4.8242,-5.1094,-5.2539,-5.5859,-5.6601,-5.6601,-5.6601,-5.6601,-5.6601,-5.6601,-5.6551,-5.6487,-5.6484,-5.6324,-5.6214,-5.6207,-5.6079,-5.6012,-5.6012,-5.6012,-5.6012,-5.6012,-5.6012,-5.6012,-5.6012,-5.6012,-5.6012,-5.6012,-5.6012,-5.6786,-5.8535,-5.8613,-5.9416,-6.1079,-6.1118,-6.1118,-6.1118,-6.1118,-6.1118,-6.1118,-6.1118,-6.1118,-6.1118,-6.1118,-6.1118,-6.1118,-6.1118,-6.1118,-6.1118,-6.1118,-6.1118,-6.1118,-6.1118,-6.0576,-5.988,0.0,0.0,0.0,0.0,0.0,0.0,0.0,0.0,0.0,0.0,0.0,0.0,0.0,-2.9792,-2.9131,-2.8041,-2.7655,-2.7695,-2.8242,-2.8593,-2.8789,-2.8788,-2.8475,-2.8045,-2.7499,-2.7147,-2.7147,-2.7461,-2.8359,-3.1133,-3.5781,-3.8008,-3.9883,-4.1289,-4.0078,-3.8516,-3.6523,-3.1641,-2.9922,-3.0586,-3.2539,-3.5312,-3.8476,-4.0117,-4.2422,-4.4297,-3.9961,-3.7734,-3.668,-3.5703,-3.4297,-3.2812,-3.1992,-3.0742,-2.9023,-2.6172,-2.668,-2.9062,-3.2969,-3.582,-3.9023,-4.4648,-4.8359,-5.1094,-5.2851,-5.5,-5.6601,-5.6601,-5.6601,-5.6601,-5.6601,-5.6561,-5.6554,-5.6493,-5.6379,-5.623,-5.6226,-5.6079,-5.6012,-5.6012,-5.6012,-5.6012,-5.6012,-5.6012,-5.6012,-5.6012,-5.6012,-5.6012,-5.6012,-5.6012,-5.6553,-5.7714,-5.8294,-5.9416,-6.1079,-6.1118,-6.1118,-6.1118,-6.1118,-6.1118,-6.1118,-6.1118,-6.1118,-6.1118,-6.1118,-6.1118,-6.1118,-6.1118,-6.1118,-6.1118,-6.1118,-6.1118,-6.106,-6.092,-6.0674,-6.0382,0.0,0.0,0.0,0.0,0.0,0.0,0.0,0.0,-2.8812,-2.9124,0.0,0.0,0.0,0.0,-2.8897,-2.7144,-2.7264,-2.7422,-2.7422,-2.7695,-2.7851,-2.785,-2.7576,-2.7303,-2.6991,-2.6443,-2.6405,-2.6992,-2.7578,-2.9922,-3.3906,-3.6211,-3.793,-3.8984,-3.75,-3.7187,-3.7461,-3.3437,-3.1758,-3.207,-3.5781,-3.8828,-4.1406,-4.4062,-4.6289,-4.7578,-4.4141,-4.1797,-4.0273,-3.9961,-3.8516,-3.6406,-3.3867,-3.0664,-2.7383,-2.5078,-2.625,-2.8555,-2.9687,-3.2734,-3.668,-4.1289,-4.4141,-4.6992,-5.1289,-5.3398,-5.4844,-5.6289,-5.6601,-5.6601,-5.6601,-5.6601,-5.6601,-5.655,-5.6433,-5.6332,-5.6305,-5.6155,-5.6056,-5.6056,-5.6046,-5.6012,-5.6012,-5.6012,-5.6012,0.0,0.0,0.0,-5.6012,-5.6012,-5.6515,-5.7714,-5.8565,-5.9687,-6.1079,-6.1118,-6.1118,-6.1118,-6.1118,-6.1118,-6.1118,-6.1118,-6.1118,-6.1118,-6.1118,-6.1118,-6.1118,-6.1118,-6.1118,-6.1118,-6.1118,-6.1118,-6.1051,-6.0795,-6.0704,-6.0669,0.0,0.0,0.0,0.0,0.0,0.0,0.0,0.0,-2.7367,-2.8225,0.0,0.0,0.0,0.0,0.0,-2.7266,-2.7851,-2.7617,-2.5859,-2.6523,-2.6953,-2.6953,-2.6132,-2.6093,-2.6953,-2.5312,-2.5234,-2.6914,-2.6953,-2.9531,-3.4453,-3.4492,-3.6367,-3.9453,-3.5273,-3.5234,-3.8242,-3.6523,-3.4883,-3.3984,-3.9883,-4.0898,-3.9922,-4.9141,-5.1172,-4.8906,-4.7226,-4.6523,-4.6055,-4.3516,-4.3086,-4.2539,-3.6445,-2.9922,-2.4453,-2.4414,-2.5039,-2.5781,0.0,0.0,0.0,-3.793,-3.8398,-4.0078,-5.1055,-5.168,-5.1211,-5.5547,-5.6445,-5.6445,-5.6562,-5.6601,-5.6601,-5.6601,-5.6551,-5.6487,-5.6487,-5.6324,-5.6214,-5.6207,-5.6071,-5.6012,-5.6012,0.0,0.0,0.0,-5.6012,-5.6012,-5.6012,-5.6012,-5.6824,-5.8535,-5.9455,-6.0306,-6.1079,-6.1118,-6.1118,-6.1118,-6.1118,-6.1118,-6.1118,-6.1118,-6.1118,-6.1118,-6.1118,-6.1118,-6.1118,-6.1118,-6.1118,-6.1118,-6.1118,-6.1118,-6.1051,-6.0784,-6.0692,-6.0657,0.0,0.0,0.0,0.0,0.0,-2.8655,-2.803,-2.8462,-2.8973,0.0,0.0,0.0,-2.9964,-3.0206,-3.0298,-2.9843,-2.9453,-2.8515,-2.6757,-2.6289,-2.6054,-2.6053,-2.5818,-2.5818,-2.6053,-2.5584,-2.5272,-2.5117,-2.5742,-2.6797,-2.8242,-3.0117,-3.1875,-3.3398,-3.3398,-3.3242,-3.293,-3.1172,-3.2305,-3.5469,-3.7773,-4.1641,-4.6484,-5.0312,-5.2891,-5.4414,-5.3906,-5.2148,-4.9883,-4.9141,-4.5351,-3.9805,-3.3125,-2.8828,-2.6016,-2.4766,-2.5898,-2.7305,-2.6055,0.0,0.0,0.0,0.0,0.0,-4.1719,-4.375,-4.6133,-5.168,-5.2383,-5.293,-5.6015,-5.6601,-5.6601,-5.6601,-5.6551,-5.6475,-5.6351,-5.6275,-5.6174,-5.6056,-5.6037,0.0,0.0,0.0,0.0,0.0,-5.6012,-5.6012,-5.6012,-5.6583,-5.7443,-5.8574,-5.9455,-6.0306,-6.1079,-6.1118,-6.1118,-6.1118,-6.1118,-6.1118,-6.1118,-6.1118,-6.1118,-6.1118,-6.1118,-6.1118,-6.1118,-6.1118,-6.1118,-6.1118,-6.1118,-6.1118,-6.1032,-6.0519,-6.034,-6.0259,0.0,0.0,-2.842,-2.8771,-2.9827,-3.0334,-2.9474,-3.0095,-3.0642,0.0,0.0,0.0,-3.1152,-3.2874,-3.3194,-3.1093,-3.0781,-2.9648,-2.7148,-2.6523,-2.6093,-2.5702,-2.5702,-2.5858,-2.6249,-2.5546,-2.5077,-2.4922,-2.5078,-2.5156,-2.5195,-2.7461,-2.8594,-2.8789,-2.9766,-2.9844,-2.9141,-2.7422,-2.9687,-3.4805,-3.9258,-4.3125,-4.6641,-5.0898,-5.2851,-5.3555,-5.5,-5.375,-5.1601,-5.3086,-4.8203,-4.0703,-3.6328,-3.1797,-2.7734,-2.6016,-2.7344,-2.8984,-2.7266,-2.8437,-3.0391,-3.1445,0.0,0.0,-4.0781,-4.2383,-4.4531,-5.2031,-5.3203,-5.3633,-5.6133,-5.6601,-5.6601,-5.6601,-5.6558,-5.6506,-5.6443,-5.6312,-5.6191,-5.611,0.0,0.0,0.0,-5.6012,-5.6012,-5.6012,-5.6012,-5.6012,-5.6012,-5.6815,-5.7714,-5.8574,-5.9455,-6.0306,-6.1079,-6.1118,-6.1118,-6.1118,-6.1118,-6.1118,-6.1118,-6.1118,-6.1118,-6.1118,-6.1118,-6.1118,-6.1118,-6.1118,-6.1118,-6.1118,-6.1118,-6.1118,-6.1041,-6.0594,-6.0326,-6.0146,0.0,0.0,-2.8771,-2.9827,-3.1427,-3.2324,-3.1738,-3.223,-3.2693,0.0,-3.2157,-3.2394,-3.4331,-3.695,-3.6756,-3.2148,-3.2109,-3.0898,-2.75,-2.7109,-2.6602,-2.5742,-2.5781,-2.6172,-2.6836,-2.543,-2.4922,-2.543,-2.4648,-2.4258,-2.4297,-2.5859,-2.6211,-2.5547,-2.5547,-2.5977,-2.6641,-2.5352,-2.7891,-3.3476,-4.1797,-4.4414,-4.4023,-5.1133,-5.2266,-5.043,-5.3476,-5.3594,-5.2656,-5.5273,-5.0976,-4.4258,-4.2539,-3.6953,-3.0547,-2.8125,-2.9414,-3.1172,-2.9258,-2.9844,-3.1562,-3.375,-3.1484,0.0,-4.3008,-4.3359,-4.3789,-5.2617,-5.4453,-5.4609,-5.5078,-5.5234,-5.5273,-5.5195,-5.5664,-5.6172,-5.6523,-5.6441,-5.6316,0.0,0.0,0.0,-5.6012,-5.6012,-5.6012,-5.6012,-5.6012,-5.6012,-5.6012,-5.6815,-5.7714,-5.8574,-5.9455,-6.0306,-6.1079,-6.1118,-6.1118,-6.1118,-6.1118,-6.1118,-6.1118,-6.1118,-6.1118,-6.1118,-6.1118,-6.1118,-6.1118,-6.1118,-6.1118,-6.1118,-6.1118,-6.1118,-6.1051,-6.0795,-6.052,-6.0217,-2.8069,-2.8732,-3.006,-3.2285,-3.4079,-3.5642,-3.6893,-3.6621,-3.6544,-3.7249,-3.7155,-3.8198,-4.1252,-3.9777,-3.8151,-3.7186,-3.4687,-3.1992,-2.9258,-2.7773,-2.6602,-2.5742,-2.6367,-2.6484,-2.5977,-2.6328,-2.5586,-2.3672,-2.3477,-2.3359,-2.3359,-2.375,-2.4219,-2.4648,-2.4648,-2.4766,-2.5039,-2.6797,-3.0937,-3.6406,-3.7539,-4.2305,-4.8984,-5.1875,-5.4726,-5.7265,-5.7969,-5.7969,-5.7265,-5.4414,-5.1875,-4.8672,-4.1562,-3.9609,-3.8633,-3.207,-3.2969,-3.5391,-3.2266,-3.168,-3.1914,-3.168,-3.1523,0.0,-3.2851,-3.3672,-3.5508,-4.0117,-4.1055,-4.2109,-4.5586,-4.6797,-4.7031,-4.6328,-4.9687,-5.3397,-5.6113,-5.6487,-5.6397,0.0,0.0,0.0,-5.602,-5.6012,-5.6012,-5.6012,-5.6012,-5.6012,-5.6012,-5.6815,-5.7714,-5.8574,-5.9455,-6.0306,-6.1079,-6.1118,-6.1118,-6.1118,-6.1118,-6.1118,-6.1118,-6.1118,-6.1118,-6.1118,-6.1118,-6.1118,-6.1118,-6.1118,-6.1118,-6.1118,-6.1118,-6.1118,-6.1051,-6.0795,-6.0669,-6.0558,-2.8968,-2.963,-3.1153,-3.4157,-3.615,-3.7867,-3.9587,-3.9815,-3.9969,-4.0447,-4.1615,-4.2394,-4.2357,-4.1583,-3.9911,-3.6911,-3.5077,-3.2617,-2.9179,-2.8125,-2.707,-2.5742,-2.6133,-2.6562,-2.6992,-2.6133,-2.5273,-2.4453,-2.3594,-2.2695,-2.1875,-2.2734,-2.4531,-2.6875,-2.4297,-2.5039,-2.8125,-2.6445,-2.8945,-3.4531,-3.9258,-4.5547,-5.2383,-5.4961,-5.7305,-5.9219,-5.9219,-5.9219,-5.8789,-5.6172,-5.3281,-5.0117,-4.6211,-4.4101,-4.1953,-3.6367,-3.6875,-3.8398,-3.4492,-3.3437,-3.3437,-3.3437,-3.25,0.0,0.0,-3.4062,-3.4922,-4.0078,-4.0117,-4.0156,-4.3164,-4.3711,-4.3711,-4.3711,-4.7695,-5.0937,-5.1359,-5.4351,-5.647,0.0,0.0,0.0,-5.6109,-5.6024,-5.6012,-5.6012,-5.6012,-5.6012,-5.6012,-5.6815,-5.7714,-5.8574,-5.9455,-6.0306,-6.1079,-6.1118,-6.1118,-6.1118,-6.1118,-6.1118,-6.1118,-6.1118,-6.1118,-6.1118,-6.1118,-6.1118,-6.1118,-6.1118,-6.1118,-6.1118,-6.1118,-6.1118,-6.107,-6.0962,-6.0806,-6.0692,-2.9789,-3.0489,-3.2049,-3.5211,-3.7477,-3.9352,-4.0875,-4.1796,-4.2453,-4.2861,-4.5019,-4.5689,-4.335,-4.4057,-4.2731,-3.7849,-3.6952,-3.4804,-3.0312,-2.9726,-2.8984,-2.7734,-2.6719,-2.7266,-2.9492,-2.6484,-2.5,-2.5234,-2.3672,-2.2148,-2.0625,-2.2148,-2.4766,-2.8008,-2.5156,-2.6562,-3.0859,-2.7148,-2.8789,-3.4609,-4.293,-4.8516,-5.2226,-5.6562,-5.8281,-5.8555,-5.9375,-5.9687,-5.9453,-5.793,-5.4726,-5.125,-5.0234,-4.8086,-4.4961,-4.0039,-4.0547,-4.1601,-3.6758,-3.5586,-3.5703,-3.5742,-3.4062,-3.3359,0.0,0.0,0.0,-4.0976,-4.0547,-3.9648,-4.0976,-4.0664,0.0,-4.1133,0.0,0.0,0.0,-5.003,0.0,-5.4496,0.0,0.0,0.0,-5.4793,-5.4929,-5.5935,-5.5084,-5.4967,-5.5935,-5.6661,-5.7521,-5.8574,-5.9261,-6.0112,-6.1079,-6.1118,-6.1118,-6.1118,-6.1118,-6.1118,-6.1118,-6.1118,-6.1118,-6.1118,-6.1118,-6.1118,-6.1118,-6.1118,-6.1118,-6.1118,-6.1118,-6.1118,-6.1118,-6.1118,-6.0972,-6.0773,-3.0373,-3.1348,-3.2558,-3.451,-3.7516,-3.9976,-4.0953,-4.1848,-4.2939,-4.4502,-4.6308,-4.8149,-5.0023,-4.9096,-4.8045,-4.7342,-4.5156,-4.168,-3.6601,-3.4844,-3.4219,-3.4805,-3.0469,-2.9883,-3.3906,-2.9219,-2.5664,-2.3477,-2.2539,-2.1562,-2.0625,-2.1601,-2.2304,-2.3008,-2.8555,-2.9766,-2.7891,-3.2578,-3.8398,-4.4648,-4.582,-4.5273,-4.4492,-5.1797,-5.5078,-5.625,-6.0039,-6.1406,-6.082,-5.6914,-5.5703,-5.4531,-4.6953,-4.8906,-5.1953,-4.1641,-4.3086,-4.6562,-3.9961,-3.8711,-3.8594,-3.5586,-3.6289,-3.6484,-3.1836,0.0,-3.3125,-3.1641,0.0,-3.2148,-3.2305,0.0,0.0,0.0,0.0,0.0,-3.8476,-4.2265,-4.5698,-4.719,0.0,0.0,0.0,-5.0167,-5.1138,-5.5664,-5.1834,-5.1215,-5.578,-5.6089,-5.6902,-5.8535,-5.869,-5.9493,-6.1079,-6.1118,-6.1118,-6.1118,-6.1118,-6.1118,-6.1118,-6.1118,-6.1118,-6.1118,-6.1118,-6.1118,-6.1118,-6.1118,-6.1118,-6.1118,-6.1118,-6.1118,-6.1118,-6.1118,-6.106,-6.1041,-2.9788,-3.0412,-3.1505,-3.4237,-3.5876,-3.7789,-4.068,-4.3567,-4.5471,-4.5638,-4.7615,-4.9265,-4.9786,-4.8837,-4.7957,-4.7455,-4.5934,-4.2576,-3.6913,-3.5859,-3.4726,-3.3124,-2.9953,-2.9562,-3.2421,-2.7845,-2.4913,-2.3905,-2.1522,-2.0467,-2.0584,-2.0467,-2.3046,-2.7929,-3.0351,-3.3398,-3.668,-3.6758,-3.8711,-4.1914,-4.293,-4.2695,-4.293,-5.418,-5.8711,-5.9258,-6.1055,-6.1719,-6.1406,-5.9609,-5.6914,-5.4219,-5.3594,-5.1875,-4.9336,-4.5664,-4.5195,-4.4805,-3.9922,-4.0312,-4.1172,-3.7187,-3.7773,-3.8047,-3.2969,-3.1484,-3.1172,-3.1133,0.0,0.0,0.0,0.0,0.0,0.0,-3.3633,-3.5508,-3.3164,0.0,-4.2304,0.0,0.0,0.0,0.0,0.0,0.0,0.0,0.0,-5.1177,-5.5741,-5.6012,-5.6786,-5.8535,-5.8613,-5.9416,-6.1079,-6.1118,-6.1118,-6.1118,-6.1118,-6.1118,-6.1118,-6.1118,-6.1118,-6.1118,-6.1051,-6.1032,-6.1032,-6.1041,-6.1021,-6.1021,-6.1021,-6.106,-6.1118,-6.1118,-6.1118,-6.1118,-2.889,-2.9592,-3.0646,-3.2911,-3.4081,-3.5994,-3.9821,-4.3051,-4.5331,-4.6024,-4.7772,-4.9334,-5.0287,-4.9965,-4.9694,-4.9745,-4.9248,-4.6519,-4.0936,-3.9022,-3.785,-3.7264,-3.1658,-3.0366,-3.4294,-2.7985,-2.4461,-2.4014,-2.1089,-2.0113,-2.0932,-2.0309,-2.3591,-3.0077,-3.2108,-3.6328,-4.1875,-4.0898,-4.1523,-4.3242,-4.4023,-4.5351,-4.7773,-5.6601,-6.0664,-6.1719,-6.1719,-6.1719,-6.1562,-6.0625,-5.7539,0.0,-5.7148,-5.4023,-4.9492,-4.957,-4.8476,-4.6289,-4.1914,-4.2695,-4.3516,-3.8242,-3.8086,-3.8047,-3.3711,-3.1836,-3.1211,-3.2031,-3.125,0.0,0.0,0.0,-2.9492,-2.9883,0.0,-3.2617,-2.9648,-3.3555,-3.7578,0.0,0.0,0.0,0.0,0.0,0.0,0.0,0.0,0.0,-5.5702,-5.6012,-5.6786,-5.8535,-5.8613,-5.9416,-6.1079,-6.1118,-6.1118,-6.1118,-6.1118,-6.107,-6.106,-6.106,-6.109,-6.107,-6.1031,-6.1021,-6.101,-6.1008,-6.0987,-6.0987,-6.0987,-6.1039,-6.107,-6.107,-6.109,-6.1118,-2.7991,-2.9668,-3.0567,-2.9866,-3.2481,-3.5605,-3.8259,-3.869,-4.0481,-4.5464,-4.613,-4.8312,-5.408,-5.48,-5.5842,-5.8262,-5.8656,-5.6874,-5.2461,-4.6718,-4.6406,-5.2969,-3.7955,-3.3758,-4.2994,-3.1612,-2.4724,-2.305,-2.1393,-2.1009,-2.1867,-2.1828,-2.2844,-2.5032,-3.4256,-3.8046,-3.8007,-4.539,-5.0937,-5.4609,-5.3008,-5.582,-6.0625,-5.6914,-5.8086,-6.1719,-6.1719,-6.1719,0.0,-5.789,-5.7187,0.0,0.0,-5.4375,-5.6719,-5.2539,-5.3633,-5.4687,-4.7891,-4.6758,-4.5625,-3.7969,-3.6719,-3.625,-3.1953,-3.2812,-3.4101,-3.2539,-3.4101,-3.5234,-3.3633,-3.2656,-3.1797,-3.0976,-3.0937,0.0,0.0,-2.8516,-2.9336,-3.1094,0.0,0.0,0.0,0.0,0.0,0.0,0.0,0.0,-5.5509,-5.6012,-5.6786,-5.8535,-5.8613,-5.9416,-6.1079,-6.1118,-6.1118,-6.1118,-6.1118,-6.1051,-6.1002,-6.1002,-6.101,-6.0997,-6.0997,-6.0997,-6.0997,-6.0997,-6.0987,-6.0987,-6.0987,-6.0997,-6.0997,-6.0997,-6.1031,-6.107,-2.9046,-3.0528,-3.1582,-3.131,-3.2208,-3.4042,-3.7243,-4.0122,-4.3339,-4.7313,-4.9367,-5.1827,-5.5476,-5.6485,-5.7465,-5.8923,-5.9091,-5.7301,-5.2968,-4.9217,-4.8162,-5.0507,-4.0803,-3.7133,-4.0989,-3.3544,-2.8279,-2.5504,-2.3879,-2.3784,-2.5189,-2.408,-2.5418,-2.8975,-3.5659,-4.0661,-4.4413,-4.871,-5.207,-5.4453,-5.4414,-5.668,-6.0,-5.9687,-6.043,-6.1719,-6.1719,-6.1719,0.0,-6.0351,-5.8672,-5.7187,-5.7969,-5.6094,-5.375,-5.4609,-5.4023,0.0,0.0,0.0,-5.1562,-4.3164,-4.2187,-4.1367,-3.418,-3.4101,-3.4922,-3.2656,-3.4687,-3.6133,-3.3828,-3.2734,-3.1914,-3.1055,-2.9922,-2.8359,0.0,-2.5703,-2.6562,-2.8906,0.0,0.0,0.0,0.0,0.0,0.0,0.0,0.0,0.0,-5.6012,-5.6786,-5.8535,-5.8613,-5.9416,-6.1079,-6.1118,-6.1118,-6.1118,-6.1041,-6.1022,-6.1002,-6.1,-6.1008,-6.0987,-6.0955,-6.0933,-6.0933,-6.09,-6.0877,-6.0877,-6.0877,-6.09,-6.0944,-6.0976,-6.1018,-6.101,-3.0568,-3.1621,-3.2441,-3.2169,-3.3144,-3.4901,-3.775,-4.18,-4.576,-4.9149,-5.1359,-5.3777,-5.6879,-5.7538,-5.8363,-5.9821,-5.999,-5.8472,-5.4803,-5.2146,-5.113,-5.2069,-4.5026,-4.2145,-4.4312,-3.7895,-3.3046,-3.0004,-2.7368,-2.6793,-2.8165,-2.6507,-2.7741,-3.1495,-3.608,-4.1479,-4.7381,-5.0858,-5.4218,-5.7265,-5.8164,-5.9492,-6.1133,0.0,-6.2031,-6.1367,0.0,-6.2422,-6.2148,-6.2148,-6.0508,-5.8867,-6.1367,-5.8906,-5.5586,-5.8125,-5.707,-5.4805,-5.3594,-5.4883,0.0,-4.7383,-4.6406,-4.5195,-3.7461,-3.7266,-3.8086,-3.5859,-3.6641,-3.8008,-3.8789,-3.5703,-3.3125,-3.3164,-3.0703,-2.7851,0.0,-2.4844,-2.5703,0.0,0.0,0.0,0.0,0.0,0.0,0.0,0.0,0.0,0.0,0.0,-5.6786,-5.8535,-5.8613,-5.9416,-6.1079,-6.1118,-6.1118,-6.1118,-6.1032,-6.0992,-6.101,-6.0987,-6.0955,-6.0933,-6.09,-6.0877,-6.0877,-6.0843,-6.0781,-6.0781,-6.0781,-6.0843,-6.0888,-6.0922,-6.0955,-6.0997,-3.2402,-3.2988,-3.3377,-3.2556,-3.5093,-3.7827,-3.9663,-4.3417,-4.732,-5.086,-5.2122,-5.4232,-5.8404,-5.8289,-5.8853,-6.1312,-6.1627,-6.0662,-5.8241,-5.5624,-5.5351,-5.7967,-5.069,-4.8493,-5.2567,-4.4214,-3.8564,-3.6048,-3.1643,-2.9966,-3.0801,-2.918,-2.9801,-3.2335,-3.5755,-4.0735,-4.6833,-5.1834,-5.746,-6.3125,-6.4023,-6.4297,-6.418,-6.4375,-6.2812,-6.0859,-6.3398,-6.3789,-6.3047,-6.3047,-6.25,-6.1953,-6.2734,-6.2461,-6.1992,-6.2773,-6.2422,-6.1094,-5.7812,-5.6914,-5.5703,-5.0547,-4.9219,0.0,0.0,-4.2266,-4.3594,-4.1875,-4.0312,-4.1172,-4.7383,-4.1133,-3.5469,-3.6758,-3.2773,-2.8633,-2.6172,-2.5781,-2.6445,0.0,0.0,0.0,0.0,0.0,0.0,0.0,0.0,0.0,0.0,0.0,-5.6592,-5.8535,-5.8651,-5.9455,-6.1079,-6.1118,-6.1118,-6.107,-6.1022,-6.101,-6.0987,-6.0933,-6.0877,-6.0781,-6.0781,-6.0781,-6.0781,-6.0781,-6.0781,-6.0781,-6.0781,-6.0781,-6.0781,-6.0781,-6.09,-6.0997,-3.4198,-3.58,-3.7155,-3.6838,-3.6487,-3.7483,-4.1182,-4.3702,-4.717,-5.2581,-5.5166,-5.7625,-6.0625,-6.0794,-6.0923,-6.1592,-6.1675,-6.1405,-6.0781,-5.832,-5.8046,-6.0625,-5.502,-5.2388,-5.3539,-4.6201,-4.1408,-3.9513,-3.4497,-3.2817,-3.4265,-3.271,-3.3039,-3.4954,-3.6567,-4.1708,-4.9293,-5.191,-5.7264,-6.4023,-6.4922,-6.4101,-6.2656,0.0,-6.4609,-6.25,-6.3828,-6.414,-6.3984,-6.3984,-6.3828,-6.3555,-6.3125,-6.3281,-6.3555,-6.3125,-6.3281,-6.3281,-6.1758,-6.1367,-6.0273,-5.5742,-5.3633,-5.1601,0.0,0.0,0.0,-4.6445,-4.7617,-4.7851,-4.3906,-4.1172,-3.8008,-3.3281,-2.9805,-2.7656,-2.7656,-2.707,-2.7539,-2.9961,0.0,0.0,0.0,0.0,0.0,0.0,0.0,0.0,0.0,0.0,0.0,-5.8458,-5.9223,-6.0074,-6.1079,-6.1118,-6.106,-6.1022,-6.1,-6.0987,-6.0933,-6.0877,-6.0843,-6.0781,-6.0781,-6.0781,-6.0781,-6.0781,-6.0781,-6.0781,-6.0781,-6.0781,-6.0781,-6.0781,-6.0827,-6.1021,-3.5994,-3.8163,-4.0289,-4.0638,-4.111,-4.2237,-4.4751,-4.6574,-4.9307,-5.3865,-5.6417,-5.8375,-5.978,-6.1006,-6.1716,-6.1718,-6.1718,-6.1249,-6.0117,-5.9726,-5.9687,-6.0039,-5.8234,-5.7253,-5.73,-5.2629,-4.823,-4.4246,-4.0118,-3.7288,-3.5621,-3.4439,-3.4408,-3.5421,-3.7111,-4.1159,-4.7106,-5.3045,-5.8476,-6.3359,-6.5351,-6.5273,0.0,-6.6133,-6.5976,-6.4765,-6.5273,-6.5195,-6.4883,-6.4883,-6.4609,-6.4297,-6.418,-6.4219,-6.4297,-6.418,-6.4219,-6.418,-6.3711,-6.3555,-6.289,-6.0117,-5.8672,-5.6836,-5.2656,-5.2422,-5.2695,0.0,-5.1016,-5.0859,0.0,0.0,-3.8242,-3.0937,-2.8203,-2.7187,-2.7656,-2.7656,-2.8242,0.0,-3.1985,0.0,0.0,0.0,0.0,0.0,0.0,0.0,0.0,0.0,0.0,-5.8419,-5.872,-5.9532,-6.1079,-6.0383,-6.0355,-6.1002,-6.098,-6.0965,-6.0911,-6.0816,-6.0781,-6.0781,-6.0781,-6.0781,-6.0781,-6.0781,-6.0781,-6.0819,-6.1216,-6.1589,-6.1897,-6.1897,-6.1701,-6.1527,-3.7783,-4.0343,-4.284,-4.3378,-4.6452,-4.9028,-4.9474,-5.0959,-5.2916,-5.5318,-5.7328,-5.8509,-5.8395,-6.0579,-6.2031,-6.2031,-6.2031,-6.1094,-5.8866,-6.082,-6.1054,-5.8827,-6.0859,-6.2031,-6.2031,-5.9947,-5.5552,-4.887,-4.5836,-4.1357,-3.5503,-3.4772,-3.4489,-3.472,-3.7152,-4.03,-4.4411,-5.4804,-6.043,-6.2656,-6.5664,-6.6914,-6.6914,-6.6914,-6.6914,-6.6914,-6.6914,-6.6406,-6.5781,-6.5781,-6.5273,-6.4765,-6.539,-6.5156,-6.4765,-6.539,-6.5156,-6.4609,-6.4492,-6.4453,-6.4258,-6.3398,-6.3164,-6.1953,-5.7344,-5.6328,-5.6289,-5.6172,-5.3164,-5.2656,0.0,0.0,-3.8164,-3.0859,-2.8906,-2.8672,-2.957,-2.9766,-3.0117,-3.0859,0.0,0.0,0.0,0.0,0.0,0.0,0.0,0.0,0.0,0.0,-5.3351,-5.8458,-5.8101,-5.8711,-6.0576,0.0,-5.9427,-6.049,-6.0815,-6.0955,-6.09,-6.0843,-6.0781,-6.0781,-6.0781,-6.0781,-6.0819,-6.0935,-6.1012,-6.1204,-6.1947,-6.2666,-6.3308,-6.3435,-6.3048,-6.2556,-3.946,-4.2486,-4.4605,-4.2571,-4.6973,-5.1502,-5.3584,-5.5428,-5.699,-5.8252,-6.1152,-6.2877,-6.2142,-6.3122,-6.3827,-6.3828,-6.3828,-6.3672,-6.3203,-6.3594,-6.3633,-6.3203,-6.3594,-6.3828,-6.3828,-5.995,-5.5248,-4.9772,-4.4985,-3.9883,-3.4618,-3.3871,-3.3907,-3.4662,-3.5913,-4.1829,-5.1248,-5.6836,-6.1836,-6.6055,-6.664,-6.6914,-6.6914,-6.6914,-6.6914,-6.6914,-6.6914,-6.6797,-6.668,-6.668,-6.6562,-6.6367,-6.5781,-6.5976,-6.6328,-6.5781,-6.6015,-6.6289,-6.5586,-6.5351,-6.5156,-6.4297,-6.4062,-6.3633,-6.2031,-6.164,-6.1445,-6.0742,-5.9961,-5.8633,-5.5859,0.0,0.0,-3.7578,-3.6055,-3.7461,-4.3203,-4.0469,-3.793,-3.8086,0.0,0.0,0.0,0.0,0.0,0.0,0.0,0.0,0.0,0.0,-4.9088,0.0,-5.9803,0.0,0.0,0.0,-5.964,-5.7805,-5.9914,-6.09,-6.0843,-6.0831,-6.0781,-6.0781,-6.0781,-6.0781,-6.0858,-6.1601,-6.2243,-6.2897,-6.3051,-6.3166,-6.3397,-6.4128,-6.4282,-6.4191,-4.4302,-4.5881,-4.7367,-4.7971,-5.1658,-5.5581,-5.8682,-6.1403,-6.243,-6.059,-6.1798,-6.2698,-6.2275,-6.3853,-6.48,-6.4335,-6.4296,-6.4296,-6.4297,-6.4297,-6.4297,-6.4297,-6.4297,-6.4297,-6.4297,-6.2654,-5.7924,-5.0067,-4.7496,-4.2,-3.3875,-3.3483,-3.3304,-3.3487,-3.7999,-4.3747,-5.0467,-5.7031,0.0,-6.4375,-6.6172,-6.6914,-6.6914,-6.6914,-6.6914,-6.6914,-6.6914,-6.6914,-6.6914,-6.6914,-6.6914,-6.6836,-6.6406,-6.6562,-6.6836,-6.6406,-6.6562,-6.6797,-6.6406,-6.6289,-6.6055,-6.5195,-6.4961,-6.4765,-6.3867,-6.3672,-6.3437,-6.2539,-6.2383,-6.0664,-5.5039,-4.9453,0.0,0.0,-4.0078,-4.0586,-4.6133,-4.5547,-4.4414,0.0,0.0,0.0,0.0,0.0,0.0,0.0,0.0,0.0,0.0,0.0,-4.8662,0.0,0.0,0.0,0.0,0.0,0.0,-5.9135,-6.0316,-6.0877,-6.0781,-6.0781,-6.0781,-6.0781,-6.0781,-6.105,-6.155,-6.2397,-6.3205,-6.3974,-6.3974,-6.4243,-6.4705,-6.5128,-6.5282,-6.5282,-4.9017,-4.9513,-5.0753,-5.3775,-5.6734,-5.9726,-6.2776,-6.6145,-6.7041,-6.3388,-6.3062,-6.3052,-6.2665,-6.4737,-6.5773,-6.4919,-6.4842,-6.4843,-6.4844,-6.4844,-6.4844,-6.4844,-6.4844,-6.4844,-6.4844,-6.5547,-6.125,-5.1757,-5.0575,-4.4788,-3.4756,-3.3796,-3.3682,-3.4564,-4.0897,-4.6054,0.0,0.0,-6.1172,-6.3047,-6.5781,-6.6914,-6.6914,-6.6914,-6.6914,-6.6914,-6.6914,-6.6914,-6.6914,-6.6914,-6.6914,-6.6914,-6.6914,-6.6914,-6.6914,-6.6914,-6.6914,-6.6914,-6.6914,-6.6914,-6.6758,-6.6055,-6.5898,-6.5664,-6.4765,-6.457,-6.4336,-6.3476,-6.3125,-6.1172,-5.5117,-5.1562,0.0,0.0,0.0,-4.4258,-4.8203,-4.8984,-4.918,0.0,0.0,0.0,0.0,0.0,0.0,0.0,0.0,0.0,-4.6612,0.0,0.0,0.0,0.0,-5.8139,-5.8913,0.0,-5.9407,0.0,-6.0652,-6.0866,-6.0781,-6.0781,-6.0781,-6.0819,-6.1012,-6.1666,-6.2666,-6.332,-6.4089,-6.4897,-6.4897,-6.5282,-6.5897,-6.5897,-6.5897,-6.5897,-5.0859,-5.2801,-5.463,-5.576,-5.9494,-6.2691,-6.3829,-6.6988,-6.8839,-6.7654,-6.8159,-6.8047,-6.6494,-6.7249,-6.7531,-6.6715,-6.6679,-6.664,-6.664,-6.664,-6.664,-6.664,-6.664,-6.664,-6.664,-6.6758,-6.3633,-5.7187,-5.242,-4.6401,-3.9215,-3.5224,-3.6281,-4.1483,0.0,0.0,0.0,-5.8984,-6.207,-6.6445,-6.6758,-6.6914,-6.6914,-6.6914,-6.6914,-6.6914,-6.6914,-6.6914,-6.6914,-6.6914,-6.6914,-6.6914,-6.6914,-6.6914,-6.6914,-6.6914,-6.6914,-6.6914,-6.6914,-6.6914,-6.6875,-6.6797,-6.6797,-6.6562,-6.5664,-6.5469,-6.5234,-6.4375,-6.3555,-6.1172,-5.5117,-5.7422,-5.7422,0.0,0.0,-5.3633,-5.6406,-5.293,-5.1211,-5.4219,0.0,0.0,0.0,0.0,0.0,0.0,0.0,0.0,0.0,0.0,0.0,-5.3962,-5.4774,-5.4078,-5.1865,-5.7767,-5.9647,-5.7476,-5.9722,-6.0831,-6.0781,-6.0781,-6.0781,-6.0819,-6.1639,-6.2897,-6.4359,-6.4436,-6.4974,-6.5782,-6.5782,-6.582,-6.5897,-6.5897,-6.5897,-6.5897,-5.7353,-5.735,-5.8252,-6.1218,-6.2386,-6.4088,-6.7531,-6.9257,-7.0236,-7.0426,-7.0309,-6.9921,-6.9221,-6.9,-6.8538,-6.7682,-6.7183,-6.6913,-6.6913,-6.6914,-6.6914,-6.6914,-6.6914,-6.6914,-6.6914,-6.6914,-6.4219,-5.8672,-5.3394,-4.7609,-4.1363,-3.9598,-4.1711,0.0,0.0,-5.5312,-5.9414,-6.25,-6.5,-6.6914,-6.6914,-6.6914,-6.6914,-6.6914,-6.6914,-6.6914,-6.6914,-6.6914,-6.6914,-6.6914,-6.6914,-6.6914,-6.6914,-6.6914,-6.6914,-6.6914,-6.6914,-6.6914,-6.6914,-6.6914,-6.6914,-6.6914,-6.6914,-6.6797,-6.6445,-6.6367,-6.6133,-6.5273,-6.4375,-6.289,-5.9922,-5.8555,-5.7461,0.0,0.0,0.0,-6.039,-5.9648,-5.8984,-5.9805,0.0,-5.2836,0.0,0.0,0.0,0.0,0.0,0.0,0.0,0.0,0.0,-4.8824,0.0,-5.6863,-5.3265,-5.8414,-6.0485,-5.9444,-6.0376,-6.0781,-6.0819,-6.1331,-6.182,-6.2358,-6.3205,-6.3974,-6.4628,-6.5166,-6.559,-6.5897,-6.5897,-6.5897,-6.5897,-6.5897,-6.5897,-6.5897,-6.1791,-6.1153,-6.1771,-6.5842,-6.585,-6.6563,-7.0477,-7.1095,-7.1285,-7.1909,-7.1441,-7.0972,-7.0738,-7.0165,-6.9314,-6.8183,-6.7609,-6.7185,-6.6912,-6.6914,-6.6914,-6.6914,-6.6914,-6.6914,-6.6914,-6.6914,-6.5117,-6.1445,-5.6207,-5.1321,-4.6911,-4.5344,-4.7574,0.0,-5.7305,-6.0039,-6.1719,-6.5351,-6.6914,-6.6914,-6.6914,-6.6914,-6.6914,-6.6914,-6.6914,-6.6914,-6.6914,-6.6914,-6.6914,-6.6914,-6.6914,-6.6914,-6.6914,-6.6914,-6.6914,-6.6914,-6.6914,-6.6914,-6.6914,-6.6914,-6.6914,-6.6914,-6.6914,-6.6914,-6.6914,-6.6914,-6.664,-6.5781,-6.5117,-6.4414,-6.3555,-6.0195,-5.8125,-5.9922,0.0,0.0,-6.0742,-6.164,-6.1719,-6.0859,-5.7765,-5.502,-5.3238,0.0,0.0,0.0,0.0,0.0,0.0,0.0,0.0,0.0,0.0,0.0,0.0,-5.8925,-6.0987,-6.0987,-6.1108,-6.1166,-6.1204,-6.205,-6.2897,-6.3743,-6.432,-6.4743,-6.5013,-6.5628,-6.5897,-6.5897,-6.5897,-6.5897,-6.5897,-6.5897,-6.5897,-6.5897,-6.2452,-6.3657,-6.5329,-6.8765,-7.0043,-7.0933,-7.1831,-7.1987,-7.1987,-7.1987,-7.1987,-7.1675,-7.0777,-7.067,-6.998,-6.823,-6.8159,-6.7811,-6.6953,-6.6914,-6.6914,0.0,0.0,-6.6914,-6.6914,-6.6914,-6.6875,-6.6797,0.0,0.0,-5.7616,-5.2499,-5.332,-5.9101,-5.918,-6.2031,-6.6797,-6.6875,-6.6914,-6.6914,-6.6914,-6.6914,-6.6914,-6.6914,-6.6914,-6.6914,-6.6914,-6.6914,-6.6914,-6.6914,-6.6914,-6.6914,-6.6914,-6.6914,-6.6914,-6.6914,-6.6914,-6.6914,-6.6914,-6.6914,-6.6914,-6.6914,-6.6914,-6.6914,-6.6914,-6.6914,-6.664,-6.5781,-6.5586,-6.5312,-6.4453,-6.3515,-6.1523,-5.7344,0.0,0.0,-5.7148,-5.668,-5.6367,-5.5508,-4.5584,-4.2809,-5.3008,0.0,0.0,0.0,0.0,0.0,0.0,0.0,0.0,-5.4542,-5.4813,0.0,-5.4813,-5.8925,-6.0987,-6.1025,-6.1724,-6.2101,-6.2101,-6.2935,-6.3782,-6.4589,-6.4589,-6.5089,-6.5897,-6.5897,-6.5897,-6.5897,-6.5897,-6.5897,-6.5897,-6.5897,-6.5897,-6.5897,-6.5504,-6.6784,-6.8101,-6.9195,-7.0592,-7.1675,-7.1948,-7.1987,-7.1987,-7.1987,-7.1987,-7.2104,-7.2456,-7.1412,-7.0249,0.0,-6.8509,-6.8084,0.0,-6.7772,-6.8046,-6.8633,-6.8632,-6.8593,-6.8594,-6.8594,-6.8633,-6.8672,0.0,0.0,0.0,-5.9683,-6.1522,-6.6172,-6.6211,-6.7109,-6.8594,-6.8633,-6.8633,-6.8594,-6.8594,-6.8594,-6.8594,-6.8672,-6.8281,-6.7773,-6.7773,-6.7383,-6.6914,-6.6914,-6.7305,-6.7773,-6.7773,-6.7383,-6.6914,-6.6914,-6.6914,-6.6914,-6.6914,-6.6914,-6.6914,-6.6914,-6.6914,-6.6914,-6.6914,-6.6914,-6.6836,-6.6523,-6.6484,-6.6211,-6.5351,-6.4961,-6.3945,-6.1367,-6.1875,0.0,-6.0312,-6.0078,-5.9961,-5.9687,-5.6484,-5.5625,0.0,-5.1012,0.0,0.0,0.0,0.0,0.0,0.0,0.0,0.0,-5.5432,0.0,-5.4813,-5.8925,-6.1257,-6.1835,-6.1994,-6.2716,-6.382,-6.4089,-6.4666,-6.5474,-6.5474,-6.5628,-6.5897,-6.5897,-6.5897,-6.5897,-6.5897,-6.5897,-6.5897,-6.5897,-6.6244,-6.6705,-6.7379,-6.8738,-6.9902,-6.9894,-7.1056,-7.2104,-7.2456,-7.2495,-7.2612,-7.2885,-7.2924,-7.3158,-7.3705,-7.2776,0.0,-7.0483,-6.9908,-6.9367,-6.8705,-6.8666,-6.8903,-6.9453,-6.9412,-6.9413,-6.9453,-6.9414,0.0,-6.9453,-6.6754,-6.5385,-6.5385,-6.5383,-6.6831,-6.9414,-6.9453,-6.9453,-6.9453,-6.9453,-6.9453,-6.9414,-6.9414,-6.9414,-6.9453,-6.9492,-6.8945,-6.8203,-6.8203,-6.7656,-6.6914,-6.6914,-6.7461,-6.8203,-6.8203,-6.8047,-6.7812,-6.7461,-6.7148,-6.6914,-6.6914,-6.6914,-6.6914,-6.6914,-6.6914,-6.6914,-6.6914,-6.6914,-6.6914,-6.6914,-6.6914,-6.6719,-6.6172,-6.582,-6.5234,-6.414,-6.3437,-6.2812,-6.2265,-6.1914,-6.0976,-5.9023,0.0,0.0,0.0,-5.4878,-5.2433,0.0,0.0,0.0,0.0,0.0,-4.9784,-5.1486,-5.7753,0.0,-5.7172,-6.0007,-6.1681,-6.2221,-6.2764,-6.3743,-6.5089,-6.5089,-6.5397,-6.5897,-6.5897,-6.5897,-6.5897,-6.5897,-6.5897,-6.5897,-6.5897,-6.609,-6.6359,-6.6359,-6.6859,-6.759,-6.8195,-6.9558,-7.0684,0.0,-7.1402,0.0,-7.3158,-7.3312,-7.3588,-7.4408,-7.4486,-7.4525,-7.4564,-7.4603,-7.3945,-7.2395,0.0,0.0,0.0,-6.948,-6.9522,-6.9567,-6.9567,-6.9607,-6.9687,-6.9608,-6.9567,-6.9567,-6.9561,-6.9596,-6.9596,-6.9596,-6.9562,-6.9567,-6.9568,-6.9608,-6.9687,-6.9609,-6.957,-6.957,-6.957,-6.9609,-6.9687,-6.9687,-6.914,-6.8359,-6.8359,-6.7812,-6.707,-6.6992,-6.7617,-6.8359,-6.832,-6.8906,-6.9414,-6.8476,-6.7617,-6.6992,-6.6914,-6.6914,-6.6914,-6.6914,-6.6914,-6.6914,-6.6914,-6.6914,-6.6914,-6.6914,-6.6914,-6.6914,-6.6914,-6.625,-6.5664,-6.5625,-6.4258,-6.3164,-6.3086,-6.2344,-6.0,0.0,0.0,0.0,0.0,-5.4479,-5.623,0.0,0.0,0.0,0.0,0.0,-5.0945,-6.0809,-6.1157,-6.1195,-6.1195,-6.1937,-6.2337,-6.2403,-6.3945,-6.5128,-6.5897,-6.5897,-6.5897,-6.5897,-6.5897,-6.5897,-6.5897,-6.5897,-6.5897,-6.5897,-6.5974,-6.6436,-6.709,-6.7167,-6.7744,-6.8513,0.0,0.0,-7.0704,-7.0699,-7.1402,-7.23,-7.3158,-7.3312,-7.3588,-7.4408,-7.4486,-7.4759,-7.5423,-7.5501,-7.5347,-7.4921,-7.3134,-7.1542,-7.0456,-7.0372,-7.0686,-7.1357,-7.1392,-7.1392,-7.1399,-7.1398,-7.1394,-7.1389,-7.1386,-7.1384,-7.1384,-7.1384,-7.1389,-7.1398,-7.1363,-7.1404,-7.1405,-7.1406,-7.1367,-7.1367,-7.1367,-7.1406,-7.1406,-7.1406,-7.0859,-7.0117,-7.0117,-6.9531,-6.8711,-6.8086,-6.8867,-7.0,-6.9375,-6.9765,-7.0117,-6.8633,-6.8047,-6.7734,-6.707,-6.6914,-6.6914,-6.6914,-6.6914,-6.6914,-6.6914,-6.6914,-6.6914,-6.6914,-6.6914,-6.6914,-6.6914,-6.6719,-6.6367,-6.5703,-6.5234,-6.4765,-6.4101,-6.3242,-6.2226,0.0,-6.0273,-5.9883,-5.9883,-5.9843,-5.8656,0.0,0.0,0.0,-5.5332,-5.3614,-5.5277,-6.0925,-6.1737,-6.2085,-6.2085,-6.2825,-6.3449,-6.4049,-6.5102,-6.5705,-6.5897,-6.5897,-6.5897,-6.5897,-6.5897,-6.5897,-6.5897,-6.5897,-6.5897,-6.5974,-6.659,-6.6936,-6.7167,-6.7859,-6.8629,-6.9398,-6.9911,-7.0681,-7.1292,-7.1285,-7.1675,-7.23,-7.3158,-7.3312,-7.3744,-7.4954,-7.5071,-7.5423,-7.6281,-7.6399,-7.6086,-7.5266,-7.3947,-7.2781,-7.1928,-7.1531,-7.1495,-7.1975,-7.2008,-7.201,-7.2019,-7.2016,-7.2008,-7.1997,-7.1997,-7.1997,-7.1997,-7.1997,-7.2004,-7.2014,-7.2019,-7.1984,-7.1987,-7.199,-7.1992,-7.1992,-7.1992,-7.1992,-7.1992,-7.1992,-7.1445,-7.0703,-7.0703,-7.0156,-6.9336,-6.8906,-6.9609,-7.0625,-7.0195,-7.0625,-7.1055,-6.9726,-6.8789,-6.8086,-6.7617,-6.7187,-6.6914,-6.6914,-6.6914,-6.6914,-6.6914,-6.6914,-6.6914,-6.6914,-6.6914,-6.6914,-6.6914,-6.6914,-6.6758,-6.6289,-6.5859,-6.543,-6.4961,-6.414,-6.3594,-6.3594,-6.3164,-6.289,-6.289,-6.2497,-6.103,-5.8094,-5.8272,0.0,-5.7615,-5.8372,-5.9725,-6.1621,-6.2162,-6.2588,-6.2975,-6.3713,-6.449,-6.5254,-6.5679,-6.5897,-6.5897,-6.5897,-6.5897,-6.5897,-6.5897,-6.5897,-6.5936,-6.6282,-6.6436,-6.6513,-6.7359,-6.7936,-6.8359,-6.8821,-6.9552,-7.0244,-7.0887,-7.1505,-7.2002,-7.199,-7.1987,-7.23,-7.3158,-7.3312,-7.3861,-7.5384,-7.5618,-7.5891,-7.6633,-7.6711,-7.6125,-7.4642,-7.4408,-7.3978,-7.3158,-7.2417,-7.1993,-7.2002,-7.2004,-7.2008,-7.2016,-7.2008,-7.2,-7.1987,-7.1987,-7.1987,-7.1987,-7.1987,-7.1993,-7.2004,-7.2004,-7.201,-7.2019,-7.1987,-7.1989,-7.1989,-7.1991,-7.1992,-7.1992,-7.1992,-7.1523,-7.0898,-7.0898,-7.043,-6.9765,-6.9648,-7.0195,-7.0859,-7.0742,-7.1289,-7.1836,-7.1094,-6.9805,-6.8555,-6.8437,-6.7773,-6.707,-6.6914,-6.6914,-6.6914,-6.6914,-6.6914,-6.6914,-6.6914,-6.6914,-6.6914,-6.6914,-6.6914,-6.668,-6.6015,-6.5859,-6.5586,-6.4922,0.0,-6.4492,-6.4492,-6.4375,-6.4297,-6.4297,-6.3584,-6.3037,-6.2907,-6.284,-6.2735,-6.2597,-6.3284,-6.34,-6.282,-6.2781,-6.3207,-6.4048,-6.4679,-6.5323,-6.6008,-6.5935,-6.5897,-6.5897,-6.5897,-6.5897,-6.5897,-6.5897,-6.5974,-6.6128,-6.6821,-6.7167,-6.7359,-6.8282,-6.9052,-6.9706,-6.986,-7.0321,-7.0898,-7.167,-7.1895,-7.2002,-7.199,-7.1987,-7.23,-7.3158,-7.3312,-7.3627,-7.4564,-7.4681,-7.4759,-7.4876,-7.4915,-7.4798,-7.4525,-7.3861,-7.3119,-7.226,-7.2065,-7.199,-7.199,-7.199,-7.1993,-7.1995,-7.1993,-7.199,-7.1987,-7.1987,-7.1987,-7.1987,-7.1987,-7.199,-7.1993,-7.2002,-7.2006,-7.2008,-7.2019,-7.1982,-7.1982,-7.1984,-7.1987,-7.199,-7.199,-7.1913,-7.1797,-7.1797,-7.1719,-7.1484,-7.0742,-7.1094,-7.168,-7.0937,-7.1289,-7.1953,-7.1836,-7.1094,-7.0156,-6.9492,-6.8672,-6.7812,-6.707,-6.6914,-6.6914,-6.6914,-6.6914,-6.6914,-6.6914,-6.6914,-6.6914,-6.6914,-6.6914,-6.5703,-6.1992,-6.4375,-6.539,-6.1719,-6.3633,-6.539,-6.539,-6.4765,-6.4297,-6.4297,-6.4179,-6.4006,-6.3804,-6.3774,-6.3703,-6.3506,-6.3642,-6.399,-6.4561,-6.4599,-6.4966,-6.5726,-6.5777,-6.5863,-6.6008,-6.5935,-6.5897,-6.5897,-6.5897,-6.5897,-6.5897,-6.5897,-6.6282,-6.6898,-6.7051,-6.7513,-6.8282,-6.9167,-6.959,-6.9783,-7.0475,-7.0783,-7.0898,-7.3303,-7.3371,-7.3205,-7.2768,-7.269,-7.269,-7.2612,-7.2612,-7.2885,-7.3744,-7.3861,-7.4017,-7.4447,-7.4486,-7.433,-7.39,-7.351,-7.2924,-7.2065,-7.1987,-7.1987,-7.1987,-7.1987,-7.1987,-7.1987,-7.1987,-7.1987,-7.1987,-7.1987,-7.1987,-7.1987,-7.1987,-7.1987,-7.1987,-7.1995,-7.1997,-7.1997,-7.2008,-7.2012,-7.2014,-7.2017,-7.1985,-7.1989,-7.1989,-7.1991,-7.1992,-7.1992,-7.1992,-7.1953,-7.1523,-7.168,-7.1914,-7.1523,-7.168,-7.1992,-7.1992,-7.1367,-7.0508,-6.9687,-6.8828,-6.8086,-6.7695,-6.7265,-6.6914,-6.6914,-6.6914,-6.6914,-6.6914,-6.6914,-6.6914,-6.6914,-6.6914,-6.625,-6.4219,-6.5586,-6.6211,-6.418,-6.5273,-6.6289,-6.6289,-6.5937,-6.5703,-6.5703,-6.5273,-6.4915,-6.4772,-6.4714,-6.4648,-6.4472,-6.4822,-6.5218,-6.5644,-6.5644,-6.5827,-6.6144,-6.6091,-6.6047,-6.6063,-6.5993,-6.5946,-6.596,-6.596,-6.5935,-6.5897,-6.6359,-6.6744,-6.7167,-6.809,-6.8744,-6.9167,-7.0014,-7.036,-7.0398,-7.0744,-7.0898,-7.0898,-7.4039,-7.395,-7.3708,-7.3119,-7.3002,-7.2768,-7.2104,-7.1987,-7.2221,-7.2924,-7.3002,-7.3236,-7.3861,-7.3939,-7.3666,-7.3041,-7.3002,-7.2729,-7.2026,-7.1987,-7.1987,-7.1987,-7.1987,-7.1987,-7.1987,-7.1987,-7.1987,-7.1987,-7.1987,-7.1987,-7.1987,-7.1987,-7.1987,-7.1987,-7.1987,-7.1987,-7.1987,-7.1997,-7.2002,-7.2002,-7.201,-7.1981,-7.1988,-7.1987,-7.199,-7.1992,-7.1992,-7.1992,-7.1992,-7.1992,-7.1992,-7.1992,-7.1992,-7.1992,-7.1992,-7.1992,-7.1523,-7.082,-6.9922,-6.9258,-6.8672,-6.8281,-6.7695,-6.7148,-6.6953,-6.6914,-6.6914,-6.6914,-6.6914,-6.6914,-6.6914,-6.6914,-6.6562,-6.5547,-6.625,-6.6562,-6.5547,-6.625,-6.6914,-6.6914,-6.6914,-6.6914,-6.6914,-6.6289,-6.5857,-6.5711,-6.5636,-6.5528,-6.5389,-6.5914,-6.6185,-6.6185,-6.6185,-6.6185,-6.6185,-6.6123,-6.6102,-6.6102,-6.6036,-6.599,-6.5982,-6.5982,-6.6061,-6.623,-6.6846,-6.7334,-6.7821,-6.9167,-6.9821,-7.0052,-7.0667,-7.0898,-7.0898,-7.0898,-7.0898,-7.0898,-7.2362,-7.22,-7.2158,-7.2107,-7.2104,-7.2065,-7.2026,-7.1987,-7.2026,-7.2104,-7.2104,-7.2104,-7.2182,-7.2182,-7.2143,-7.2104,-7.2104,-7.2065,-7.1987,-7.1987,-7.1987,-7.1987,-7.1987,-7.1987,-7.1987,-7.1987,-7.1987,-7.1987,-7.1987,-7.1987,-7.1987,-7.1987,-7.1987,-7.1987,-7.1987,-7.1987,-7.1987,-7.199,-7.199,-7.199,-7.199,-7.2004,-7.1981,-7.2012,-7.1985,-7.1992,-7.1991,-7.1991,-7.1992,-7.1992,-7.1992,-7.1992,-7.1992,-7.1992,-7.1992,-7.1992,-7.1953,-7.1719,-7.0859,-7.0547,-7.0156,-6.8594,-6.8164,-6.789,-6.707,-6.6914,-6.6914,-6.6914,-6.6914,-6.6914,-6.6914,-6.6914,-6.5586,-6.1523,-6.4258,-6.5508,-6.1445,-6.4336,-6.6914,-6.6914,-6.6914,-6.6914,-6.6914,-6.6836,-6.6754,-6.6605,-6.6533,-6.6462,-6.6322,-6.6263,-6.6185,-6.6185,-6.6185,-6.6185,-6.6185,-6.6123,-6.6102,-6.6102,-6.6036,-6.6001,-6.6001,-6.6001,-6.6391,-6.7101,-6.7178,-6.8065,-6.9513,-6.9667,-7.0129,-7.0821,-7.0898,-7.0898,-7.0898,-7.0898,-7.0898,-7.0898,-7.3601,-7.3557,-7.3398,-7.2885,-7.2807,-7.2612,-7.2065,-7.1987,-7.1987,-7.1987,-7.1987,-7.1987,-7.1987,-7.1987,-7.1987,-7.1987,-7.1987,-7.1987,-7.1987,-7.1987,-7.1987,-7.1987,-7.1987,-7.1987,-7.1987,-7.1987,-7.1987,-7.1987,-7.1987,-7.1987,-7.1987,-7.1987,-7.1987,-7.1987,-7.1987,-7.1987,-7.1987,-7.1987,-7.1987,-7.1987,-7.1987,-7.1997,-7.201,-7.2008,-7.2017,-7.1987,-7.1986,-7.1986,-7.1988,-7.199,-7.1991,-7.1991,-7.1992,-7.1992,-7.1992,-7.1992,-7.1992,-7.1914,-7.1601,-7.1094,-7.0547,-6.9922,-6.8984,-6.8125,-6.7773,-6.7305,-6.6914,-6.6914,-6.6914,-6.6914,-6.6914,-6.6914,-6.6367,-6.4687,-6.582,-6.6328,-6.4648,-6.5859,-6.6914,-6.6914,-6.6914,-6.6914,-6.6914,-6.6914,-6.6874,-6.6831,-6.6677,-6.6574,-6.6528,-6.6325,-6.6185,-6.6185,-6.6185,-6.6185,-6.6185,-6.6165,-6.6155,-6.6155,-6.6134,-6.6102,-6.6069,-6.661,-6.6977,-6.7255,-6.8334,-6.9156,-6.9744,-7.0244,-7.0629,-7.0898,-7.0898,-7.0898,-7.0898,-7.0898,-7.0898,-7.0898,-7.3788,-7.3705,-7.3549,-7.3002,-7.2885,-7.269,-7.2104,-7.1987,-7.1987,-7.1987,-7.1987,-7.1987,-7.1987,-7.1987,-7.1987,-7.1987,-7.1987,-7.1987,-7.1987,-7.1987,-7.1987,-7.1987,-7.1987,-7.1987,-7.1987,-7.1987,-7.1987,-7.1987,-7.1987,-7.1987,-7.1987,-7.1987,-7.1987,-7.1987,-7.1987,-7.1987,-7.1987,-7.1987,-7.1987,-7.1987,-7.1987,-7.1995,-7.2006,-7.2002,-7.201,-7.2019,-7.2017,-7.2019,-7.1985,-7.1989,-7.1989,-7.199,-7.1992,-7.1992,-7.1992,-7.1992,-7.1992,-7.1992,-7.1992,-7.1562,-7.1055,-7.0781,-6.9844,-6.8867,-6.832,-6.7734,-6.7226,-6.6953,-6.6914,-6.6914,-6.6914,-6.6914,-6.6914,-6.6914,-6.6914,-6.6914,-6.6914,-6.6914,-6.6914,-6.6914,-6.6914,-6.6914,-6.6914,-6.6914,-6.6914,-6.6914,-6.6694,-6.6563,-6.6478,-6.6299,-6.6185,-6.6185,-6.6185,-6.6185,-6.6185,-6.6185,-6.6185,-6.6185,-6.6495,-6.659,-6.6548,-6.7437,-6.7922,-6.8087,-6.9333,-6.9939,-7.0156,-7.0695,-7.0912,-7.0898,-7.0898,-7.0898,-7.0898,-7.0898,-7.0898,-7.0898,-7.2188,-7.1987,-7.1987,-7.1987,-7.1987,-7.1987,-7.1987,-7.1987,-7.1987,-7.1987,-7.1987,-7.1987,-7.1987,-7.1987,-7.1987,-7.1987,-7.1987,-7.1987,-7.1987,-7.1987,-7.1987,-7.1987,-7.1987,-7.1987,-7.1987,-7.1987,-7.1987,-7.1987,-7.1987,-7.1987,-7.1987,-7.1987,-7.1987,-7.1987,-7.1987,-7.1987,-7.1987,-7.1987,-7.1987,-7.1987,-7.1987,-7.1995,-7.2004,-7.1993,-7.2002,-7.2019,-7.201,-7.2019,-7.1989,-7.1989,-7.1989,-7.199,-7.1992,-7.1992,-7.1992,-7.1992,-7.1992,-7.1992,-7.1992,-7.1992,-7.1797,-7.0937,-7.0703,-7.0273,-6.8594,-6.8203,-6.7969,-6.7109,-6.6914,-6.6914,-6.6914,-6.6914,-6.6914,-6.6914,-6.6914,-6.6914,-6.6914,-6.6914,-6.6914,-6.6914,-6.6914,-6.6914,-6.6914,-6.6914,-6.6914,-6.6914,-6.6694,-6.6484,-6.6205,-6.6185,-6.6185,-6.6185,-6.6185,-6.6185,-6.6185,-6.6185,-6.6185,-6.6224,-6.7075,-6.7501,-6.7539,-6.8429,-6.9209,-6.9915,-6.9915,-7.0308,-7.1005,-7.1005,-7.0965,-7.0898,-7.0898,-7.0898,-7.0898,-7.0898,-7.0898,-7.0898,-7.2071,-7.1987,-7.1987,-7.1987,-7.1987,-7.1987,-7.1987,-7.1987,-7.1987,-7.1987,-7.1987,-7.1987,-7.1987,-7.1987,-7.1987,-7.1987,-7.1987,-7.1987,-7.1987,-7.1987,-7.1987,-7.1987,-7.1987,-7.1987,-7.1987,-7.1987,-7.1987,-7.1987,-7.1987,-7.1987,-7.1987,-7.1987,-7.1987,-7.1987,-7.1987,-7.1987,-7.1987,-7.1987,-7.1987,-7.1987,-7.1987,-7.199,-7.1993,-7.199,-7.1993,-7.2,-7.1995,-7.2,-7.2006,-7.2014,-7.2016,-7.2017,-7.1989,-7.1991,-7.1991,-7.1992,-7.1992,-7.1992,-7.1992,-7.1992,-7.1953,-7.168,-7.1133,-7.0586,-7.0078,-6.9023,-6.8125,-6.7851,-6.7344,-6.6914,-6.6914,-6.6914,-6.6914,-6.6914,-6.6914,-6.6914,-6.6914,-6.6914,-6.6914,-6.6914,-6.6914,-6.6914,-6.6914,-6.6914,-6.6914,-6.6914,-6.6694,-6.6484,-6.6205,-6.6185,-6.6185,-6.6185,-6.6185,-6.6185,-6.6185,-6.6185,-6.6495,-6.7114,-6.7384,-6.781,-6.8429,-6.928,-6.975,-6.9915,-7.0544,-7.0922,-7.1068,-7.1018,-7.0992,-7.0965,-7.0912,-7.0898,-7.0898,-7.0898,-7.0898,-7.0898,-7.199,-7.1987,-7.1987,-7.1987,-7.1987,-7.1987,-7.1987,-7.1987,-7.1987,-7.1987,-7.1987,-7.1987,-7.1987,-7.1987,-7.1987,-7.1987,-7.1987,-7.1987,-7.1987,-7.1987,-7.1987,-7.1987,-7.1987,-7.1987,-7.1987,-7.1987,-7.1987,-7.1987,-7.1987,-7.1987,-7.1987,-7.1987,-7.1987,-7.1987,-7.1987,-7.1987,-7.1987,-7.1987,-7.1987,-7.1987,-7.1987,-7.1987,-7.1987,-7.1987,-7.1987,-7.1987,-7.1987,-7.199,-7.1997,-7.2004,-7.2008,-7.2014,-7.1985,-7.1987,-7.1988,-7.1992,-7.1992,-7.1992,-7.1992,-7.1992,-7.1992,-7.1992,-7.1601,-7.1133,-7.0781,-6.9922,-6.9101,-6.8789,-6.8008,-6.7422,-6.7422,-6.7148,-6.6914,-6.6914,-6.6914,-6.6914,-6.6914,-6.6914,-6.6914,-6.6914,-6.6914,-6.6914,-6.6914,-6.6914,-6.6873,-6.6774,-6.6658,-6.6484,-6.6205,-6.6185,-6.6185,-6.6185,-6.6185,-6.6379,-6.6727,-6.6727,-6.6998,-6.7501,-6.8158,-6.8777,-6.9319,-7.0131,-7.0496,-7.0463,-7.1004,-7.1201,-7.1142,-7.1106,-7.1068,-7.103,-7.0992,-7.0979,-7.0979,-7.0979,-7.0965,-7.0939,-7.199,-7.1987,-7.1987,-7.1987,-7.1987,-7.1987,-7.1987,-7.1987,-7.1987,-7.1987,-7.1987,-7.1987,-7.1987,-7.1987,-7.1987,-7.1987,-7.1987,-7.1987,-7.1987,-7.1987,-7.1987,-7.1987,-7.1987,-7.1987,-7.1987,-7.1987,-7.1987,-7.1987,-7.1987,-7.1987,-7.1987,-7.1987,-7.1987,-7.1987,-7.1987,-7.1987,-7.1987,-7.1987,-7.1987,-7.1987,-7.1987,-7.1987,-7.1987,-7.1987,-7.1987,-7.1987,-7.1987,-7.1995,-7.2004,-7.2004,-7.201,-7.2017,-7.2019,-7.2019,-7.1982,-7.1991,-7.1991,-7.199,-7.1992,-7.1992,-7.1992,-7.1992,-7.1992,-7.1797,-7.1015,-7.0742,-7.0508,-6.9765,-6.8906,-6.8281,-6.8203,-6.7539,-6.6992,-6.6914,-6.6914,-6.6914,-6.6914,-6.6914,-6.6914,-6.6914,-6.6914,-6.6914,-6.6914,-6.6914,-6.6824,-6.6619,-6.66,-6.6491,-6.6235,-6.6273,-6.6301,-6.6301,-6.6379,-6.6804,-6.7617,-6.7694,-6.7733,-6.7733,-6.928,-7.0054,-7.0131,-7.0943,-7.1291,-7.1291,-7.1291,-7.1269,-7.1213,-7.1213,-7.1166,-7.1106,-7.1106,-7.1106,-7.1106,-7.1106,-7.1068,-7.1005,-7.199,-7.1987,-7.1987,-7.1987,-7.1987,-7.1987,-7.1987,-7.1987,-7.1987,-7.1987,-7.1987,-7.1987,-7.1987,-7.1987,-7.1987,-7.1987,-7.1987,-7.1987,-7.1987,-7.1987,-7.1987,-7.1987,-7.1987,-7.1987,-7.1987,-7.1987,-7.1987,-7.1987,-7.1987,-7.1987,-7.1987,-7.1987,-7.1987,-7.1987,-7.1987,-7.1987,-7.1987,-7.1987,-7.1987,-7.1987,-7.1987,-7.1987,-7.1987,-7.1987,-7.1987,-7.1987,-7.1987,-7.199,-7.1993,-7.1993,-7.1995,-7.1997,-7.2006,-7.2008,-7.2012,-7.1982,-7.1984,-7.1985,-7.1989,-7.199,-7.1991,-7.1992,-7.1992,-7.1953,-7.1758,-7.1172,-7.0664,-7.0469,-6.9765,-6.8945,-6.832,-6.8047,-6.7695,-6.6992,-6.6914,-6.6914,-6.6914,-6.6914,-6.6914,-6.6914,-6.6914,-6.6914,-6.6914,-6.6914,-6.6831,-6.6703,-6.6638,-6.6528,-6.6384,-6.6893,-6.723,-6.723,-6.7887,-6.8352,-6.8506,-6.9125,-6.9473,-6.9473,-6.9821,-7.0363,-7.1021,-7.1214,-7.1291,-7.1291,-7.1291,-7.1291,-7.1269,-7.1224,-7.1201,-7.1178,-7.1118,-7.1106,-7.1106,-7.1106,-7.1093,-7.1081,-7.1997,-7.1993,-7.1987,-7.1987,-7.1987,-7.1987,-7.1987,-7.1987,-7.1987,-7.1987,-7.1987,-7.1987,-7.1987,-7.1987,-7.1987,-7.1987,-7.1987,-7.1987,-7.1987,-7.1987,-7.1987,-7.1987,-7.1987,-7.1987,-7.1987,-7.1987,-7.1987,-7.1987,-7.1987,-7.1987,-7.1987,-7.1987,-7.1987,-7.1987,-7.1987,-7.1987,-7.1987,-7.1987,-7.1987,-7.1987,-7.1987,-7.1987,-7.1987,-7.1987,-7.1987,-7.1987,-7.1987,-7.1987,-7.1987,-7.1987,-7.1987,-7.199,-7.2002,-7.2002,-7.2002,-7.2016,-7.2017,-7.2016,-7.1985,-7.1986,-7.1987,-7.1989,-7.199,-7.1992,-7.1992,-7.164,-7.1328,-7.1328,-7.0625,-6.9883,-6.9453,-6.875,-6.8047,-6.7578,-6.7187,-6.6914,-6.6914,-6.6914,-6.6914,-6.6914,-6.6914,-6.6914,-6.6914,-6.7265,-6.7458,-6.7347,-6.7625,-6.7714,-6.7604,-6.7919,-6.8119,-6.8119,-6.8545,-6.897,-6.9357,-6.9783,-7.0208,-7.0634,-7.0634,-7.0866,-7.1291,-7.1291,-7.1291,-7.1291,-7.1291,-7.1291,-7.1291,-7.1258,-7.1247,-7.1247,-7.1213,-7.1201,-7.1201,-7.1201,-7.1178,-7.1142,-7.2006,-7.1997,-7.1987,-7.1987,-7.1987,-7.1987,-7.1987,-7.1987,-7.1987,-7.1987,-7.1987,-7.1987,-7.1987,-7.1987,-7.1987,-7.1987,-7.1987,-7.1987,-7.1987,-7.1987,-7.1987,-7.1987,-7.1987,-7.1987,-7.1987,-7.1987,-7.1987,-7.1987,-7.1987,-7.1987,-7.1987,-7.1987,-7.1987,-7.1987,-7.1987,-7.1987,-7.1987,-7.1987,-7.1987,-7.1987,-7.1987,-7.1987,-7.1987,-7.1987,-7.1987,-7.1987,-7.1987,-7.1987,-7.1987,-7.1987,-7.1987,-7.199,-7.2,-7.1997,-7.1993,-7.201,-7.201,-7.2006,-7.2016,-7.2017,-7.2017,-7.2019,-7.1985,-7.1989,-7.1991,-7.1992,-7.1992,-7.1992,-7.1445,-7.0898,-7.0742,-6.957,-6.8594,-6.8437,-6.7812,-6.7344,-6.7344,-6.7344,-6.7344,-6.7344,-6.7344,-6.7344,-6.7344,-6.7969,-6.8357,-6.8258,-6.878,-6.9073,-6.8932,-6.8983,-6.9051,-6.9009,-6.9164,-6.9551,-7.0208,-7.0208,-7.0595,-7.1291,-7.1291,-7.1291,-7.1291,-7.1291,-7.1291,-7.1291,-7.1291,-7.1291,-7.1291,-7.1291,-7.1291,-7.1291,-7.1291,-7.1291,-7.1291,-7.1291,-7.1269,-7.1213,-7.2008,-7.1997,-7.1987,-7.1987,-7.1987,-7.1987,-7.1987,-7.1987,-7.1987,-7.1987,-7.1987,-7.1987,-7.1987,-7.1987,-7.1987,-7.1987,-7.1987,-7.1987,-7.1987,-7.1987,-7.1987,-7.1987,-7.1987,-7.1987,-7.1987,-7.1987,-7.1987,-7.1987,-7.1987,-7.1987,-7.1987,-7.1987,-7.1987,-7.1987,-7.1987,-7.1987,-7.1987,-7.1987,-7.1987,-7.1987,-7.1987,-7.1987,-7.1987,-7.1987,-7.1987,-7.1987,-7.1987,-7.1987,-7.1987,-7.1987,-7.1987,-7.1987,-7.199,-7.199,-7.1987,-7.1993,-7.1993,-7.1993,-7.2004,-7.2008,-7.201,-7.2017,-7.1981,-7.1982,-7.1984,-7.199,-7.1992,-7.199,-7.1914,-7.1601,-7.0859,-7.0508,-7.0117,-6.9453,-6.918,-6.9062,-6.9062,-6.9062,-6.9062,-6.914,-6.9101,-6.9062,-6.9062,-6.918,-6.9258,-6.9296,-6.9275,-6.9213,-6.9073,-6.9678,-6.998,-6.9832,-7.0556,-7.1021,-7.1098,-7.1098,-7.1175,-7.1291,-7.1291,-7.1291,-7.1291,-7.1291,-7.1291,-7.1291,-7.1291,-7.1291,-7.1291,-7.1291,-7.1291,-7.1291,-7.1291,-7.1291,-7.1291,-7.1291,-7.1291,-7.128,-7.2016,-7.2002,-7.1987,-7.1987,-7.1987,-7.1987,-7.1987,-7.1987,-7.1987,-7.1987,-7.1987,-7.1987,-7.1987,-7.1987,-7.1987,-7.1987,-7.1987,-7.1987,-7.1987,-7.1987,-7.1987,-7.1987,-7.1987,-7.1987,-7.1987,-7.1987,-7.1987,-7.1987,-7.1987,-7.1987,-7.1987,-7.1987,-7.1987,-7.1987,-7.1987,-7.1987,-7.1987,-7.1987,-7.1987,-7.1987,-7.1987,-7.1987,-7.1987,-7.1987,-7.1987,-7.1987,-7.1987,-7.1987,-7.1987,-7.1987,-7.1987,-7.1987,-7.1987,-7.1987,-7.1987,-7.1987,-7.1987,-7.199,-7.1995,-7.1997,-7.1997,-7.2002,-7.2008,-7.201,-7.2006,-7.2019,-7.1989,-7.1989,-7.1991,-7.1875,-7.1484,-7.1015,-7.0586,-7.0234,-6.9765,-6.9453,-6.9453,-6.9453,-6.9453,-6.9453,-6.9414,-6.9414,-6.9453,-6.9844,-7.0156,-7.0156,-7.0493,-7.069,-7.0618,-7.0804,-7.0904,-7.0824,-7.1133,-7.1291,-7.1291,-7.1291,-7.1291,-7.1291,-7.1291,-7.1291,-7.1291,-7.1291,-7.1291,-7.1291,-7.1291,-7.1291,-7.1291,-7.1291,-7.1291,-7.1291,-7.1291,-7.1291,-7.1291,-7.1291,-7.1291,-7.1291]},{"header":{"parameterUnit":"m.s-1","parameterCategory":1,"la1":30.6,"la2":28.766,"lo1":-90.7593,"lo2":-88.6598,"dx":0.0162,"dy":0.0183,"nx":116,"ny":114,"refTime":"2022-12-04T06:00:00:Z","depth":0,"parameterNumber":3,"parameterNumberName":"V-component_of_WINDS"},"data":[0.0,0.0,0.0,0.0,0.0,0.0,0.0,0.0,0.0,0.0,0.0,0.0,0.0,0.0,0.0,0.0,0.0,0.0,0.0,0.0,0.0,0.0,0.0,0.0,0.0,0.0,0.0,0.0,0.0,0.0,0.0,0.0,0.0,0.0,0.0,0.0,0.0,0.0,0.0,0.0,0.0,0.0,0.0,0.0,0.0,0.0,0.0,0.0,0.0,0.0,0.0,0.0,0.0,0.0,0.0,0.0,0.0,0.0,0.0,0.0,0.0,0.0,0.0,0.0,0.0,0.0,0.0,0.0,0.0,0.0,0.0,0.0,0.0,0.0,0.0,0.0,0.0,0.0,0.0,0.0,0.0,0.0,0.0,0.0,0.0,0.0,0.0,0.0,0.0,0.0,0.0,0.0,0.0,0.0,0.0,0.0,0.0,0.0,0.0,0.0,0.0,0.0,0.0,0.0,0.0,0.0,0.0,0.0,0.0,0.0,0.0,0.0,0.0,0.0,0.0,0.0,0.0,0.0,0.0,0.0,0.0,0.0,0.0,0.0,0.0,0.0,0.0,0.0,0.0,0.0,0.0,0.0,0.0,0.0,0.0,0.0,0.0,0.0,0.0,0.0,0.0,0.0,0.0,0.0,0.0,0.0,0.0,0.0,0.0,0.0,0.0,0.0,0.0,0.0,0.0,0.0,0.0,0.0,0.0,0.0,0.0,0.0,0.0,0.0,0.0,0.0,0.0,0.0,0.0,0.0,0.0,0.0,0.0,0.0,0.0,0.0,0.0,0.0,0.0,0.0,0.0,0.0,0.0,0.0,0.0,0.0,0.0,0.0,0.0,0.0,0.0,0.0,0.0,0.0,0.0,0.0,0.0,0.0,0.0,0.0,0.0,0.0,0.0,0.0,0.0,0.0,0.0,0.0,0.0,0.0,0.0,0.0,0.0,0.0,0.0,0.0,0.0,0.0,0.0,0.0,0.0,0.0,0.0,0.0,0.0,0.0,0.0,0.0,0.0,0.0,0.0,0.0,0.0,0.0,0.0,0.0,0.0,0.0,0.0,0.0,0.0,0.0,0.0,0.0,0.0,0.0,0.0,0.0,0.0,0.0,0.0,0.0,0.0,0.0,0.0,0.0,0.0,0.0,0.0,0.0,0.0,0.0,0.0,0.0,0.0,0.0,0.0,0.0,0.0,0.0,0.0,0.0,0.0,0.0,0.0,0.0,0.0,0.0,0.0,0.0,0.0,0.0,0.0,0.0,0.0,0.0,0.0,0.0,0.0,0.0,0.0,0.0,0.0,0.0,0.0,0.0,0.0,0.0,0.0,0.0,0.0,0.0,0.0,0.0,0.0,0.0,0.0,0.0,0.0,0.0,0.0,0.0,0.0,0.0,0.0,0.0,0.0,0.0,0.0,0.0,0.0,0.0,0.0,0.0,0.0,0.0,0.0,0.0,0.0,0.0,0.0,0.0,0.0,0.0,0.0,0.0,0.0,0.0,0.0,0.0,0.0,0.0,0.0,0.0,0.0,0.0,0.0,0.0,0.0,0.0,0.0,0.0,0.0,0.0,0.0,0.0,0.0,0.0,0.0,0.0,0.0,0.0,0.0,0.0,0.0,0.0,0.0,0.0,0.0,0.0,0.0,0.0,0.0,0.0,0.0,0.0,0.0,0.0,0.0,0.0,0.0,0.0,0.0,0.0,0.0,0.0,0.0,0.0,0.0,0.0,0.0,0.0,0.0,0.0,0.0,0.0,0.0,0.0,0.0,0.0,0.0,0.0,0.0,0.0,0.0,0.0,0.0,0.0,0.0,0.0,0.0,0.0,0.0,0.0,0.0,0.0,0.0,0.0,0.0,0.0,0.0,0.0,0.0,0.0,0.0,0.0,0.0,0.0,0.0,0.0,0.0,0.0,0.0,0.0,0.0,0.0,0.0,0.0,0.0,0.0,0.0,0.0,0.0,0.0,0.0,0.0,0.0,0.0,0.0,0.0,0.0,0.0,0.0,0.0,0.0,0.0,0.0,0.0,0.0,0.0,0.0,0.0,0.0,0.0,0.0,0.0,0.0,0.0,0.0,0.0,0.0,0.0,0.0,0.0,0.0,0.0,0.0,0.0,0.0,0.0,0.0,0.0,0.0,0.0,0.0,0.0,0.0,0.0,0.0,0.0,0.0,0.0,0.0,0.0,0.0,0.0,0.0,0.0,0.0,0.0,0.0,0.0,0.0,0.0,0.0,0.0,0.0,0.0,0.0,0.0,0.0,0.0,0.0,0.0,0.0,0.0,0.0,0.0,0.0,0.0,0.0,0.0,0.0,0.0,0.0,0.0,0.0,0.0,0.0,0.0,0.0,0.0,0.0,0.0,0.0,0.0,0.0,0.0,0.0,0.0,0.0,0.0,0.0,0.0,0.0,0.0,0.0,0.0,0.0,0.0,0.0,0.0,0.0,0.0,0.0,0.0,0.0,0.0,0.0,0.0,0.0,0.0,0.0,0.0,0.0,0.0,0.0,0.0,0.0,0.0,0.0,0.0,0.0,0.0,0.0,0.0,0.0,0.0,0.0,0.0,0.0,0.0,0.0,0.0,0.0,0.0,0.0,0.0,0.0,0.0,0.0,0.0,0.0,0.0,0.0,0.0,0.0,0.0,0.0,0.0,0.0,0.0,0.0,0.0,0.0,0.0,0.0,0.0,0.0,0.0,0.0,0.0,0.0,0.0,0.0,0.0,0.0,0.0,0.0,0.0,0.0,0.0,0.0,0.0,0.0,0.0,0.0,0.0,0.0,0.0,0.0,0.0,0.0,0.0,0.0,0.0,0.0,0.0,0.0,0.0,0.0,0.0,0.0,0.0,0.0,0.0,0.0,0.0,0.0,0.0,0.0,0.0,0.0,0.0,0.0,0.0,0.0,0.0,0.0,0.0,0.0,0.0,0.0,0.0,0.0,0.0,0.0,0.0,0.0,0.0,0.0,0.0,0.0,0.0,0.0,0.0,0.0,0.0,0.0,0.0,0.0,0.0,0.0,0.0,0.0,0.0,0.0,0.0,0.0,0.0,0.0,0.0,0.0,0.0,0.0,0.0,0.0,0.0,0.0,0.0,0.0,0.0,0.0,0.0,0.0,0.0,0.0,0.0,0.0,0.0,0.0,0.0,0.0,0.0,0.0,0.0,0.0,0.0,0.0,0.0,0.0,0.0,0.0,0.0,0.0,0.0,0.0,0.0,0.0,0.0,0.0,0.0,0.0,0.0,0.0,0.0,0.0,0.0,0.0,0.0,0.0,0.0,0.0,0.0,0.0,0.0,0.0,0.0,0.0,0.0,0.0,0.0,0.0,0.0,0.0,0.0,0.0,0.0,0.0,0.0,0.0,0.0,0.0,0.0,0.0,0.0,0.0,0.0,0.0,0.0,0.0,0.0,0.0,0.0,0.0,0.0,0.0,0.0,0.0,0.0,0.0,0.0,0.0,0.0,0.0,0.0,0.0,0.0,0.0,0.0,0.0,0.0,0.0,0.0,0.0,0.0,0.0,0.0,0.0,0.0,0.0,0.0,0.0,0.0,0.0,0.0,0.0,0.0,0.0,0.0,0.0,0.0,0.0,0.0,0.0,0.0,0.0,0.0,0.0,0.0,0.0,0.0,0.0,0.0,0.0,0.0,0.0,0.0,0.0,0.0,0.0,0.0,0.0,0.0,0.0,0.0,0.0,0.0,0.0,0.0,0.0,0.0,0.0,0.0,0.0,0.0,0.0,0.0,0.0,0.0,0.0,0.0,0.0,0.0,0.0,0.0,0.0,0.0,0.0,0.0,0.0,0.0,0.0,0.0,0.0,0.0,0.0,0.0,0.0,0.0,0.0,0.0,0.0,0.0,0.0,0.0,0.0,0.0,0.0,0.0,0.0,0.0,0.0,0.0,0.0,0.0,0.0,0.0,0.0,0.0,0.0,0.0,0.0,0.0,0.0,0.0,0.0,0.0,0.0,0.0,0.0,0.0,0.0,0.0,0.0,0.0,0.0,0.0,0.0,0.0,0.0,0.0,0.0,0.0,0.0,0.0,0.0,0.0,0.0,0.0,0.0,0.0,0.0,0.0,0.0,0.0,0.0,0.0,0.0,0.0,0.0,0.0,0.0,0.0,0.0,0.0,0.0,0.0,0.0,0.0,0.0,0.0,0.0,0.0,0.0,0.0,0.0,0.0,0.0,0.0,0.0,0.0,0.0,0.0,0.0,0.0,0.0,0.0,0.0,0.0,0.0,0.0,0.0,0.0,0.0,0.0,0.0,0.0,0.0,0.0,0.0,0.0,0.0,0.0,0.0,0.0,0.0,0.0,0.0,0.0,0.0,0.0,0.0,0.0,0.0,0.0,0.0,0.0,0.0,0.0,0.0,0.0,0.0,0.0,0.0,0.0,0.0,0.0,0.0,0.0,0.0,0.0,0.0,0.0,0.0,0.0,0.0,0.0,0.0,0.0,0.0,0.0,0.0,0.0,0.0,0.0,0.0,0.0,0.0,0.0,0.0,0.0,0.0,0.0,0.0,0.0,0.0,0.0,0.0,0.0,0.0,0.0,0.0,0.0,0.0,0.0,0.0,0.0,0.0,0.0,0.0,0.0,0.0,0.0,0.0,0.0,0.0,0.0,0.0,0.0,0.0,0.0,0.0,0.0,0.0,0.0,0.0,0.0,0.0,0.0,0.0,0.0,0.0,0.0,0.0,0.0,0.0,0.0,0.0,0.0,0.0,0.0,0.0,0.0,0.0,0.0,0.0,0.0,0.0,0.0,0.0,0.0,0.0,0.0,0.0,0.0,0.0,0.0,0.0,0.0,0.0,0.0,0.0,0.0,0.0,0.0,0.0,0.0,0.0,0.0,0.0,0.0,0.0,0.0,0.0,0.0,0.0,0.0,0.0,0.0,0.0,0.0,0.0,0.0,0.0,0.0,0.0,0.0,0.0,0.0,0.0,0.0,0.0,0.0,0.0,0.0,0.0,0.0,0.0,0.0,0.0,0.0,0.0,0.0,0.0,0.0,0.0,0.0,0.0,0.0,0.0,0.0,0.0,0.0,0.0,0.0,0.0,0.0,0.0,0.0,0.0,0.0,0.0,0.0,0.0,0.0,0.0,0.0,0.0,0.0,0.0,0.0,0.0,0.0,0.0,0.0,0.0,0.0,0.0,0.0,0.0,0.0,0.0,0.0,0.0,0.0,0.0,0.0,0.0,0.0,0.0,0.0,0.0,0.0,0.0,0.0,0.0,0.0,0.0,0.0,0.0,0.0,0.0,0.0,0.0,0.0,0.0,0.0,0.0,0.0,0.0,0.0,0.0,0.0,0.0,0.0,0.0,0.0,0.0,0.0,0.0,0.0,0.0,0.0,0.0,0.0,0.0,0.0,0.0,0.0,0.0,0.0,0.0,0.0,0.0,0.0,0.0,0.0,0.0,0.0,0.0,0.0,0.0,0.0,0.0,0.0,0.0,0.0,0.0,0.0,0.0,0.0,0.0,0.0,0.0,0.0,0.0,0.0,0.0,0.0,0.0,0.0,0.0,0.0,0.0,0.0,0.0,0.0,0.0,0.0,0.0,0.0,0.0,0.0,0.0,0.0,0.0,0.0,0.0,0.0,0.0,0.0,0.0,0.0,0.0,0.0,0.0,0.0,0.0,0.0,0.0,0.0,0.0,0.0,0.0,0.0,0.0,0.0,0.0,0.0,0.0,0.0,0.0,0.0,0.0,0.0,0.0,0.0,0.0,0.0,0.0,0.0,0.0,0.0,0.0,0.0,0.0,0.0,0.0,0.0,0.0,0.0,0.0,0.0,0.0,0.0,0.0,0.0,0.0,0.0,0.0,0.0,0.0,0.0,0.0,0.0,0.0,0.0,0.0,0.0,0.0,0.0,0.0,0.0,0.0,0.0,0.0,0.0,0.0,0.0,0.0,0.0,0.0,0.0,0.0,0.0,0.0,0.0,0.0,0.0,0.0,0.0,0.0,0.0,0.0,0.0,0.0,0.0,0.0,0.0,0.0,0.0,0.0,0.0,0.0,0.0,0.0,0.0,0.0,0.0,0.0,0.0,0.0,0.0,0.0,0.0,0.0,0.0,0.0,0.0,-0.5326,-0.4567,0.0,0.0,0.0,0.0,0.0,0.0,0.0,0.0,0.0,0.0,0.0,0.0,0.0,0.0,0.0,0.0,0.0,0.0,0.0,0.0,0.0,0.0,0.0,0.1442,0.1191,0.0824,0.0453,0.0,0.0,0.0,0.0,0.0,0.0,0.0,0.0,0.0,0.0,0.0,0.0,0.0,0.0,0.0,0.0,0.0,0.0,0.0,0.0,0.0,0.0,0.0,0.0,0.0,0.0,0.0,0.0,0.0,0.0,0.0,0.0,0.0,0.0,0.0,0.0,0.0,0.0,0.0,0.0,0.0,0.0,0.0,0.0,0.0,0.0,0.0,0.0,0.0,0.0,0.0,0.0,0.0,0.0,0.0,0.0,0.0,0.0,0.0,0.0,0.0,0.0,0.0,0.0,0.0,0.0,0.0,0.0,0.0,0.0,0.0,0.0,0.0,0.0,0.0,0.0,0.0,0.0,0.0,0.0,0.0,0.0,0.0,0.0,0.0,0.0,0.0,-0.6112,-0.5582,0.0,0.0,0.0,0.0,0.0,0.0,0.0,0.0,0.0,0.0,0.0,0.0,0.0,0.0,0.0,0.0,0.0,0.0,0.0,0.0,0.0,0.1912,0.1637,0.1482,0.1291,0.1024,0.0638,0.0421,0.0421,0.0155,0.0,0.0,0.0,0.0,0.0,0.0,0.0,0.0,0.0,0.0,0.0,0.0,0.0,0.0,0.0,0.0,0.0,0.0,0.0,0.0,0.0,0.0,0.0,0.0,0.0,0.0,0.0,0.0,0.0,0.0,0.0,0.0,0.0,0.0,0.0,0.0,0.0,0.0,0.0,0.0,0.0,0.0,0.0,0.0,0.0,0.0,0.0,0.0,0.0,0.0,0.0,0.0,0.0,0.0,0.0,0.0,0.0,0.0,0.0,0.0,0.0,0.0,0.0,0.0,0.0,0.0,0.0,0.0,0.0,0.0,0.0,0.0,0.0,0.0,0.0,0.0,0.0,0.0,-0.6554,-0.6812,-0.7025,-0.7144,-0.733,-0.7563,-0.6668,-0.6571,-0.6957,-0.5912,0.0,0.0,0.0,0.0,0.0,0.0,0.0,0.0,0.0,0.0,0.0,0.0,0.0,0.0,0.0,0.0,0.0,0.0,0.0,0.1653,0.1598,0.1039,0.0627,0.0589,0.0257,0.0061,0.0061,0.0019,0.0,0.0,0.0,0.0,0.0,0.0,0.0,0.0,0.0,0.0,0.0,0.0,0.0,0.0,0.0,0.0,0.0,0.0,0.0,0.0,0.0,0.0,0.0,0.0,0.0,0.0,0.0,0.0,0.0,0.0,0.0,0.0,0.0,0.0,0.0,0.0,0.0,0.0,0.0,0.0,0.0,0.0,0.0,0.0,0.0,0.0,0.0,0.0,0.0,0.0,0.0,0.0,0.0,0.0,0.0,0.0,0.0,0.0,-0.2927,-0.3515,0.0,0.0,0.0,0.0,0.0,0.0,0.0,0.0,0.0,0.0,0.0,0.0,0.0,-0.553,-0.5733,-0.6286,-0.6632,-0.6815,-0.7253,-0.7494,-0.7513,-0.7531,-0.7562,-0.7586,-0.7463,0.0,-0.7665,-0.7155,0.0,0.0,0.0,0.0,0.0,0.0,0.0,0.0,0.0,0.0,0.0,0.0,0.0,0.0,0.0,0.0,0.0,0.0,0.0,0.0,0.0,0.1418,0.1369,0.1708,0.1595,0.1427,0.1195,0.1147,0.0,0.0,0.0,0.0511,0.0282,0.0838,0.1281,0.1645,0.1077,0.0802,0.0777,0.0265,0.0,0.0,0.0,0.0,0.0,0.0,0.0,0.0,0.0,0.0,0.0,0.0,0.0,0.0,0.0,0.0,0.0,0.0,0.0,0.0,0.0,0.0,0.0,0.0,0.0,0.0,0.0,0.0,0.0,0.0,0.0,0.0,0.0,0.0,0.0,0.0,0.0,0.0,0.0,0.0,0.0,0.0,0.0,0.0,0.0,-0.3026,-0.3548,-0.4287,-0.406,-0.383,0.0,0.0,0.0,0.0,0.0,0.0,0.0,0.0,0.0,-0.5903,-0.6101,-0.6403,-0.6828,-0.7065,-0.7265,-0.7389,-0.7616,-0.7744,-0.7816,-0.7816,-0.7816,-0.7816,-0.7816,-0.7874,-0.7871,-0.7177,-0.6642,-0.6122,0.0,0.0,0.0,0.0,-0.5384,-0.561,0.0,0.0,0.0,0.0,0.0,0.0,0.0,0.0,0.0,0.0,0.0,0.0,0.1793,0.1934,0.2222,0.2664,0.2722,0.2632,0.2338,0.2112,0.1844,0.1498,0.1228,0.0998,0.0794,0.1654,0.2387,0.2911,0.2196,0.1825,0.1861,0.1134,0.081,0.0809,0.0516,0.026,0.0,0.0,0.0,0.0,0.0,0.0,0.0,0.0,0.0,0.0,0.0,0.0,0.0,0.0,0.0,0.0,0.0,0.0,0.0,0.0,0.0,0.0,0.0,0.0,0.0,0.0,0.0,0.0,0.0,0.0,0.0,0.0,0.0,0.0,0.0,0.0,0.0,0.0,0.0,0.0,0.0,-0.3872,-0.4345,-0.4881,-0.4838,-0.4583,0.0,0.0,0.0,0.0,0.0,0.0,-0.5446,-0.5691,-0.611,-0.6686,-0.688,-0.7135,-0.7481,-0.7517,-0.7576,-0.767,-0.7706,-0.7771,-0.7865,-0.7865,-0.7865,-0.7865,-0.7865,-0.7865,-0.7818,-0.7271,-0.6887,-0.6655,-0.613,-0.5858,-0.5745,-0.5936,-0.6139,-0.6447,0.0,0.0,0.0,0.0,0.0,0.0,0.0,0.0,0.0,0.0,0.0,0.1799,0.1808,0.2308,0.2675,0.2685,0.2819,0.2875,0.2864,0.2316,0.1992,0.1973,0.1401,0.1248,0.154,0.2142,0.2651,0.3007,0.2945,0.2978,0.3086,0.3041,0.3044,0.2994,0.1997,0.0937,0.0,0.0,0.0,0.0,0.0,0.0,0.0,0.0,0.0,0.0,0.0,0.0,0.0,0.0,0.0,0.0,0.0,0.0,0.0,0.0,0.0,0.0,0.0,0.0,0.0,0.0,0.0,0.0,0.0,0.0,0.0,0.0,0.0,0.0,0.0,0.0,0.0,0.0,0.0,0.0,0.0,0.0,0.0,-0.5371,-0.5431,0.0,0.0,0.0,0.0,-0.5336,-0.554,-0.5969,-0.6565,-0.688,-0.7096,-0.7356,-0.7489,-0.7453,-0.7249,-0.7308,-0.7312,-0.7317,-0.7437,-0.7491,-0.7502,-0.7502,-0.7502,-0.7502,-0.7502,-0.7502,-0.7539,-0.783,-0.7707,-0.7361,-0.7325,-0.7033,-0.6703,-0.7135,-0.7331,-0.7392,0.0,0.0,0.0,0.1002,0.1093,0.1211,0.1542,0.1408,0.1287,0.1291,0.1666,0.2193,0.2892,0.3358,0.3844,0.4434,0.4546,0.4476,0.4274,0.3594,0.3261,0.3353,0.2699,0.278,0.3776,0.3803,0.4168,0.5008,0.4383,0.4138,0.4168,0.3485,0.3207,0.3207,0.2777,0.2413,0.196,0.0584,0.0,0.0,0.0,0.0,0.0,0.0,0.0,0.0,0.0,0.0,0.0,0.0,0.0,0.0,0.0,0.0,0.0,0.0,0.0,0.0,0.0,0.0,0.0,0.0,0.0,0.0,0.0,0.0,0.0,0.0,0.0,0.0,0.0,0.0,0.0,0.0,0.0,0.0,0.0,0.0,0.0,-0.5714,-0.5822,0.0,-0.5561,-0.5925,-0.6127,-0.5988,-0.6508,-0.685,-0.6876,-0.7043,-0.7204,-0.7315,-0.7365,-0.7425,-0.7388,-0.7432,-0.7453,-0.7453,-0.7497,-0.7519,-0.7519,-0.7519,-0.7519,-0.7519,-0.7519,-0.7519,-0.7513,-0.7657,-0.7596,-0.7477,-0.7477,-0.7292,-0.7119,-0.7253,-0.7417,-0.7528,0.0,0.0,0.0,0.0829,0.0892,0.0976,0.1191,0.1044,0.1016,0.1334,0.188,0.2615,0.3583,0.4219,0.4829,0.5448,0.5545,0.5513,0.5396,0.4575,0.4186,0.4334,0.3769,0.3922,0.4996,0.4925,0.5321,0.6149,0.5543,0.5254,0.5237,0.4602,0.4279,0.4275,0.3927,0.3755,0.3601,0.1816,0.1138,0.1195,0.0718,0.0605,0.064,0.0,0.0,0.0,0.0,0.0,0.0,0.0,0.0,0.0,0.0,0.0,0.0,0.0,0.0,0.0,0.0,0.0,0.0,0.0,0.0,0.0,0.0,0.0,0.0,0.0,0.0,0.0,0.0,0.0,0.0,0.0,0.0,0.0,0.0,-0.5458,-0.5899,-0.585,-0.6132,-0.6236,-0.595,-0.6442,-0.6726,-0.6613,-0.7059,-0.7265,-0.7105,-0.7214,-0.7312,-0.7394,-0.7342,-0.7437,-0.7519,-0.7562,-0.7578,-0.7578,-0.7616,-0.7638,-0.7638,-0.7638,-0.7638,-0.7638,-0.7638,-0.7638,-0.7638,-0.7638,-0.7638,-0.7627,-0.7551,-0.747,-0.7342,-0.7342,-0.7464,-0.7567,0.0,0.0,0.0118,0.0436,0.0504,0.0504,0.0504,0.0501,0.0695,0.1251,0.2148,0.3015,0.3836,0.4877,0.5513,0.5513,0.5621,0.5819,0.6074,0.5084,0.4578,0.4792,0.4506,0.4577,0.5045,0.547,0.592,0.6322,0.6322,0.6328,0.6387,0.6387,0.6387,0.6387,0.5336,0.4885,0.4826,0.3752,0.3488,0.3584,0.2217,0.1807,0.1848,0.0,0.0,0.0,0.0,0.0,0.0,0.0,0.0,0.0,0.0,0.0,0.0,0.0,0.0,0.0,0.0,0.0,0.0,0.0,0.0,0.0,0.0,0.0,0.0,0.0,0.0,0.0,0.0,0.0,0.0,0.0,0.0,0.0,-0.52,-0.5873,-0.6159,-0.5766,-0.6388,-0.6719,-0.6441,-0.679,-0.704,-0.7204,-0.7274,-0.7282,-0.7282,-0.7453,-0.7519,-0.7524,-0.7524,-0.7524,-0.7529,-0.7649,-0.7709,-0.7709,-0.7818,-0.7872,-0.7872,-0.7872,-0.7872,-0.7872,-0.7872,-0.7872,-0.7872,-0.7872,-0.7872,-0.785,-0.7616,-0.7529,-0.7524,-0.7524,-0.7524,-0.7519,0.0,0.0197,0.0386,0.0487,0.0504,0.0504,0.0504,0.0297,0.0601,0.1859,0.2511,0.3341,0.4693,0.5336,0.5637,0.5637,0.5669,0.5659,0.5607,0.4919,0.4582,0.4706,0.5281,0.5697,0.592,0.6051,0.6208,0.6388,0.6388,0.6404,0.6387,0.6387,0.6487,0.6692,0.6392,0.6337,0.6537,0.625,0.6267,0.6306,0.3964,0.2498,0.1678,0.0,0.0,0.0,0.0,0.0,0.0,0.0,0.0,0.0,0.0,0.0,0.0,0.0,0.0,0.0,0.0,0.0,0.0,0.0,0.0,0.0,0.0,0.0,0.0,0.0,0.0,0.0,0.0,0.0,0.0,0.0,-0.421,-0.515,-0.5625,-0.6252,-0.6654,-0.6643,-0.6817,-0.6942,-0.6959,-0.7127,-0.7252,-0.7285,-0.7399,-0.747,-0.747,-0.7502,-0.7562,-0.7649,-0.7649,-0.7693,-0.7774,-0.7807,-0.7823,-0.7823,-0.7856,-0.7872,-0.7872,-0.7872,-0.7872,-0.7872,-0.7872,-0.7872,-0.7872,-0.7872,-0.7872,-0.7867,-0.7801,-0.7725,-0.7649,-0.7649,-0.7595,-0.7519,0.0,0.0166,0.0296,0.0296,0.029,0.0288,0.0295,0.0122,0.0596,0.2254,0.2704,0.3505,0.5166,0.5529,0.5691,0.5691,0.5734,0.5747,0.5628,0.523,0.5018,0.5023,0.5659,0.6089,0.6311,0.6317,0.6372,0.6387,0.6387,0.6387,0.6387,0.6387,0.6487,0.6642,0.6642,0.6792,0.7042,0.7042,0.7191,0.7329,0.584,0.4192,0.2549,0.2149,0.118,0.0,0.0,0.0,0.0,0.0,0.0,0.0,0.0,0.0,0.0,0.0,0.0,0.0,0.0,0.0,0.0,0.0,0.0,0.0,0.0,0.0,0.0,0.0,0.0,0.0,0.0,0.0,0.0,0.0,-0.512,-0.596,-0.6306,-0.666,-0.6904,-0.6975,-0.7073,-0.716,-0.7225,-0.7339,-0.741,-0.741,-0.7524,-0.7595,-0.7595,-0.7638,-0.7698,-0.7769,-0.7774,-0.7807,-0.7872,-0.7872,-0.7872,-0.7872,-0.7872,-0.7872,-0.7872,-0.7872,-0.7872,-0.7872,-0.7872,-0.7872,-0.7872,-0.7872,-0.7872,0.0,0.0,0.0,0.0,0.0,-0.7725,-0.7665,0.0,0.0,0.0,0.0,0.0,0.0,0.0,0.0,0.0665,0.2474,0.2825,0.3587,0.5331,0.5626,0.5691,0.5691,0.585,0.5918,0.5904,0.5777,0.5639,0.554,0.5828,0.6067,0.6285,0.6382,0.6387,0.6387,0.6387,0.6387,0.6387,0.6387,0.6437,0.6437,0.6437,0.6592,0.6842,0.6892,0.6992,0.7235,0.754,0.6174,0.3853,0.2731,0.1361,0.0045,0.0043,0.0041,0.0,0.0,0.0,0.0,0.0,0.0,0.0,0.0,0.0,0.0,0.0,0.0,0.0,0.0,0.0,0.0,0.0,0.0,0.0,0.0,0.0,0.0,0.0,0.0,0.0,0.0,-0.6246,-0.6991,-0.7002,-0.7018,-0.7024,-0.7024,-0.7209,-0.7282,-0.7298,-0.747,-0.754,-0.754,-0.7655,-0.772,-0.772,-0.7818,0.0,0.0,0.0,-0.7872,-0.7872,-0.7872,-0.7872,-0.7872,-0.7872,-0.7872,-0.7872,-0.7872,-0.7872,-0.7872,-0.7872,-0.7872,-0.7872,-0.7872,-0.7872,-0.7872,-0.7872,-0.7872,-0.7872,-0.7872,-0.7872,-0.7872,0.0,0.0,0.0,0.0,0.0,0.0,0.0,0.0,0.0691,0.2616,0.2895,0.3611,0.5447,0.5675,0.5691,0.5691,0.5926,0.6037,0.589,0.5769,0.5714,0.5828,0.6106,0.6306,0.6404,0.6376,0.6387,0.6387,0.6387,0.6387,0.6387,0.6387,0.6537,0.6742,0.6742,0.6892,0.7141,0.7341,0.7341,0.7241,0.7739,0.6365,0.3997,0.3953,0.2438,0.0338,0.0333,0.0187,0.0,0.0,0.0,0.0,0.0,0.0,0.0,0.0,0.0,0.0,0.0,0.0,0.0,0.0,0.0,0.0,0.0,0.0,0.0,0.0,0.0,0.0,0.0,0.0,0.0,-0.5286,-0.6297,-0.7018,-0.7166,-0.7203,-0.7269,-0.7269,-0.725,-0.732,-0.7475,-0.7595,-0.7665,-0.7665,-0.7774,-0.7839,-0.7839,-0.7861,-0.7872,-0.7872,-0.7872,-0.7872,-0.7872,-0.7872,-0.7872,-0.7872,0.0,0.0,-0.7872,-0.7872,-0.7872,-0.7872,-0.7872,-0.7872,-0.7872,-0.7872,-0.7872,-0.7872,-0.7872,-0.7872,-0.7872,-0.7872,-0.7872,-0.7872,0.0,0.0,0.0,0.0,0.0,0.0,0.0,0.0,0.0514,0.197,0.2138,0.2697,0.413,0.4307,0.4402,0.474,0.5225,0.5627,0.5806,0.5817,0.5871,0.5991,0.6279,0.6387,0.6387,0.6387,0.6387,0.6387,0.6387,0.6387,0.6387,0.6387,0.6487,0.6592,0.6592,0.6742,0.7042,0.7291,0.7391,0.7441,0.769,0.6686,0.4926,0.4418,0.26,0.0398,0.0249,0.0099,0.0,0.0,0.0,0.0,0.0,0.0,0.0,0.0,0.0,0.0,0.0,0.0,0.0,0.0,0.0,0.0,0.0,0.0,0.0,0.0,0.0,-0.2337,-0.418,0.0,-0.5534,-0.6213,-0.6732,-0.7111,-0.723,-0.7296,-0.7277,-0.7277,-0.7442,-0.754,-0.7606,-0.772,-0.7785,-0.7785,-0.7839,-0.7872,-0.7872,-0.7872,-0.7872,-0.7872,-0.7872,-0.7872,-0.7872,-0.7872,-0.7872,-0.7872,-0.7872,-0.7872,-0.7872,-0.7872,-0.7872,-0.7872,-0.7872,-0.7872,-0.7872,-0.7872,-0.7872,-0.7872,-0.7872,-0.7872,-0.7872,-0.7872,-0.7872,-0.7872,0.0,0.0,0.0,0.0,0.0,0.0,0.0,0.0,0.0331,0.1288,0.1405,0.1778,0.2774,0.2895,0.3182,0.3865,0.4501,0.5119,0.5723,0.5888,0.5991,0.6116,0.6323,0.6387,0.6387,0.6387,0.6387,0.6387,0.6387,0.6387,0.6387,0.6387,0.6387,0.6387,0.6387,0.6537,0.6742,0.6992,0.7241,0.7397,0.7497,0.6736,0.5427,0.4318,0.2565,0.0656,0.0252,0.005,0.0,0.0,0.0,0.0,0.0,0.0,0.0,0.0,0.0,0.0,0.0,0.0,0.0,0.0,0.0,0.0,0.0,0.0,-0.0407,-0.1857,-0.2134,-0.2889,-0.5304,-0.5755,-0.6073,-0.7034,-0.7232,-0.7225,-0.7266,-0.732,-0.7352,-0.7352,-0.7578,-0.7709,-0.7731,-0.7818,-0.7872,-0.7872,-0.7872,-0.7872,-0.7872,-0.7872,-0.7872,-0.7872,-0.7872,-0.7872,-0.7872,-0.7872,-0.7872,-0.7872,-0.7872,-0.7872,-0.7872,-0.7872,-0.7872,-0.7872,-0.7872,-0.7872,-0.7872,-0.7872,-0.7872,-0.7872,-0.7872,-0.7872,-0.7872,-0.7872,-0.7872,-0.7872,0.0,0.0,0.0,0.0,0.0,0.0,0.0,0.0,0.0328,0.1276,0.1405,0.178,0.2787,0.2886,0.3307,0.4351,0.4384,0.4848,0.6002,0.6056,0.6121,0.6289,0.6372,0.6387,0.6387,0.6387,0.6387,0.6387,0.6387,0.6387,0.6387,0.6387,0.6387,0.6387,0.6387,0.6437,0.6437,0.6742,0.6742,0.6587,0.7036,0.5882,0.3827,0.3723,0.2869,0.1715,0.0707,0.0202,0.0,0.0,0.0,0.0,0.0,0.0,0.0,0.0,0.0,0.0,0.0,0.0,0.0,0.0,0.0,0.0,0.0,0.0,-0.0662,-0.2919,-0.3401,-0.4123,-0.6543,-0.7018,-0.7034,-0.7199,-0.7247,-0.7266,-0.7277,-0.7524,-0.766,-0.766,-0.7687,-0.7741,-0.7845,-0.7861,-0.7872,-0.7872,-0.7872,-0.7872,-0.7872,-0.7872,-0.7872,-0.7872,-0.7872,-0.7872,-0.7872,-0.7872,-0.7872,-0.7872,-0.7872,-0.7872,-0.7872,-0.7872,-0.7872,-0.7872,-0.7872,-0.7872,-0.7872,-0.7872,-0.7872,-0.7872,-0.7872,-0.7872,-0.7872,-0.7872,-0.7872,-0.7872,0.0,0.0,0.0,0.0,0.0,0.0,0.0,0.0,0.0148,0.0534,0.0593,0.074,0.117,0.1536,0.214,0.3119,0.3719,0.4443,0.5523,0.5822,0.6034,0.6159,0.6274,0.6372,0.6387,0.6387,0.6387,0.6387,0.6387,0.6387,0.6387,0.6387,0.6387,0.6387,0.6387,0.6387,0.6437,0.6692,0.6742,0.6592,0.6182,0.5432,0.4379,0.297,0.2167,0.1614,0.0555,0.01,0.0,0.0,0.0,0.0,0.0,0.0,0.0,0.0,0.0,0.0,0.0,0.0,0.0,0.0,0.0,0.0,0.0,0.0,-0.0706,-0.3107,-0.3598,-0.4325,-0.6755,-0.7214,-0.7258,-0.7258,-0.7361,-0.7464,-0.754,-0.7638,-0.7725,-0.779,-0.7801,-0.7818,-0.7867,-0.7872,-0.7872,-0.7872,-0.7872,-0.7872,-0.7872,-0.7872,-0.7872,-0.7872,-0.7872,-0.7872,-0.7872,-0.7872,-0.7872,-0.7872,-0.7872,-0.7872,-0.7872,-0.7872,-0.7872,-0.7872,-0.7872,-0.7872,-0.7872,-0.7872,-0.7872,-0.7872,-0.7872,-0.7872,-0.7872,-0.7872,-0.7872,-0.7872,0.0,0.0,0.0,0.0,0.0,0.0,0.0,0.0,0.0,0.0,0.0,0.0,0.0,0.0379,0.1026,0.193,0.2939,0.3878,0.4822,0.5502,0.5909,0.6029,0.6187,0.6306,0.6388,0.6371,0.6387,0.6387,0.6387,0.6387,0.6387,0.6387,0.6387,0.6387,0.6387,0.6387,0.6437,0.6592,0.6542,0.6192,0.5381,0.473,0.4024,0.2267,0.1398,0.1034,0.0296,0.0,0.0,0.0,0.0,0.0,0.0,0.0,0.0,0.0,0.0,0.0,0.0,0.0,0.0,0.0,0.0,0.0,0.0,0.0,-0.069,-0.3105,-0.3594,-0.4336,-0.6756,-0.7274,-0.7288,-0.7325,-0.7491,-0.76,-0.7687,-0.7731,-0.778,-0.7861,-0.7872,-0.7872,-0.7872,-0.7872,-0.7872,-0.7872,-0.7872,-0.7872,-0.7872,-0.7872,-0.7872,-0.7872,-0.7872,-0.7872,-0.7872,-0.7872,-0.7872,-0.7872,-0.7872,-0.7872,-0.7872,-0.7872,-0.7872,-0.7872,-0.7872,-0.7872,-0.7872,-0.7872,-0.7872,-0.7872,-0.7872,-0.7872,-0.7872,-0.7872,-0.7872,-0.7872,0.0,0.0,0.0,0.0,0.0,0.0,0.0,0.0,0.0,0.0,0.0,0.0,0.0,0.002,0.0384,0.1252,0.2183,0.3123,0.4071,0.5124,0.5745,0.5904,0.6138,0.6317,0.6322,0.6382,0.6387,0.6387,0.6387,0.6387,0.6387,0.6387,0.6387,0.6387,0.6387,0.6387,0.6387,0.6387,0.5837,0.4834,0.4834,0.3575,0.1713,0.1613,0.0975,0.0046,0.0,0.0,0.0,0.0,0.0,0.0,0.0,0.0,0.0,0.0,0.0,0.0,0.0,0.0,0.0,0.0,0.0,0.0,0.0,0.0,-0.0684,-0.3087,-0.3627,-0.4354,-0.6816,-0.7277,-0.732,-0.7491,-0.7616,-0.7698,-0.7703,-0.7796,-0.7867,-0.7872,-0.7872,-0.7872,-0.7872,-0.7872,-0.7872,-0.7872,-0.7872,-0.7872,-0.7872,-0.7872,-0.7872,-0.7872,-0.7872,-0.7872,-0.7872,-0.7872,-0.7872,-0.7872,-0.7872,-0.7872,-0.7872,-0.7872,-0.7872,-0.7872,-0.7872,-0.7872,-0.7872,-0.7872,-0.7872,-0.7872,-0.7872,-0.7872,-0.7872,-0.7872,-0.7872,-0.7872,0.0,0.0,0.0,0.0,0.0,0.0,0.0,0.0,0.0,0.0,0.0,0.0,0.0,0.0,0.0,0.0,0.1583,0.2426,0.3826,0.4451,0.5058,0.5734,0.5942,0.6067,0.6143,0.6263,0.6323,0.6323,0.6399,0.6387,0.6387,0.6387,0.6037,0.5336,0.5336,0.4931,0.4279,0.4279,0.4078,0.3676,0.2972,0.2267,0.1517,0.083,0.0294,0.0,0.0,0.0,0.0,0.0,0.0,0.0,0.0,0.0,0.0,0.0,0.0,0.0,0.0,0.0,0.0,0.0,0.0,0.0,0.0,0.0,-0.0699,-0.3243,-0.3684,-0.4357,-0.6821,-0.7399,-0.747,-0.7513,-0.7687,-0.7812,-0.7812,-0.7845,-0.7872,-0.7872,-0.7872,-0.7872,-0.7872,-0.7872,-0.7872,-0.7872,-0.7872,-0.7872,-0.7872,-0.7872,-0.7872,-0.7872,-0.7872,-0.7872,-0.7872,-0.7872,-0.7872,-0.7872,-0.7872,-0.7872,-0.7872,-0.7872,-0.7872,-0.7872,-0.7872,-0.7872,-0.7872,-0.7872,-0.7872,-0.7872,-0.7872,-0.7872,-0.7872,-0.7872,-0.7872,-0.7872,0.0,0.0,0.0,0.0,0.0,0.0,0.0,0.0,0.0,0.0,0.0,0.0,0.0,0.0,0.0,0.0,0.0,0.1806,0.2858,0.3424,0.4004,0.4652,0.4808,0.4907,0.5008,0.5132,0.5176,0.5179,0.525,0.5271,0.5277,0.5277,0.4913,0.4245,0.4203,0.4064,0.3741,0.3366,0.3197,0.3125,0.2031,0.1375,0.0937,0.0243,0.0,0.0,0.0,0.0,0.0,0.0,0.0,0.0,0.0,0.0,0.0,0.0,0.0,0.0,0.0,0.0,0.0,0.0,0.0,0.0,0.0,-0.0352,-0.1304,-0.3354,-0.3986,-0.4839,-0.6925,-0.7366,-0.7415,-0.7502,-0.772,-0.7872,-0.7872,-0.7872,-0.7872,-0.7872,-0.7872,-0.7872,-0.7872,-0.7872,-0.7872,-0.7872,-0.7872,-0.7872,-0.7872,-0.7872,-0.7872,-0.7872,-0.7872,-0.7872,-0.7872,-0.7872,-0.7955,-0.7999,-0.7981,-0.8002,-0.7997,-0.7959,-0.7999,-0.7993,-0.7888,-0.7872,-0.7872,-0.7872,-0.7872,-0.7872,-0.7872,-0.7872,-0.7872,-0.7872,-0.7872,-0.7872,0.0,0.0,0.0,0.0,0.0,0.0,0.0,0.0,0.0,0.0,0.0,0.0,0.0,0.0,0.0,0.0,0.0,0.0,0.1395,0.2161,0.2704,0.2873,0.2966,0.2994,0.301,0.3115,0.3173,0.3209,0.3195,0.3215,0.3206,0.3206,0.3175,0.3125,0.3095,0.3657,0.4477,0.3469,0.3056,0.2969,0.1907,0.0929,0.0,0.0,0.0,0.0,0.0,0.0,0.0,0.0,0.0,0.0,0.0,0.0,0.0,0.0,0.0,0.0,0.0,0.0,0.0,0.0,0.0,0.0,0.0,-0.1014,-0.2339,-0.3533,-0.4515,-0.5605,-0.6981,-0.7209,-0.7276,-0.7453,-0.7703,-0.7872,-0.7872,-0.7872,-0.7872,-0.7872,-0.7872,-0.7872,-0.7872,-0.7872,-0.7872,-0.7872,-0.7872,-0.7872,-0.7872,-0.7872,-0.7872,-0.7872,-0.7872,-0.7872,-0.7883,-0.7888,-0.801,-0.8119,-0.8176,-0.8167,-0.822,-0.8111,-0.8125,-0.8119,-0.7999,-0.7888,-0.7888,-0.7888,-0.7888,-0.7883,-0.7883,-0.7877,-0.7872,-0.7872,-0.7872,-0.7872,0.0,0.0,0.0,0.0,0.0,0.0,0.0,0.0,0.0,0.0,0.0,0.0,0.0,0.0,0.0,0.0,0.0,0.0,0.1293,0.1577,0.2031,0.2733,0.2877,0.2937,0.2908,0.3023,0.3036,0.3064,0.314,0.3184,0.3194,0.3194,0.2793,0.1998,0.202,0.1716,0.1228,0.0926,0.0837,0.0788,0.0511,0.0251,0.0,0.0,0.0,0.0,0.0,0.0,0.0,0.0,0.0,0.0,0.0,0.0,0.0,0.0,0.0,0.0,0.0,0.0,0.0,0.0,0.0,0.0,0.0,-0.1031,-0.2235,-0.315,-0.4234,-0.5355,-0.6395,-0.6806,-0.7051,-0.7111,-0.7546,-0.7872,-0.7872,-0.7872,-0.7872,-0.7872,-0.7872,-0.7872,-0.7872,-0.7872,-0.7872,-0.7872,-0.7872,-0.7872,-0.7872,-0.7872,-0.7872,-0.7872,-0.7872,-0.7977,-0.807,-0.8095,-0.8111,-0.8119,-0.8176,-0.8187,-0.81,-0.816,-0.8187,-0.8187,-0.8155,-0.8144,-0.8144,-0.8144,-0.8089,-0.807,-0.807,-0.8015,-0.7872,-0.7872,-0.7872,-0.7872,0.0,0.0,0.0,0.0,0.0,0.0,0.0,0.0,0.0,0.0,0.0,0.0,0.0,0.0,0.0,0.0,0.0,0.0,0.0,0.0778,0.099,0.1495,0.1592,0.164,0.1637,0.166,0.1666,0.1689,0.175,0.1784,0.1779,0.1801,0.1481,0.0898,0.0916,0.0844,0.0684,0.0203,0.0285,0.0,0.0,0.0,0.0,0.0,0.0,0.0,0.0,0.0,0.0,0.0,0.0,0.0,0.0,0.0,0.0,0.0,0.0,0.0,0.0,0.0,0.0,0.0,0.0,0.0,0.0,-0.1058,-0.2203,-0.2956,-0.4037,-0.5118,-0.5963,-0.6502,-0.6839,-0.6899,-0.7448,-0.7872,-0.7872,-0.7872,-0.7872,-0.7872,-0.7872,-0.7872,-0.7872,-0.7872,-0.7872,-0.7872,-0.7872,-0.7872,-0.7872,-0.7872,-0.7872,-0.7872,-0.7872,-0.7993,-0.8114,-0.8225,-0.828,-0.8214,-0.8334,-0.8356,-0.8291,-0.8307,-0.8318,-0.8312,-0.8194,-0.8172,-0.8172,-0.8172,-0.8193,-0.8127,-0.8136,-0.8075,-0.8004,-0.7949,-0.7872,-0.7872,0.0,0.0,0.0,0.0,0.0,0.0,0.0,0.0,0.0,0.0,0.0,0.0,0.0,0.0,0.0,0.0,0.0,0.0,0.0,0.0,0.0,0.0,0.0,0.0,0.0,0.0,0.0,0.0,0.0,0.0,0.0,0.0,0.0,0.0,0.0,0.0511,0.1316,0.0413,0.0537,0.1315,0.0391,0.0,0.0,0.0,0.0,0.0,0.0,0.0,0.0,0.0,0.0,0.0,0.0,0.0,0.0,0.0,0.0,0.0,0.0,0.0,0.0,0.0,0.0,0.0,0.0,-0.1065,-0.2179,-0.2759,-0.3852,-0.4895,-0.5639,-0.6181,-0.6573,-0.673,-0.7345,-0.7818,-0.7861,-0.7872,-0.7872,-0.7872,-0.7872,-0.7872,-0.7872,-0.7872,-0.7872,-0.7872,-0.7872,-0.7872,-0.7872,-0.7872,-0.7877,-0.7955,-0.791,-0.7975,-0.8163,-0.8329,-0.8432,-0.8421,-0.8535,-0.8579,-0.8562,-0.8481,-0.8443,-0.8437,-0.8329,-0.828,-0.828,-0.828,-0.8274,-0.8247,-0.8127,-0.813,-0.8103,-0.7977,-0.7872,-0.7872,0.0,0.0,0.0,0.0,0.0,0.0,0.0,0.0,0.0,0.0,0.0,0.0,0.0,0.0,0.0,0.0,0.0,0.0,0.0,0.0,0.0,0.0,0.0,0.0,0.0,0.0,0.0,0.0,0.0,0.0,0.0,0.0,0.0,0.0,0.0,0.0089,0.0268,0.0092,0.0092,0.0272,0.0061,0.0,0.0,0.0,0.0,0.0,0.0,0.0,0.0,0.0,0.0,0.0,0.0,0.0,0.0,0.0,0.0,0.0,0.0,0.0,0.0,0.0,0.0,0.0,0.0,-0.1065,-0.2097,-0.2344,-0.3527,-0.4637,-0.4952,-0.5572,-0.6132,-0.6398,-0.6969,-0.7529,-0.7828,-0.7872,-0.7872,-0.7872,-0.7872,-0.7872,-0.7872,-0.7872,-0.7872,-0.7872,-0.7872,-0.7872,-0.7872,-0.7872,-0.7977,-0.8081,-0.8117,-0.8231,-0.8356,-0.8492,-0.8513,-0.8421,-0.8535,-0.8535,-0.8448,-0.8524,-0.8557,-0.8557,-0.8535,0.0,-0.8524,-0.8524,-0.847,-0.8372,-0.8253,-0.8144,-0.8103,-0.7977,-0.7872,-0.7872,0.0,0.0,0.0,0.0,0.0,0.0,0.0,0.0,0.0,0.0,0.0,0.0,0.0,0.0,0.0,0.0,0.0,0.0,0.0,0.0,0.0,0.0,0.0,0.0,0.0,0.0,0.0,0.0,0.0,0.0,0.0,0.0,0.0,0.0,0.0,0.0,0.0,0.0,0.0,0.0,0.0,0.0,0.0,0.0,0.0,0.0,0.0,0.0,0.0,0.0,0.0,0.0,0.0,0.0,0.0,0.0,0.0,0.0,0.0,0.0,0.0,0.0,0.0,0.0,0.0,-0.0475,-0.1199,-0.2033,-0.2871,-0.3738,-0.4577,-0.5328,-0.5888,-0.6121,-0.6768,-0.7323,-0.7562,-0.7752,-0.7872,-0.7872,-0.7872,-0.7872,-0.7872,-0.7872,-0.7872,-0.7872,-0.7872,-0.7872,-0.7872,-0.7993,-0.8054,-0.8114,-0.8236,-0.8361,-0.8416,-0.853,-0.8562,-0.8508,-0.8562,-0.8557,-0.8508,-0.8562,-0.859,-0.859,-0.859,-0.859,-0.859,-0.859,-0.8557,-0.8492,-0.8378,-0.8253,-0.8133,-0.8013,-0.7988,-0.7872,0.0,0.0,0.0,0.0,0.0,0.0,0.0,0.0,0.0,0.0,0.0,0.0,0.0,0.0,0.0,0.0,0.0,0.0,0.0,0.0,0.0,0.0,0.0,0.0,0.0,0.0,0.0,0.0,0.0,0.0,0.0,0.0,0.0,0.0,0.0,0.0,0.0,0.0,0.0,0.0,0.0,0.0,0.0,0.0,0.0,0.0,0.0,0.0,0.0,0.0,0.0,0.0,0.0,0.0,0.0,0.0,0.0,0.0,0.0,0.0,0.0,0.0,0.0,0.0,0.0,0.0,-0.042,-0.1792,-0.2289,-0.2864,-0.4193,-0.5039,-0.5561,-0.5638,-0.6401,-0.7051,-0.7244,-0.76,-0.7812,-0.7867,-0.7872,-0.7872,-0.7872,-0.7872,-0.7872,-0.7872,-0.7955,-0.7971,-0.7971,-0.8065,-0.8141,-0.8196,-0.8318,-0.8432,-0.8454,-0.8541,-0.859,-0.859,-0.859,-0.859,-0.859,-0.859,-0.859,-0.859,-0.859,-0.859,-0.859,-0.859,-0.859,-0.8579,-0.8459,-0.8345,-0.822,-0.81,-0.8037,-0.7872,0.0,0.0,0.0,0.0,0.0,0.0,0.0,0.0,0.0,0.0,0.0,0.0,0.0,0.0,0.0,0.0,0.0,0.0,0.0,0.0,0.0,0.0,0.0,0.0,0.0,0.0,0.0,0.0,0.0,0.0,0.0,0.0,0.0,0.0,0.0,0.0,0.0,0.0,0.0,0.0,0.0,0.0,0.0,0.0,0.0,0.0,0.0,0.0,0.0,0.0,0.0,0.0,0.0,0.0,0.0,0.0,0.0,0.0,0.0,0.0,0.0,0.0,0.0,0.0,0.0,0.0,-0.042,-0.1792,-0.2223,-0.2554,-0.3382,-0.4351,-0.5017,-0.4858,-0.5671,-0.6578,-0.7185,-0.7459,-0.7627,-0.7845,-0.7872,-0.7872,-0.7872,-0.7872,-0.7872,-0.7872,-0.8037,-0.8097,-0.8097,-0.8108,-0.8155,-0.8378,-0.8405,-0.847,-0.8568,-0.8584,-0.859,-0.859,-0.859,-0.859,-0.859,-0.859,-0.859,-0.859,-0.859,-0.859,0.0,-0.859,-0.859,-0.8579,-0.8459,-0.8345,-0.822,-0.81,-0.8037,-0.7872,0.0,0.0,0.0,0.0,0.0,0.0,0.0,0.0,0.0,0.0,0.0,0.0,0.0,0.0,0.0,0.0,0.0,0.0,0.0,0.0,0.0,0.0,0.0,0.0,0.0,0.0,0.0,0.0,0.0,0.0,0.0,0.0,0.0,0.0,0.0,0.0,0.0,0.0,0.0,0.0,0.0,0.0,0.0,0.0,0.0,0.0,0.0,0.0,0.0,0.0,0.0,0.0,0.0,0.0,0.0,0.0,0.0,0.0,0.0,0.0,0.0,0.0,0.0,0.0,0.0,0.0,-0.0394,-0.1809,-0.1885,-0.2036,-0.319,-0.381,-0.4192,-0.4338,-0.5245,-0.6094,-0.6524,-0.6937,-0.7258,-0.7478,-0.7568,-0.7714,-0.7856,-0.7872,-0.7872,-0.7872,-0.8048,-0.8147,-0.816,-0.8231,-0.8318,-0.8416,-0.8486,-0.8541,-0.859,-0.859,-0.859,-0.859,-0.859,-0.859,-0.859,-0.859,-0.859,-0.859,-0.859,-0.859,0.0,-0.859,-0.859,-0.8584,-0.8535,-0.8405,-0.8167,-0.8182,-0.804,-0.7872,0.0,0.0,0.0,0.0,0.0,0.0,0.0,0.0,0.0,0.0,0.0,0.0,0.0,0.0,0.0,0.0,0.0,0.0,0.0,0.0,0.0,0.0,0.0,0.0,0.0,0.0,0.0,0.0,0.0,0.0,0.0,0.0,0.0,0.0,0.0,0.0,0.0,0.0,0.0,0.0,0.0,0.0,0.0,0.0,0.0,0.0,0.0,0.0,0.0,0.0,0.0,0.0,0.0,0.0,0.0,0.0,0.0,0.0,0.0,0.0,0.0,0.0,0.0,0.0,0.0,0.0,-0.042,-0.1825,-0.1643,-0.1609,-0.2782,-0.3342,-0.3635,-0.3687,-0.4761,-0.5746,-0.6089,-0.6535,-0.6904,-0.7182,-0.7339,-0.7546,-0.7747,-0.7828,-0.7872,-0.7872,-0.8019,-0.8144,-0.8167,-0.8383,-0.847,-0.847,-0.8546,-0.859,-0.859,-0.859,-0.859,-0.859,-0.859,-0.859,-0.859,-0.859,-0.859,-0.859,-0.859,-0.859,0.0,-0.859,-0.859,-0.859,-0.859,-0.8443,-0.8172,-0.8172,-0.8079,-0.7872,0.0,0.0,0.0,0.0,0.0,0.0,0.0,0.0,0.0,0.0,0.0,0.0,0.0,0.0,0.0,0.0,0.0,0.0,0.0,0.0,0.0,0.0,0.0,0.0,0.0,0.0,0.0,0.0,0.0,0.0,0.0,0.0,0.0,0.0,0.0,0.0,0.0,0.0,0.0,0.0,0.0,0.0,0.0,0.0,0.0,0.0,0.0,0.0,0.0,0.0,0.0,0.0,0.0,0.0,0.0,0.0,0.0,0.0,0.0,0.0,0.0,0.0,0.0,0.0,0.0,0.0,-0.0379,-0.1793,-0.157,-0.1298,-0.1981,-0.2944,-0.3391,-0.2807,-0.4216,-0.5627,-0.6229,-0.6366,-0.6622,-0.7155,-0.7263,-0.7331,-0.7508,-0.7736,-0.7872,-0.7872,-0.8095,-0.8172,-0.8172,-0.8459,-0.8584,-0.8584,-0.859,-0.859,-0.859,-0.859,-0.859,-0.859,-0.859,-0.859,-0.859,-0.859,-0.859,-0.859,-0.859,-0.859,0.0,-0.859,-0.859,-0.859,-0.859,-0.8443,-0.8172,-0.8172,-0.8079,-0.7872,0.0,0.0,0.0,0.0,0.0,0.0,0.0,0.0,0.0,0.0,0.0,0.0,0.0,0.0,0.0,0.0,0.0,0.0,0.0,0.0,0.0,0.0,0.0,0.0,0.0,0.0,0.0,0.0,0.0,0.0,0.0,0.0,0.0,0.0,0.0,0.0,0.0,0.0,0.0,0.0,0.0,0.0,0.0,0.0,0.0,0.0,0.0,0.0,0.0,0.0,0.0,0.0,0.0,0.0,0.0,0.0,0.0,0.0,0.0,0.0,0.0,0.0,0.0,0.0,0.0,0.0,-0.0266,-0.1221,-0.085,-0.0566,-0.1299,-0.2058,-0.2677,-0.2991,-0.4382,-0.5594,-0.6072,-0.6458,-0.6741,-0.6893,-0.7383,-0.772,-0.7758,-0.7828,-0.7872,-0.7872,-0.8095,-0.8172,-0.8172,-0.8459,-0.859,-0.859,-0.859,-0.859,-0.859,-0.859,-0.859,-0.859,-0.859,-0.859,-0.859,-0.859,-0.859,-0.859,-0.859,-0.859,-0.859,-0.859,-0.859,-0.859,-0.859,-0.8443,-0.8172,-0.8172,-0.8079,-0.7872,0.0,0.0,0.0,0.0,0.0,0.0,0.0,0.0,0.0,0.0,0.0,0.0,0.0,0.0,0.0,0.0,0.0,0.0,0.0,0.0,0.0,0.0,0.0,0.0,0.0,0.0,0.0,0.0,0.0,0.0,0.0,0.0,0.0,0.0,0.0,0.0,0.0,0.0,0.0,0.0,0.0,0.0,0.0,0.0,0.0,0.0,0.0,0.0,0.0,0.0,0.0,0.0,0.0,0.0,0.0,0.0,0.0,0.0,0.0,0.0,0.0,0.0,0.0,0.0,0.0,0.0,-0.0218,-0.0963,-0.0511,-0.0233,-0.0973,-0.169,-0.2352,-0.2868,-0.4226,-0.5436,-0.6007,-0.6382,-0.6703,-0.697,-0.7437,-0.7758,-0.7801,-0.7845,-0.7872,-0.7872,-0.8095,-0.8172,-0.8172,-0.8459,-0.859,-0.859,-0.859,-0.859,-0.859,-0.859,-0.859,-0.859,-0.859,-0.859,-0.859,-0.859,-0.859,-0.859,-0.859,-0.859,0.0,-0.859,-0.859,-0.859,-0.859,-0.8443,-0.8172,-0.8172,-0.8079,-0.7872,0.0,0.0,0.0,0.0,0.0,0.0,0.0,0.0,0.0,0.0,0.0,0.0,0.0,0.0,0.0,0.0,0.0,0.0,0.0,0.0,0.0,0.0,0.0,0.0,0.0,0.0,0.0,0.0,0.0,0.0,0.0,0.0,0.0,0.0,0.0,0.0,0.0,0.0,0.0,0.0,0.0,0.0,0.0,0.0,0.0,0.0,0.0,0.0,0.0,0.0,0.0,0.0,0.0,0.0,0.0,0.0,0.0,0.0,0.0,0.0,0.0,0.0,0.0,0.0,0.0,-0.0039,0.0,-0.0906,-0.0523,-0.0271,-0.0908,-0.1718,-0.2352,-0.2492,-0.393,-0.5317,-0.6024,-0.6257,-0.6611,-0.729,-0.7475,-0.7589,-0.7703,-0.7807,-0.7872,-0.7872,-0.8095,-0.8172,-0.8172,-0.8459,-0.859,-0.859,-0.859,-0.859,-0.859,-0.859,-0.859,-0.859,-0.859,-0.859,-0.859,-0.859,-0.859,0.0,-0.859,-0.859,-0.859,-0.859,-0.859,-0.8584,-0.8579,-0.8437,-0.8172,-0.8225,-0.8073,-0.7872,0.0,0.0,0.0,0.0,0.0,0.0,0.0,0.0,0.0,0.0,0.0,0.0,0.0,0.0,0.0,0.0,0.0,0.0,0.0,0.0,0.0,0.0,0.0,0.0,0.0,0.0,0.0,0.0,0.0,0.0,0.0,0.0,0.0,0.0,0.0,0.0,0.0,0.0,0.0,0.0,0.0,0.0,0.0,0.0,0.0,0.0,0.0,0.0,0.0,0.0,0.0,0.0,0.0,0.0,0.0,0.0,0.0,0.0,0.0,0.0,0.0,0.0,0.0,0.0,0.0,-0.0434,-0.0738,-0.0345,-0.0567,-0.0732,-0.0321,-0.1382,-0.2411,-0.2808,-0.4368,-0.5739,-0.6404,-0.6915,-0.7355,-0.7703,-0.7769,-0.7801,-0.7828,-0.7856,-0.7872,-0.7872,-0.8095,-0.8172,-0.8172,-0.8459,-0.859,-0.859,-0.859,-0.859,-0.859,-0.859,-0.859,-0.859,-0.859,-0.859,-0.859,-0.859,-0.859,-0.859,-0.859,-0.859,-0.859,-0.859,-0.859,-0.8579,-0.8492,-0.8367,-0.8225,-0.8133,-0.8002,-0.7872,0.0,0.0,0.0,0.0,0.0,0.0,0.0,0.0,0.0,0.0,0.0,0.0,0.0,0.0,0.0,0.0,0.0,0.0,0.0,0.0,0.0,0.0,0.0,0.0,0.0,0.0,0.0,0.0,0.0,0.0,0.0,0.0,0.0,0.0,0.0,0.0,0.0,0.0,0.0,0.0,0.0,0.0,0.0,0.0,0.0,0.0,0.0,0.0,0.0,0.0,0.0,0.0,0.0,0.0,0.0,0.0,0.0,0.0,0.0,0.0,0.0,0.0,0.0,0.0,0.0,-0.031,-0.0472,-0.0067,-0.0333,-0.0603,-0.0602,-0.1691,-0.2812,-0.3409,-0.4907,-0.622,-0.6813,-0.7421,-0.779,-0.7861,-0.7982,-0.7993,-0.7877,-0.7872,-0.7872,-0.7872,-0.8095,-0.8172,-0.8172,-0.8459,-0.859,-0.859,-0.859,-0.859,-0.859,-0.859,-0.859,-0.859,-0.859,-0.859,-0.859,-0.859,-0.859,-0.859,-0.859,-0.859,-0.859,-0.859,-0.859,-0.8584,-0.8519,-0.8388,-0.8225,-0.816,-0.8024,-0.7872,0.0,0.0,0.0,0.0,0.0,0.0,0.0,0.0,0.0,0.0,0.0,0.0,0.0,0.0,0.0,0.0,0.0,0.0,0.0,0.0,0.0,0.0,0.0,0.0,0.0,0.0,0.0,0.0,0.0,0.0,0.0,0.0,0.0,0.0,0.0,0.0,0.0,0.0,0.0,0.0,0.0,0.0,0.0,0.0,0.0,0.0,0.0,0.0,0.0,0.0,0.0,0.0,0.0,0.0,0.0,0.0,0.0,0.0,0.0,0.0,0.0,0.0,0.0,0.0,0.0,-0.0102,-0.0133,-0.0034,-0.0102,-0.0415,-0.1267,-0.2291,-0.3285,-0.4122,-0.5534,-0.6694,-0.7234,-0.7747,-0.8048,-0.7883,-0.8026,-0.8048,-0.7883,-0.7872,-0.7872,-0.7872,-0.8095,-0.8172,-0.8172,-0.8459,-0.859,-0.859,-0.859,-0.859,-0.859,-0.859,-0.859,-0.859,-0.859,-0.859,-0.859,-0.859,-0.859,-0.859,0.0,0.0,-0.859,-0.859,-0.859,-0.8584,-0.8568,-0.8426,-0.8167,-0.8214,-0.8062,-0.7872,0.0,0.0,0.0,0.0,0.0,0.0,0.0,0.0,0.0,0.0,0.0,0.0,0.0,0.0,0.0,0.0,0.0,0.0,0.0,0.0,0.0,0.0,0.0,0.0,0.0,0.0,0.0,0.0,0.0,0.0,0.0,0.0,0.0,0.0,0.0,0.0,0.0,0.0,0.0,0.0,0.0,0.0,0.0,0.0,0.0,0.0,0.0,0.0,0.0,0.0,0.0,0.0,0.0,0.0,0.0,0.0,0.0,0.0,0.0,0.0,0.0,0.0,0.0,0.0,0.0,-0.0497,-0.0767,-0.0141,-0.0497,-0.1125,-0.178,-0.2505,-0.3439,-0.481,-0.618,-0.7149,-0.7448,-0.7725,-0.7955,-0.7872,-0.7888,-0.7955,-0.7872,-0.7872,-0.7872,-0.7872,-0.8095,-0.8172,-0.8172,-0.8459,-0.859,-0.859,-0.859,-0.859,-0.859,-0.859,-0.859,-0.859,-0.859,-0.859,-0.859,-0.859,-0.859,-0.859,0.0,-0.859,-0.859,-0.859,-0.859,-0.8579,-0.8481,-0.8361,-0.822,-0.8122,-0.8054,-0.7872,0.0,0.0,0.0,0.0,0.0,0.0,0.0,0.0,0.0,0.0,0.0,0.0,0.0,0.0,0.0,0.0,0.0,0.0,0.0,0.0,0.0,0.0,0.0,0.0,0.0,0.0,0.0,0.0,0.0,0.0,0.0,0.0,0.0,0.0,0.0,0.0,0.0,0.0,0.0,0.0,0.0,0.0,0.0,0.0,0.0,0.0,0.0,0.0,0.0,0.0,0.0,0.0,0.0,0.0,0.0,0.0,0.0,0.0,0.0,0.0,0.0,0.0,0.0,0.0,0.0,-0.0251,-0.0418,-0.008,-0.028,-0.0951,-0.2377,-0.3129,-0.4193,-0.6311,-0.7039,-0.7437,-0.7676,-0.7861,-0.801,-0.7877,-0.7993,-0.8004,-0.7877,-0.7872,-0.7872,-0.7872,-0.8095,-0.8172,-0.8172,-0.8459,-0.859,-0.859,-0.859,-0.859,-0.859,-0.859,-0.859,-0.859,-0.859,-0.859,-0.859,-0.859,-0.859,-0.859,0.0,-0.859,-0.859,-0.859,-0.859,-0.8584,-0.853,-0.8437,-0.8312,-0.8122,-0.8037,-0.7872,0.0,0.0,0.0,0.0,0.0,0.0,0.0,0.0,0.0,0.0,0.0,0.0,0.0,0.0,0.0,0.0,0.0,0.0,0.0,0.0,0.0,0.0,0.0,0.0,0.0,0.0,0.0,0.0,0.0,0.0,0.0,0.0,0.0,0.0,0.0,0.0,0.0,0.0,0.0,0.0,0.0,0.0,0.0,0.0,0.0,0.0,0.0,0.0,0.0,0.0,0.0,0.0,0.0,0.0,0.0,0.0,0.0,0.0,0.0,0.0,0.0,0.0,0.0,0.0,0.0,0.0,-0.0092,-0.0407,-0.0451,-0.1143,-0.3388,-0.4347,-0.5439,-0.7492,-0.7682,-0.7665,-0.7845,-0.8015,-0.8037,-0.7883,-0.8015,-0.8037,-0.7939,-0.7872,-0.7872,-0.7872,-0.8095,-0.8172,-0.8172,-0.8459,-0.859,-0.859,-0.859,-0.859,-0.859,-0.859,-0.859,-0.859,-0.859,-0.859,-0.859,-0.859,-0.859,-0.859,-0.859,-0.859,-0.859,-0.859,-0.859,-0.859,-0.859,-0.8503,-0.835,-0.8133,-0.8037,-0.7872,0.0,0.0,0.0,0.0,0.0,0.0,0.0,0.0,0.0,0.0,0.0,0.0,0.0,0.0,0.0,0.0,0.0,0.0,0.0,0.0,0.0,0.0,0.0,0.0,0.0,0.0,0.0,0.0,0.0,0.0,0.0,0.0,0.0,0.0,0.0,0.0,0.0,0.0,0.0,0.0,0.0,0.0,0.0,0.0,0.0,0.0,0.0,0.0,0.0,0.0,0.0,0.0,0.0,0.0,0.0,0.0,0.0,0.0,0.0,0.0,0.0,0.0,0.0,0.0,0.0,0.0,-0.0368,-0.1576,-0.1847,-0.2587,-0.5079,-0.6549,-0.7477,-0.7493,-0.7714,-0.785,-0.7867,-0.7877,-0.7883,-0.7872,-0.7877,-0.7883,-0.7872,-0.7872,-0.7872,-0.7872,-0.8095,-0.8172,-0.8172,-0.8459,-0.859,-0.859,-0.859,-0.859,-0.859,-0.859,-0.859,-0.859,-0.859,-0.859,-0.859,-0.859,-0.859,-0.859,-0.859,-0.859,-0.859,-0.859,-0.859,-0.859,-0.859,-0.8448,-0.8231,-0.81,-0.8037,-0.7872,0.0,0.0,0.0,0.0,0.0,0.0,0.0,0.0,0.0,0.0,0.0,0.0,0.0,0.0,0.0,0.0,0.0,0.0,0.0,0.0,0.0,0.0,0.0,0.0,0.0,0.0,0.0,0.0,0.0,0.0,0.0,0.0,0.0,0.0,0.0,0.0,0.0,0.0,0.0,0.0,0.0,0.0,0.0,0.0,0.0,0.0,0.0,0.0,0.0,0.0,0.0,0.0,0.0,0.0,0.0,0.0,0.0,0.0,0.0,0.0,0.0,0.0,0.0,0.0,0.0,0.0,-0.0162,-0.0665,-0.1436,-0.2745,-0.5253,-0.6836,-0.7769,-0.7649,-0.7769,-0.7872,-0.7872,-0.7872,-0.7872,-0.7872,-0.7872,-0.7872,-0.7872,-0.7872,-0.7872,-0.7872,-0.8024,-0.8155,-0.8167,-0.8394,-0.8513,-0.8584,-0.859,-0.859,-0.859,-0.859,-0.859,-0.859,-0.859,-0.859,-0.859,-0.859,-0.859,-0.859,-0.859,-0.859,-0.859,-0.859,-0.859,-0.859,-0.859,-0.8443,-0.8167,-0.8182,-0.804,-0.7872,0.0,0.0,0.0,0.0,0.0,0.0,0.0,0.0,0.0,0.0,0.0,0.0,0.0,0.0,0.0,0.0,0.0,0.0,0.0,0.0,0.0,0.0,0.0,0.0,0.0,0.0,0.0,0.0,0.0,0.0,0.0,0.0,0.0,0.0,0.0,0.0,0.0,0.0,0.0,0.0,0.0,0.0,0.0,0.0,0.0,0.0,0.0,0.0,0.0,0.0,0.0,0.0,0.0,0.0,0.0,0.0,0.0,0.0,0.0,0.0,0.0,0.0,0.0,0.0,0.0,0.0,-0.0115,-0.0535,-0.1937,-0.3747,-0.5956,-0.7151,-0.7747,-0.7709,-0.7796,-0.7872,-0.7872,-0.7872,-0.7872,-0.7872,-0.7872,-0.7872,-0.7872,-0.7872,-0.7872,-0.7872,-0.8019,-0.8149,-0.8167,-0.8383,-0.8508,-0.8584,-0.859,-0.859,-0.859,-0.859,-0.859,-0.859,-0.859,-0.859,-0.859,-0.859,-0.859,-0.859,-0.859,-0.859,-0.859,-0.859,-0.859,-0.859,-0.859,-0.8465,-0.8291,-0.8291,-0.8138,-0.7988,0.0,0.0,0.0,0.0,0.0,0.0,0.0,0.0,0.0,0.0,0.0,0.0,0.0,0.0,0.0,0.0,0.0,0.0,0.0,0.0,0.0,0.0,0.0,0.0,0.0,0.0,0.0,0.0,0.0,0.0,0.0,0.0,0.0,0.0,0.0,0.0,0.0,0.0,0.0,0.0,0.0,0.0,0.0,0.0,0.0,0.0,0.0,0.0,0.0,0.0,0.0,0.0,0.0,0.0,0.0,0.0,0.0,0.0,0.0,0.0,0.0,0.0,0.0,0.0,0.0,0.0,-0.0385,-0.1694,-0.3845,-0.5957,-0.7438,-0.7606,-0.7562,-0.7682,-0.7796,-0.7872,-0.7872,-0.7872,-0.7872,-0.7872,-0.7872,-0.7872,-0.7872,-0.7872,-0.7872,-0.7872,-0.8095,-0.8167,-0.8172,-0.8454,-0.8584,-0.859,-0.859,-0.859,-0.859,-0.859,-0.859,-0.859,-0.859,-0.859,-0.859,-0.859,-0.859,-0.859,-0.859,-0.859,-0.859,-0.859,-0.859,-0.859,-0.859,-0.8519,-0.8416,-0.8416,-0.8263,-0.8114,0.0,0.0,0.0,0.0,0.0,0.0,0.0,0.0,0.0,0.0,0.0,0.0,0.0,0.0,0.0,0.0,0.0,0.0,0.0,0.0,0.0,0.0,0.0,0.0,0.0,0.0,0.0,0.0,0.0,0.0,0.0,0.0,0.0,0.0,0.0,0.0,0.0,0.0,0.0,0.0,0.0,0.0,0.0,0.0,0.0,0.0,0.0,0.0,0.0,0.0,0.0,0.0,0.0,0.0,0.0,0.0,0.0,0.0,0.0,0.0,0.0,0.0,0.0,0.0,0.0,0.0,-0.0407,-0.1709,-0.3239,-0.4784,-0.6077,-0.713,-0.7752,-0.7709,-0.7796,-0.7872,-0.7872,-0.7872,-0.7872,-0.7872,-0.7872,-0.7872,-0.7872,-0.7872,-0.7872,-0.7872,-0.7937,-0.8057,-0.8161,-0.8301,-0.8416,-0.8584,-0.859,-0.859,-0.859,-0.859,-0.859,-0.859,-0.859,-0.859,-0.859,-0.859,-0.859,-0.859,-0.859,-0.859,-0.859,-0.859,-0.859,-0.859,-0.859,-0.8519,-0.8416,-0.8416,-0.8263,-0.8114,0.0,0.0,0.0,0.0,0.0,0.0,0.0,0.0,0.0,0.0,0.0067,0.0101,0.0,0.0,0.0,0.0,0.0,0.0,0.0,0.0,0.0,0.0,0.0,0.0,0.0,0.0,0.0,0.0,0.0,0.0,0.0,0.0,0.0,0.0,0.0,0.0,0.0,0.0,0.0,0.0,0.0,0.0,0.0,0.0,0.0,0.0,0.0,0.0,0.0,0.0,0.0,0.0,0.0,0.0,0.0,0.0,0.0,0.0,0.0,0.0,0.0,0.0,0.0,0.0,0.0,0.0,-0.0362,-0.172,-0.3003,-0.4261,-0.5524,-0.6873,-0.7796,-0.7774,-0.7823,-0.7872,-0.7872,-0.7872,-0.7872,-0.7872,-0.7872,-0.7872,-0.7872,-0.7872,-0.7872,-0.7872,-0.7977,-0.803,-0.8161,-0.828,-0.8394,-0.8584,-0.859,-0.859,-0.859,-0.859,-0.859,-0.859,-0.859,-0.859,-0.859,-0.859,-0.859,-0.859,-0.859,-0.859,-0.859,-0.859,-0.859,-0.859,-0.859,-0.8546,-0.8486,-0.8486,-0.8334,-0.8127,0.0,0.0,0.0,0.0,0.0,0.0,0.0,0.0,0.0,0.0034,0.0169,0.0202,0.0,0.0,0.0,0.0,0.0,0.0,0.0,0.0,0.0,0.0,0.0,0.0,0.0,0.0,0.0,0.0,0.0,0.0,0.0,0.0,0.0,0.0,0.0,0.0,0.0,0.0,0.0,0.0,0.0,0.0,0.0,0.0,0.0,0.0,0.0,0.0,0.0,0.0,0.0,0.0,0.0,0.0,0.0,0.0,0.0,0.0,0.0,0.0,0.0,0.0,0.0,0.0,0.0,0.0,-0.037,-0.1541,-0.2863,-0.4174,-0.546,-0.6812,-0.7752,-0.7856,-0.7872,-0.7872,-0.7872,-0.7872,-0.7872,-0.7872,-0.7872,-0.7872,-0.7872,-0.7872,-0.7872,-0.7872,-0.8037,-0.8089,-0.8214,-0.8334,-0.8454,-0.8568,-0.8584,-0.859,-0.859,-0.859,-0.859,-0.859,-0.859,-0.859,-0.859,-0.859,-0.859,-0.859,-0.859,-0.859,-0.859,-0.859,-0.859,-0.859,-0.859,-0.859,-0.859,-0.859,-0.8437,-0.8172,0.0,0.0,0.0,0.0,0.0,0.0,0.0,0.0,0.0034,0.0,0.0034,0.0034,0.0,0.0,0.0,0.0,0.0,0.0,0.0,0.0,0.0,0.0,0.0,0.0,0.0,0.0,0.0,0.0,0.0,0.0,0.0,0.0,0.0,0.0,0.0,0.0,0.0,0.0,0.0,0.0,0.0,0.0,0.0,0.0,0.0,0.0,0.0,0.0,0.0,0.0,0.0,0.0,0.0,0.0,0.0,0.0,0.0,0.0,0.0,0.0,0.0,0.0,0.0,0.0,0.0,0.0,-0.0062,-0.037,-0.2273,-0.3982,-0.4303,-0.6254,-0.7845,-0.7867,-0.7872,-0.7872,-0.7872,-0.7872,-0.7872,-0.7872,-0.7872,-0.7872,-0.7872,-0.7872,-0.7872,-0.7872,-0.7955,-0.8026,-0.8084,-0.8209,-0.8329,-0.8448,-0.8541,-0.859,-0.859,-0.859,-0.859,0.0,-0.859,-0.859,-0.859,-0.859,-0.859,-0.859,-0.859,-0.859,-0.859,-0.859,-0.859,-0.859,-0.859,-0.859,-0.859,-0.859,-0.8437,-0.8172,0.0,0.0,0.0,0.0,0.0,0.0,0.0,0.0,0.0337,0.0236,0.0236,0.0236,0.0236,0.0169,0.0,0.0,0.0135,0.0101,0.0,0.0,0.0,0.0,0.0,0.0,0.0,0.0,0.0,0.0,0.0,0.0,0.0,0.0,0.0,0.0,0.0,0.0,0.0,0.0,0.0,0.0,0.0,0.0,0.0,0.0,0.0,0.0,0.0,0.0,0.0,0.0,0.0,0.0,0.0,0.0,0.0,0.0,0.0,0.0,0.0,0.0,0.0,0.0,0.0,0.0,0.0,0.0,0.0,0.0,-0.1603,-0.3018,-0.3018,-0.5168,-0.695,-0.695,-0.75,-0.7872,-0.7872,-0.7872,-0.7872,-0.7872,-0.7872,-0.7872,-0.7872,-0.7872,-0.7872,-0.7872,-0.7872,-0.7988,-0.8108,-0.8111,-0.8231,-0.841,-0.8475,-0.853,-0.859,-0.859,-0.859,-0.859,-0.859,-0.859,-0.859,-0.859,-0.859,-0.859,-0.859,-0.859,-0.859,-0.859,-0.859,-0.859,-0.859,-0.859,-0.859,-0.859,-0.8437,-0.8172,0.0,0.0,0.0,0.0,0.0,0.0,0.0,0.0,0.0,0.0506,0.0506,0.0506,0.0472,0.0371,0.027,0.0,0.0,0.0,0.0,0.0,0.0,0.0,0.0,0.0,0.0,0.0,0.0,0.0,0.0,0.0,0.0,0.0,0.0,0.0,0.0,0.0,0.0,0.0,0.0,0.0,0.0,0.0,0.0,0.0,0.0,0.0,0.0,0.0,0.0,0.0,0.0,0.0,0.0,0.0,0.0,0.0,0.0,0.0,0.0,0.0,0.0,0.0,0.0,0.0,0.0,0.0,0.0,0.0,-0.1049,-0.1973,-0.1973,-0.4125,-0.5908,-0.5908,-0.7011,-0.7872,-0.7872,-0.7872,-0.7872,-0.7872,-0.7872,-0.7872,-0.7872,-0.7872,-0.7872,-0.7872,-0.7872,-0.7977,-0.8081,-0.8103,-0.8155,-0.8378,-0.8405,-0.8475,-0.8584,-0.859,-0.859,-0.859,-0.859,-0.859,-0.859,-0.859,-0.859,-0.859,-0.859,-0.859,-0.859,-0.859,-0.859,-0.859,-0.859,-0.859,-0.859,-0.859,-0.8437,-0.8172,0.0,0.0,0.0,0.0,0.0,0.0,0.0,0.0,0.0,0.0,0.0506,0.0472,0.0337,0.0303,0.0236,0.0067,0.0034,0.0034,0.0,0.0,0.0,0.0,0.0,0.0,0.0,0.0,0.0,0.0,0.0,0.0,0.0,0.0,0.0,0.0,0.0,0.0,0.0,0.0,0.0,0.0,0.0,0.0,0.0,0.0,0.0,0.0,0.0,0.0,0.0,0.0,0.0,0.0,0.0,0.0,0.0,0.0,0.0,0.0,0.0,0.0,0.0,0.0,0.0,0.0,0.0,0.0,0.0,0.0,-0.1049,-0.1973,-0.1973,-0.4125,-0.5908,-0.5908,-0.7011,-0.7872,-0.7872,-0.7872,-0.7872,-0.7872,-0.7872,-0.7872,-0.7872,-0.7872,-0.7872,-0.7872,-0.7872,-0.7877,-0.7955,-0.8059,-0.8117,-0.8253,-0.8361,-0.8475,-0.8584,-0.859,-0.859,-0.859,-0.859,-0.859,-0.859,-0.859,-0.859,-0.859,-0.859,-0.859,-0.859,-0.859,-0.859,-0.859,-0.859,-0.859,-0.859,-0.859,-0.8437,-0.8172,0.0,0.0,0.0,0.0,0.0,0.0,0.0,0.0,0.0,0.0,0.0,0.0674,0.074,0.064,0.0502,0.0296,0.0267,0.0202,0.0,0.0,0.0,0.0,0.0,0.0,0.0,0.0,0.0,0.0,0.0,0.0,0.0,0.0,0.0,0.0,0.0,0.0,0.0,0.0,0.0,0.0,0.0,0.0,0.0,0.0,0.0,0.0,0.0,0.0,0.0,0.0,0.0,0.0,0.0,0.0,0.0,0.0,0.0,0.0,0.0,0.0,0.0,0.0,0.0,0.0,0.0,0.0,0.0,0.0,-0.0494,-0.0864,-0.0864,-0.2402,-0.394,-0.4674,-0.5904,-0.7011,-0.7811,-0.7872,-0.7872,-0.7872,-0.7872,-0.7872,-0.7872,-0.7872,-0.7872,-0.7872,-0.7872,-0.7872,-0.7872,-0.7982,-0.804,-0.8167,-0.8285,-0.8405,-0.8584,-0.859,-0.859,-0.859,-0.859,-0.859,-0.859,-0.859,-0.859,-0.859,-0.859,-0.859,-0.859,-0.859,-0.859,-0.859,-0.859,-0.859,-0.859,-0.859,-0.8481,-0.8339,0.0,0.0,0.0,0.0,0.0,0.0,0.0,0.0,0.0,0.0,0.0,0.0909,0.101,0.0,0.0,0.0,0.0393,0.0264,0.0,0.0,0.0,0.0,0.0033,0.0033,0.0,0.0031,0.0031,0.0,0.0,0.0,0.0,0.0,0.0,0.0,0.0,0.0,0.0,0.0,0.0,0.0,0.0,0.0,0.0,0.0,0.0,0.0,0.0,0.0,0.0,0.0,0.0,0.0,0.0,0.0,0.0,0.0,0.0,0.0,0.0,0.0,0.0,0.0,0.0,0.0,0.0,0.0,0.0,0.0,0.0,0.0,0.0,-0.1111,-0.2281,-0.3262,-0.48,-0.6276,-0.7255,-0.7689,-0.7872,-0.7872,-0.7872,-0.7872,-0.7872,-0.7872,-0.7872,-0.7872,-0.7872,-0.7872,-0.7872,-0.7872,-0.7981,-0.8161,-0.8172,-0.835,-0.8584,-0.859,-0.859,-0.859,-0.859,-0.859,-0.859,-0.859,-0.859,-0.859,-0.859,-0.859,-0.859,-0.859,-0.859,-0.859,-0.859,-0.859,-0.859,-0.859,-0.8513,-0.8416,0.0,0.0,0.0,0.0,0.0,0.0,0.0,0.0,0.0,0.0,0.0,0.101,0.0843,0.0625,0.0453,0.0323,0.0126,0.0031,0.0,0.0,0.0,0.0,0.0126,0.0,0.0,0.012,0.012,0.0,0.0,0.0,0.0,0.0,0.0,0.0,0.0,0.0,0.0,0.0,0.0,0.0,0.0,0.0,0.0,0.0,0.0,0.0,0.0,0.0,0.0,0.0,0.0,0.0,0.0,0.0,0.0,0.0,0.0,0.0,0.0,0.0,0.0,0.0,0.0,0.0,0.0,0.0,0.0,0.0,0.0,0.0,0.0,-0.1111,-0.2034,-0.2096,-0.4247,-0.5908,-0.597,-0.7072,-0.7872,-0.7872,-0.7872,-0.7872,-0.7872,-0.7872,-0.7872,-0.7872,-0.7872,-0.7872,-0.7872,-0.7872,-0.7981,-0.8161,-0.8172,-0.835,-0.8584,-0.859,-0.859,-0.859,-0.859,-0.859,-0.859,-0.859,-0.859,-0.859,-0.859,-0.859,-0.859,-0.859,-0.859,-0.859,-0.859,-0.859,-0.859,-0.859,-0.8513,-0.8416,0.0,0.0,0.0,0.0,0.0,0.0,0.0,0.0,0.0,0.0,0.0,0.0,0.0,0.0878,0.0763,0.0581,0.0302,0.0121,0.0123,0.0125,0.0157,0.0251,0.0311,0.0306,0.027,0.0296,0.0267,0.012,0.0124,0.0068,0.0,0.0,0.0,0.0,0.0,0.0,0.0,0.0,0.0,0.0,0.0,0.0,0.0,0.0,0.0,0.0,0.0,0.0,0.0,0.0,0.0,0.0,0.0,0.0,0.0,0.0,0.0,0.0,0.0,0.0,0.0,0.0,0.0,0.0,0.0,0.0,0.0,0.0,0.0,0.0,0.0,-0.037,-0.0987,-0.1849,-0.3448,-0.492,-0.5786,-0.7072,-0.7872,-0.7872,-0.7872,-0.7872,-0.7872,-0.7872,-0.7872,-0.7872,-0.7872,-0.7872,-0.7872,-0.7872,-0.7948,-0.8111,-0.8193,-0.835,-0.8584,-0.859,-0.859,-0.859,-0.859,-0.859,-0.859,-0.859,-0.859,-0.859,-0.859,-0.859,-0.859,-0.859,-0.859,-0.859,-0.859,-0.859,-0.8717,-0.9649,-0.9949,-1.0037,0.0,0.0,0.0,0.0,0.0,0.0,0.0,0.0,0.0975,0.0985,0.0,0.0,0.0,0.0,0.0725,0.0474,0.0268,0.012,0.012,0.0121,0.0182,0.0273,0.0301,0.0298,0.0265,0.0317,0.0259,0.0147,0.012,0.0098,0.0,0.0,0.0,0.0,0.0,0.0,0.0,0.0,0.0,0.0,0.0,0.0,0.0,0.0,0.0,0.0,0.0,0.0,0.0,0.0,0.0,0.0,0.0,0.0,0.0,0.0,0.0,0.0,0.0,0.0,0.0,0.0,0.0,0.0,0.0,0.0,0.0,0.0,0.0,0.0,0.0,0.0,-0.0309,-0.1172,-0.2402,-0.3569,-0.4493,-0.6088,-0.7255,-0.7255,-0.7627,-0.7872,-0.7872,-0.7872,-0.7872,0.0,0.0,0.0,-0.7872,-0.7872,-0.7943,-0.8111,-0.8231,-0.8388,-0.8584,-0.859,-0.859,-0.859,-0.859,-0.859,-0.859,-0.859,-0.859,-0.859,-0.859,-0.859,-0.859,-0.859,-0.859,-0.859,-0.859,-0.859,-0.8784,-1.0174,-1.0704,-1.0902,0.0,0.0,0.0,0.0,0.0,0.0,0.0,0.0,0.0926,0.0986,0.0,0.0,0.0,0.0,0.0,0.003,0.0,0.0,0.0,0.0,0.0,0.0,0.0143,0.0142,0.0,0.0138,0.0138,0.0,0.0,0.0,0.0,0.0,0.0,0.0,0.0,0.0,0.0,0.0,0.0,0.0,0.0,0.0,0.0,0.0,0.0,0.0,0.0,0.0,0.0,0.0,0.0,0.0,0.0,0.0,0.0,0.0,0.0,0.0,0.0,0.0,0.0,0.0,0.0,0.0,0.0,0.0,0.0,0.0,0.0,0.0,0.0,0.0,0.0,0.0,-0.1111,-0.2034,-0.2034,-0.4247,-0.5908,-0.597,-0.7133,-0.7872,-0.7872,0.0,0.0,0.0,-0.7872,-0.7872,-0.7872,-0.7872,-0.7986,-0.8161,-0.8356,-0.8475,-0.8584,-0.859,-0.859,-0.859,-0.859,-0.859,-0.859,-0.859,-0.859,-0.859,-0.859,-0.859,-0.859,-0.859,-0.859,-0.859,-0.859,-0.859,-0.8784,-1.024,-1.077,-1.0969,0.0,0.0,0.0,0.0,0.0,0.0969,0.0979,0.0901,0.0822,0.0,0.0,0.0,0.1472,0.1319,0.0926,0.0195,0.0161,0.0156,0.0146,0.0143,0.0199,0.0284,0.0338,0.0338,0.0284,0.0335,0.0276,0.0137,0.014,0.0088,0.0,0.0,0.0,0.0,0.0,0.0,0.0,0.0,0.0,0.0,0.0,0.0,0.0,0.0,0.0,0.0,0.0,0.0,0.0,0.0,0.0,0.0,0.0,0.0,0.0,0.0,0.0,0.0,0.0,0.0,0.0,0.0,0.0,0.0,0.0,0.0,0.0,0.0,0.0,0.0,0.0,0.0,0.0,0.0,-0.1111,-0.2342,-0.3262,-0.4862,-0.6276,-0.7255,-0.7689,0.0,0.0,0.0,0.0,0.0,-0.7872,-0.7872,-0.7872,-0.8015,-0.8073,-0.8167,-0.8356,-0.8475,-0.8584,-0.859,-0.859,-0.859,-0.859,-0.859,-0.859,-0.859,-0.859,-0.859,-0.859,-0.859,-0.859,-0.859,-0.859,-0.859,-0.859,-0.859,-0.8917,-1.1285,-1.2208,-1.2602,0.0,0.0,0.0992,0.1005,0.1009,0.1026,0.1029,0.115,0.117,0.0,0.0,0.0,0.1122,0.104,0.0761,0.017,0.0101,0.0129,0.0118,0.0116,0.0142,0.0224,0.0224,0.0226,0.0229,0.0223,0.0191,0.0109,0.0109,0.0082,0.0,0.0,0.0,0.0,0.0,0.0,0.0,0.0,0.0,0.0,0.0,0.0,0.0,0.0,0.0,0.0,0.0,0.0,0.0,0.0,0.0,0.0,0.0,0.0,0.0,0.0,0.0,0.0,0.0,0.0,0.0,0.0,0.0,0.0,0.0,0.0,0.0,0.0,0.0,0.0,0.0,0.0,0.0,0.0,-0.0679,-0.1418,-0.2156,-0.3876,-0.5349,-0.6145,0.0,0.0,0.0,-0.7872,-0.7872,-0.7872,-0.7872,-0.7872,-0.7872,-0.8048,-0.8111,-0.8167,-0.8356,-0.8475,-0.8584,-0.859,-0.859,-0.859,-0.859,-0.859,-0.859,-0.859,-0.859,-0.859,-0.859,-0.859,-0.859,-0.859,-0.859,-0.859,-0.859,-0.859,-0.8851,-1.1094,-1.2274,-1.3128,0.0,0.0,0.1005,0.1009,0.1063,0.1129,0.1108,0.1513,0.1642,0.0,0.1404,0.1344,0.0599,0.0443,0.0321,0.007,0.0,0.0,0.0,0.0,0.0,0.0,0.0,0.0,0.0,0.0,0.0,0.0,0.0,0.0,0.0,0.0,0.0,0.0,0.0,0.0,0.0,0.0,0.0,0.0,0.0,0.0,0.0,0.0,0.0,0.0,0.0,0.0,0.0,0.0,0.0,0.0,0.0,0.0,0.0,0.0,0.0,0.0,0.0,0.0,0.0,0.0,0.0,0.0,0.0,0.0,0.0,0.0,0.0,0.0,0.0,0.0,0.0,0.0,0.0,-0.0061,-0.0185,-0.2218,-0.3815,0.0,0.0,0.0,-0.7872,-0.7872,-0.7872,-0.7872,-0.7872,-0.7872,-0.7872,-0.8048,-0.8111,-0.8167,-0.8356,-0.8475,-0.8584,-0.859,-0.859,-0.859,-0.859,-0.859,-0.859,-0.859,-0.859,-0.859,-0.859,-0.859,-0.859,-0.859,-0.859,-0.859,-0.859,-0.859,-0.8784,-1.0174,-1.149,-1.28,0.098,0.1003,0.105,0.1127,0.1227,0.1245,0.1248,0.1199,0.1156,0.1097,0.1541,0.1835,0.1756,0.1476,0.0999,0.0365,0.0114,0.0,0.0,0.0,0.0,0.0,0.0,0.0,0.0,0.0,0.0,0.0,0.0,0.0,0.0,0.0,0.0,0.0,0.0,0.0,0.0,0.0,0.0,0.0,0.0,0.0,0.0,0.0,0.0,0.0,0.0,0.0,0.0,0.0,0.0,0.0,0.0,0.0,0.0,0.0,0.0,0.0,0.0,0.0,0.0,0.0,0.0,0.0,0.0,0.0,0.0,0.0,0.0,0.0,0.0,0.0,0.0,0.0,0.0,-0.0349,-0.1469,-0.2034,-0.3141,0.0,0.0,0.0,-0.7811,-0.7872,-0.7872,-0.7872,-0.7872,-0.7872,-0.7872,-0.8048,-0.8111,-0.8167,-0.8356,-0.8475,-0.8584,-0.859,-0.859,-0.859,-0.859,-0.859,-0.859,-0.859,-0.859,-0.859,-0.859,-0.859,-0.859,-0.859,-0.859,-0.859,-0.859,-0.859,-0.8784,-1.0174,-1.0902,-1.1292,0.098,0.1035,0.1088,0.123,0.1262,0.1322,0.1339,0.1521,0.157,0.1324,0.1453,0.1527,0.1479,0.1225,0.0914,0.0443,0.023,0.0142,0.0095,0.0031,0.003,0.0084,0.0029,0.0,0.0,0.0,0.0,0.0,0.0,0.0,0.0,0.0,0.0,0.0,0.0,0.0,0.0,0.0,0.0,0.0,0.0,0.0,0.0,0.0,0.0,0.0,0.0,0.0,0.0,0.0,0.0,0.0,0.0,0.0,0.0,0.0,0.0,0.0,0.0,0.0,0.0,0.0,0.0,0.0,0.0,0.0,0.0,0.0,0.0,0.0,0.0,0.0,0.0,0.0,0.0,-0.0222,-0.0896,-0.1601,-0.2466,0.0,0.0,0.0,-0.6827,-0.75,-0.7872,-0.7872,-0.7872,-0.7872,-0.7872,-0.8048,-0.8111,-0.8167,-0.8356,-0.8475,-0.8584,-0.859,-0.859,-0.859,-0.859,-0.859,-0.859,-0.859,-0.859,-0.859,-0.859,-0.859,-0.859,-0.859,-0.859,-0.859,-0.859,-0.859,-0.8651,-0.9383,-1.0107,-1.077,0.0975,0.1065,0.1154,0.1268,0.1309,0.1331,0.1383,0.1825,0.1993,0.159,0.1326,0.1147,0.0899,0.0721,0.0559,0.0413,0.0322,0.0228,0.0165,0.0065,0.0063,0.0151,0.0058,0.0,0.0,0.0,0.0,0.0,0.0026,0.0024,0.0022,0.0024,0.0027,0.0031,0.0,0.0,0.0,0.0,0.0,0.0,0.0,0.0,0.0,0.0,0.0,0.0,0.0,0.0,0.0,0.0,0.0,0.0,0.0,0.0,0.0,0.0,0.0,0.0,0.0,0.0,0.0,0.0,0.0,0.0,0.0,0.0,0.0,0.0,0.0,0.0,0.0,0.0,0.0,0.0,0.0,0.0,0.0,-0.0928,0.0,-0.1963,0.0,0.0,0.0,-0.6971,-0.772,-0.7861,-0.7741,-0.7725,-0.7861,-0.8026,-0.8084,-0.8167,-0.8329,-0.8448,-0.8584,-0.859,-0.859,-0.859,-0.859,-0.859,-0.859,-0.859,-0.859,-0.859,-0.859,-0.859,-0.859,-0.859,-0.859,-0.859,-0.859,-0.859,-0.859,-0.859,-0.9316,-1.0306,0.1027,0.1095,0.1137,0.1205,0.131,0.1396,0.1385,0.1507,0.1593,0.1603,0.1364,0.1208,0.1255,0.075,0.0419,0.0413,0.0197,0.0045,0.004,0.0,0.0,0.0038,0.0,0.0,0.0,0.0,0.0,0.0,0.0123,0.0141,0.009,0.0141,0.0146,0.0075,0.0031,0.0,0.0,0.0,0.0,0.0,0.0,0.0,0.0,0.0,0.0,0.0,0.0,0.0,0.0,0.0,0.0,0.0,0.0,0.0,0.0,0.0,0.0,0.0,0.0,0.0,0.0,0.0,0.0,0.0,0.0,0.0,0.0,0.0,0.0,0.0,0.0,0.0,0.0,0.0,0.0,0.0,0.0,-0.0138,-0.0648,-0.1854,0.0,0.0,0.0,-0.6493,-0.7187,-0.7823,-0.7285,-0.7198,-0.7839,-0.7883,-0.7997,-0.8161,-0.8183,-0.8361,-0.8584,-0.859,-0.859,-0.859,-0.859,-0.859,-0.859,-0.859,-0.859,-0.859,-0.859,-0.859,-0.859,-0.859,-0.859,-0.859,-0.859,-0.859,-0.859,-0.859,-0.8717,-0.8851,0.1008,0.1029,0.1066,0.1196,0.1253,0.132,0.1376,0.1521,0.1836,0.2442,0.1975,0.1774,0.2391,0.1705,0.1046,0.0725,0.0551,0.0418,0.0282,0.0235,0.0227,0.0289,0.0686,0.0677,0.0141,0.0608,0.0652,0.0235,0.0258,0.0268,0.0269,0.0268,0.0226,0.0152,0.0132,0.0073,0.0,0.0,0.0,0.0,0.0,0.0,0.0,0.0,0.0,0.0,0.0,0.0,0.0,0.0,0.0,0.0,0.0,0.0,0.0,0.0,0.0,0.0,0.0,0.0,0.0,0.0,0.0,0.0,0.0,0.0,0.0,0.0,0.0,0.0,0.0,0.0,0.0,0.0,0.0,0.0,0.0,0.0,-0.0231,0.0,0.0,0.0,0.0,0.0,0.0,0.0,0.0,-0.7192,-0.7834,-0.7872,-0.7981,-0.8161,-0.8172,-0.835,-0.8584,-0.859,-0.859,-0.859,-0.859,-0.859,-0.859,-0.859,-0.859,-0.859,-0.8784,-0.8917,-0.8917,-0.9123,-0.9256,-0.9256,-0.9256,-0.8989,-0.859,-0.859,-0.859,-0.859,0.0977,0.1001,0.1037,0.1113,0.119,0.1257,0.1347,0.1739,0.2326,0.3168,0.2765,0.2801,0.3792,0.2728,0.179,0.1411,0.0967,0.0609,0.0357,0.0341,0.033,0.0366,0.1175,0.1226,0.0449,0.113,0.1228,0.0655,0.046,0.0395,0.0457,0.0399,0.036,0.0295,0.0245,0.0159,0.0046,0.0,0.0,0.0,0.0,0.0,0.0,0.0,0.0,0.0,0.0,0.0,0.0,0.0,0.0,0.0,0.0,0.0,0.0,0.0,0.0,0.0,0.0,0.0,0.0,0.0,0.0,0.0,0.0,0.0,0.0,0.0,0.0,0.0,0.0,0.0,0.0,0.0,0.0,0.0,0.0,0.0,0.0,0.0,0.0,0.0,0.0,0.0,0.0,0.0,0.0,0.0,-0.7828,-0.7872,-0.7981,-0.8161,-0.8172,-0.835,-0.8584,-0.859,-0.859,-0.859,-0.859,-0.8651,-0.8717,-0.8717,-0.879,-0.8923,-0.9189,-0.9256,-0.9322,-0.9594,-0.9728,-0.9728,-0.9728,-0.9395,-0.8923,-0.8923,-0.879,-0.859,0.0977,0.1068,0.1067,0.101,0.1099,0.1204,0.1294,0.2155,0.2919,0.3329,0.3833,0.4439,0.5267,0.3652,0.2499,0.2607,0.1344,0.0372,0.0057,0.0204,0.0202,0.0,0.1035,0.1437,0.1079,0.1346,0.1431,0.1284,0.0747,0.0527,0.0596,0.0595,0.0598,0.0574,0.0299,0.0208,0.0166,0.005,0.0,0.0,0.0,0.0,0.0,0.0,0.0,0.0,0.0,0.0,0.0,0.0,0.0,0.0,0.0,0.0,0.0,0.0,0.0,0.0,0.0,0.0,0.0,0.0,0.0,0.0,0.0,0.0,0.0,0.0,0.0,0.0,0.0,0.0,0.0,0.0,0.0,0.0,0.0,0.0,0.0,0.0,0.0,0.0,0.0,0.0,0.0,0.0,0.0,0.0,-0.7801,-0.7872,-0.7981,-0.8161,-0.8172,-0.835,-0.8584,-0.859,-0.859,-0.859,-0.859,-0.8784,-0.9117,-0.9117,-0.9322,-0.9661,-0.9661,-0.9661,-0.9661,-0.9661,-0.9728,-0.9728,-0.9728,-0.9661,-0.9661,-0.9661,-0.9189,-0.8651,0.0983,0.1066,0.1103,0.1059,0.109,0.1189,0.1301,0.1664,0.2271,0.3205,0.2911,0.3,0.4062,0.296,0.2007,0.1607,0.1096,0.0625,0.0231,0.043,0.0473,0.022,0.2138,0.2637,0.1476,0.2935,0.3347,0.2484,0.1775,0.1455,0.1513,0.1025,0.0777,0.0727,0.0622,0.0488,0.0242,0.0266,0.017,0.0,0.0,0.0,0.0,0.0,0.0,0.0,0.0,0.0,0.0,0.0,0.0,0.0,0.0,0.0,0.0,0.0,0.0,0.0,0.0,0.0,0.0,0.0,0.0,0.0,0.0,0.0,0.0,0.0,0.0,0.0,0.0,0.0,0.0,0.0,0.0,0.0,0.0,0.0,0.0,0.0,0.0,0.0,0.0,0.0,0.0,0.0,0.0,0.0,0.0,-0.7872,-0.7981,-0.8161,-0.8172,-0.835,-0.8584,-0.859,-0.859,-0.859,-0.8851,-0.8984,-0.9117,-0.9389,-0.9594,-0.9728,-0.9927,-1.006,-1.006,-1.0259,-1.0392,-1.0392,-1.0392,-1.0259,-0.9994,-0.9794,-0.9528,-0.9322,0.1034,0.1104,0.1133,0.1088,0.1157,0.1219,0.1318,0.1734,0.2348,0.3275,0.2973,0.3113,0.4164,0.3015,0.2038,0.1632,0.1113,0.0702,0.0359,0.0455,0.0502,0.0341,0.2163,0.2624,0.1451,0.3399,0.3948,0.3021,0.2695,0.255,0.2557,0.1708,0.1333,0.1341,0.0984,0.0679,0.0362,0.0388,0.0237,0.0,0.0,0.0,0.0,0.0,0.0,0.0,0.0,0.0,0.0,0.0,0.0,0.0,0.0,0.0,0.0,0.0,0.0,0.0,0.0,0.0,0.0,0.0,0.0,0.0,0.0,0.0,0.0,0.0,0.0,0.0,0.0,0.0,0.0,0.0,0.0,0.0,0.0,0.0,0.0,0.0,0.0,0.0,0.0,0.0,0.0,0.0,0.0,0.0,0.0,0.0,-0.7981,-0.8161,-0.8172,-0.835,-0.8584,-0.859,-0.859,-0.859,-0.8917,-0.9183,-0.9322,-0.9728,-0.9927,-1.006,-1.0259,-1.0392,-1.0392,-1.0591,-1.0717,-1.0717,-1.0717,-1.0591,-1.0326,-1.0127,-0.9927,-0.9661,0.1132,0.1152,0.1202,0.1208,0.1302,0.1362,0.1385,0.2275,0.3102,0.3445,0.3873,0.4447,0.5174,0.3565,0.2505,0.261,0.1277,0.0463,0.0381,0.0303,0.0302,0.0379,0.1161,0.1482,0.109,0.2704,0.3374,0.2995,0.35,0.3713,0.3645,0.2617,0.2215,0.2367,0.1366,0.0755,0.0511,0.0452,0.0251,0.0,0.0,0.0,0.0,0.0,0.0,0.0,0.0,0.0,0.0,0.0,0.0,0.0,0.0,0.0,0.0,0.0,0.0,0.0,0.0,0.0,0.0,0.0,0.0,0.0,0.0,0.0,0.0,0.0,0.0,0.0,0.0,0.0,0.0,0.0,0.0,0.0,0.0,0.0,0.0,0.0,0.0,0.0,0.0,0.0,0.0,0.0,0.0,0.0,0.0,0.0,-0.7954,-0.8161,-0.8178,-0.8356,-0.8584,-0.859,-0.859,-0.8651,-0.8984,-0.9322,-0.9728,-1.006,-1.0392,-1.0717,-1.0717,-1.0717,-1.0717,-1.0717,-1.0717,-1.0717,-1.0717,-1.0717,-1.0717,-1.0717,-1.0259,-0.9661,0.1194,0.1211,0.1541,0.2374,0.2351,0.2046,0.1528,0.2051,0.2317,0.1951,0.1806,0.1886,0.2183,0.1791,0.1329,0.1075,0.074,0.0402,0.0133,0.0254,0.0317,0.0132,0.1441,0.1887,0.1285,0.3433,0.4398,0.4109,0.4312,0.4503,0.4587,0.3042,0.2383,0.2444,0.1597,0.0956,0.0592,0.0623,0.0375,0.0,0.0,0.0,0.0,0.0,0.0,0.0,0.0,0.0,0.0,0.0,0.0,0.0,0.0,0.0,0.0,0.0,0.0,0.0,0.0,0.0,0.0,0.0,0.0,0.0,0.0,0.0,0.0,0.0,0.0,0.0,0.0,0.0,0.0,0.0,0.0,0.0,0.0,0.0,0.0,0.0,0.0,0.0,0.0,0.0,0.0,0.0,0.0,0.0,0.0,0.0,0.0,-0.8151,-0.8323,-0.8443,-0.8584,-0.859,-0.8717,-0.8984,-0.9389,-0.9728,-1.006,-1.0392,-1.0591,-1.0717,-1.0717,-1.0717,-1.0717,-1.0717,-1.0717,-1.0717,-1.0717,-1.0717,-1.0717,-1.0717,-1.0452,-1.0006,0.1257,0.175,0.2244,0.2308,0.2875,0.3,0.2198,0.2492,0.2584,0.2116,0.1785,0.1656,0.1696,0.1065,0.0539,0.0269,0.0269,0.0267,0.0197,0.0195,0.0195,0.0196,0.0953,0.1187,0.075,0.2643,0.3531,0.3385,0.3951,0.4331,0.4453,0.3013,0.2406,0.2477,0.1661,0.1033,0.0565,0.0463,0.0255,0.0,0.0,0.0,0.0,0.0,0.0,0.0,0.0,0.0,0.0,0.0,0.0,0.0,0.0,0.0,0.0,0.0,0.0,0.0,0.0,0.0,0.0,0.0,0.0,0.0,0.0,0.0,0.0,0.0,0.0,0.0,0.0,0.0,0.0,0.0,0.0,0.0,0.0,0.0,0.0,0.0,-0.0663,0.0,0.0,0.0,0.0,0.0,0.0,0.0,0.0,0.0,0.0,-0.8145,-0.8253,-0.8367,-0.8584,-0.8486,-0.8684,-0.9117,-0.9522,-0.9861,-1.0193,-1.0518,-1.0717,-1.0717,-1.0717,-1.0717,-1.0717,-1.0717,-1.0717,-1.0724,-1.0725,-1.086,-1.0914,-1.0914,-1.0671,-1.0296,0.1485,0.2644,0.3325,0.2273,0.3197,0.3859,0.308,0.3117,0.3121,0.2839,0.2503,0.2299,0.2231,0.0925,0.0068,0.0,0.0,0.0067,0.0321,0.0133,0.0133,0.0321,0.0133,0.0,0.0,0.1308,0.194,0.1867,0.3054,0.3709,0.3771,0.2775,0.2374,0.2428,0.1622,0.1011,0.0533,0.0179,0.0,0.0,0.0,0.0,0.0,0.0,0.0,0.0,0.0,0.0,0.0,0.0,0.0,0.0,0.0,0.0,0.0,0.0,0.0,0.0,0.0,0.0,0.0,0.0,0.0,0.0,0.0,0.0,0.0,0.0,0.0,0.0,0.0,0.0,0.0,0.0,0.0,0.0,0.0,0.0,0.0,0.0,0.0,0.0,0.0,0.0,0.0,0.0,0.0,0.0,0.0,0.0,-0.7439,-0.8151,-0.8166,-0.8317,-0.8513,0.0,-0.855,-0.9108,-0.9564,-0.9927,-1.0259,-1.0591,-1.0717,-1.0717,-1.0717,-1.0717,-1.0724,-1.0744,-1.0758,-1.0792,-1.0853,-1.105,-1.1234,-1.1185,-1.0904,-1.0538,0.237,0.381,0.4984,0.5227,0.4058,0.3206,0.3688,0.2966,0.2177,0.1843,0.1535,0.1303,0.0881,0.062,0.0348,0.0,0.0,0.0,0.0069,0.0,0.0,0.0069,0.0,0.0,0.0,0.1112,0.1688,0.1792,0.2899,0.3533,0.36,0.2777,0.2297,0.212,0.1333,0.0776,0.0391,0.0124,0.0,0.0,0.0,0.0,0.0,0.0,0.0,0.0,0.0,0.0,0.0,0.0,0.0,0.0,0.0,0.0,0.0,0.0,0.0,0.0,0.0,0.0,0.0,0.0,0.0,0.0,0.0,0.0,0.0,0.0,0.0,0.0,0.0,0.0,0.0,0.0,0.0,0.0,0.0,0.0,0.0,0.0,0.0,0.0,0.0,0.0,0.0,0.0,0.0,0.0,0.0,0.0,-0.6899,0.0,-0.8405,0.0,0.0,0.0,-0.898,-0.9091,-0.9758,-1.0259,-1.0591,-1.0658,-1.0717,-1.0717,-1.0717,-1.0717,-1.0731,-1.0793,-1.0975,-1.109,-1.1118,-1.1138,-1.1179,-1.1307,-1.1335,-1.1174,0.3146,0.4418,0.524,0.4725,0.3782,0.3034,0.2819,0.2278,0.1976,0.205,0.2158,0.2121,0.1903,0.1324,0.0778,0.0351,0.0281,0.021,0.0,0.0,0.0,0.0,0.0,0.0,0.0,0.0478,0.0821,0.1038,0.2022,0.2431,0.2183,0.2195,0.1928,0.1389,0.0829,0.0525,0.0385,0.0124,0.0,0.0,0.0,0.0,0.0,0.0,0.0,0.0,0.0,0.0,0.0,0.0,0.0,0.0,0.0,0.0,0.0,0.0,0.0,0.0,0.0,0.0,0.0,0.0,0.0,0.0,0.0,0.0,0.0,0.0,0.0,0.0,0.0,0.0,0.0,0.0,0.0,0.0,0.0,0.0,0.0,0.0,0.0,0.0,0.0,0.0,0.0,0.0,0.0,0.0,0.0,0.0,-0.6839,0.0,0.0,0.0,0.0,0.0,0.0,-0.9432,-0.9958,-1.0392,-1.0717,-1.0717,-1.0717,-1.0717,-1.0717,-1.0765,-1.0853,-1.1002,-1.1145,-1.128,-1.128,-1.1328,-1.1409,-1.1484,-1.1511,-1.1511,0.3481,0.4604,0.5167,0.376,0.3408,0.3065,0.2124,0.1876,0.1975,0.2491,0.2822,0.3029,0.2942,0.1907,0.1005,0.0637,0.0495,0.0354,0.0,0.0,0.0,0.0,0.0,0.0,0.0,0.0,0.0067,0.0226,0.1048,0.1222,0.0834,0.1476,0.1397,0.0679,0.0357,0.0251,0.0,0.0,0.0,0.0,0.0,0.0,0.0,0.0,0.0,0.0,0.0,0.0,0.0,0.0,0.0,0.0,0.0,0.0,0.0,0.0,0.0,0.0,0.0,0.0,0.0,0.0,0.0,0.0,0.0,0.0,0.0,0.0,0.0,0.0,0.0,0.0,0.0,0.0,0.0,0.0,0.0,0.0,0.0,0.0,0.0,0.0,0.0,0.0,0.0,0.0,0.0,0.0,-0.6551,0.0,0.0,0.0,0.0,-0.8171,-0.828,0.0,-0.921,0.0,-1.0082,-1.0459,-1.0717,-1.0717,-1.0717,-1.0724,-1.0758,-1.0873,-1.105,-1.1165,-1.1301,-1.1443,-1.1443,-1.1511,-1.1619,-1.1619,-1.1619,-1.1619,0.2832,0.4213,0.526,0.445,0.3704,0.3217,0.3136,0.2412,0.1953,0.2363,0.2455,0.2302,0.1959,0.1467,0.1031,0.0655,0.0291,0.0073,0.0,0.0,0.0,0.0,0.0,0.0,0.0,0.0,0.0,0.0,0.0457,0.0658,0.0556,0.0845,0.0752,0.0317,0.0,0.0,0.0,0.0,0.0,0.0,0.0,0.0,0.0,0.0,0.0,0.0,0.0,0.0,0.0,0.0,0.0,0.0,0.0,0.0,0.0,0.0,0.0,0.0,0.0,0.0,0.0,0.0,0.0,0.0,0.0,0.0,0.0,0.0,0.0,0.0,0.0,0.0,0.0,0.0,0.0,0.0,0.0,0.0,0.0,0.0,0.0,0.0,0.0,0.0,0.0,0.0,0.0,0.0,0.0,0.0,0.0,-0.7584,-0.7698,-0.76,-0.7347,-0.8827,-0.9447,-0.9168,-1.0195,-1.0658,-1.0717,-1.0717,-1.0717,-1.0724,-1.0799,-1.109,-1.1348,-1.1362,-1.1457,-1.1599,-1.1599,-1.1606,-1.1619,-1.1619,-1.1619,-1.1619,0.2818,0.357,0.4137,0.3677,0.3065,0.2588,0.2506,0.2343,0.2299,0.2459,0.2455,0.2365,0.2266,0.1807,0.1496,0.1329,0.0733,0.0365,0.0365,0.0146,0.0,0.0,0.0,0.0,0.0,0.0,0.0,0.0,0.0699,0.0883,0.0587,0.095,0.0774,0.0,0.0,0.0,0.0,0.0,0.0,0.0,0.0,0.0,0.0,0.0,0.0,0.0,0.0,0.0,0.0,0.0,0.0,0.0,0.0,0.0,0.0,0.0,0.0,0.0,0.0,0.0,0.0,0.0,0.0,0.0,0.0,0.0,0.0,0.0,0.0,0.0,0.0,0.0,0.0,0.0,0.0,0.0,0.0,0.0,0.0,0.0,0.0,-0.1268,0.0,0.0,0.0,0.0,0.0,0.0,0.0,0.0,0.0,-0.6808,0.0,-0.7992,-0.7486,-0.8991,-0.9648,-0.9481,-1.0307,-1.0717,-1.0724,-1.0745,-1.09,-1.0995,-1.1145,-1.128,-1.1396,-1.1491,-1.1565,-1.1619,-1.1619,-1.1619,-1.1619,-1.1619,-1.1619,-1.1619,0.236,0.267,0.2832,0.2731,0.2515,0.2252,0.2076,0.2327,0.2489,0.2511,0.2495,0.2478,0.247,0.2067,0.1739,0.1637,0.1033,0.0586,0.0438,0.0146,0.0,0.0,0.0,0.0,0.0,0.0,0.0,0.0,0.0674,0.084,0.0512,0.0841,0.0623,0.0,0.0,0.0,0.0,0.0,0.0,0.0,0.0,0.0,0.0,0.0,0.0,0.0,0.0,0.0,0.0,0.0,0.0,0.0,0.0,0.0,0.0,0.0,0.0,0.0,0.0,0.0,0.0,0.0,0.0,0.0,0.0,0.0,0.0,0.0,0.0,0.0,0.0,0.0,0.0,0.0,0.0,0.0,0.0,0.0,0.0,0.0,-0.1008,-0.1441,-0.0697,0.0,0.0,0.0,0.0,0.0,0.0,0.0,0.0,0.0,0.0,0.0,0.0,-0.9004,-0.9728,-0.9728,-1.0432,-1.0785,-1.0792,-1.0941,-1.109,-1.124,-1.1341,-1.1416,-1.1463,-1.1572,-1.1619,-1.1619,-1.1619,-1.1619,-1.1619,-1.1619,-1.1619,-1.1619,0.1022,0.1389,0.1711,0.1801,0.2216,0.2477,0.2508,0.2514,0.2514,0.2514,0.2514,0.2503,0.2472,0.2159,0.168,0.1265,0.0818,0.0444,0.0,0.0,0.0,0.0,0.0,0.0,0.0,0.0,0.0,0.0,0.0,0.0,0.0314,0.0286,0.0174,0.0,0.0,0.0,0.0,0.0,0.0,0.0,0.0,0.0,0.0,0.0,0.0,0.0,0.0,0.0,0.0,0.0,0.0,0.0,0.0,0.0,0.0,0.0,0.0,0.0,0.0,0.0,0.0,0.0,0.0,0.0,0.0,0.0,0.0,0.0,0.0,0.0,0.0,0.0,0.0,0.0,0.0,0.0,0.0,0.0,0.0,0.0,-0.0448,-0.0514,-0.0058,0.0,0.0,0.0,0.0,0.0,0.0,0.0,0.0,-0.7665,-0.7703,0.0,-0.7703,-0.9004,-0.9728,-0.9734,-1.0537,-1.088,-1.088,-1.1097,-1.1246,-1.1389,-1.1389,-1.1477,-1.1619,-1.1619,-1.1619,-1.1619,-1.1619,-1.1619,-1.1619,-1.1619,-1.1619,-1.1619,0.0715,0.1311,0.1783,0.1812,0.2157,0.2503,0.2512,0.2514,0.2514,0.2514,0.2514,0.2518,0.253,0.2182,0.184,0.0,0.0972,0.052,0.0,0.0444,0.0297,0.0,0.0299,0.0299,0.0,0.0,0.0,0.0,0.0,0.0,0.0,0.0716,0.047,0.0,0.0,0.0,0.0,0.0,0.0,0.0,0.0,0.0,0.0,0.0,0.0,0.0,0.0,0.0,0.0,0.0,0.0,0.0,0.0,0.0,0.0,0.0,0.0,0.0,0.0,0.0,0.0,0.0,0.0,0.0,0.0,0.0,0.0,0.0,0.0,0.0,0.0,0.0,0.0,0.0,0.0,0.0,0.0,0.0,0.0,0.0,-0.0123,-0.0182,0.0,-0.0556,0.0,0.0,0.0,0.0,0.0,0.0,0.0,0.0,-0.779,0.0,-0.7703,-0.9004,-0.9771,-0.9863,-1.0583,-1.0988,-1.1253,-1.1301,-1.1402,-1.1545,-1.1545,-1.1572,-1.1619,-1.1619,-1.1619,-1.1619,-1.1619,-1.1619,-1.1619,-1.1619,-1.1681,-1.1762,0.0735,0.1275,0.1678,0.1983,0.2326,0.2518,0.253,0.2532,0.2536,0.2545,0.2547,0.2555,0.2574,0.2303,0.0,0.1846,0.1373,0.1059,0.0899,0.0899,0.0676,0.0227,0.0454,0.0379,0.0,0.0151,0.0,0.0227,0.0655,0.0856,0.0856,0.0999,0.0802,0.0227,0.0227,0.0152,0.0,0.0,0.0,0.0,0.0,0.0,0.0,0.0,0.0,0.0,0.0,0.0,0.0,0.0,0.0,0.0,0.0,0.0,0.0,0.0,0.0,0.0,0.0,0.0,0.0,0.0,0.0,0.0,0.0,0.0,0.0,0.0,0.0,0.0,0.0,0.0,0.0,0.0,0.0,0.0,0.0,0.0,0.0,0.0,0.0,0.0,0.0,-0.0718,-0.1716,0.0,0.0,0.0,0.0,0.0,-0.6997,-0.7236,-0.8117,0.0,-0.8035,-0.9169,-0.9838,-0.9924,-1.0714,-1.124,-1.1477,-1.1477,-1.1531,-1.1619,-1.1619,-1.1619,-1.1619,-1.1619,-1.1619,-1.1619,-1.1619,-1.1653,-1.1701,-1.1701,-1.1789,-1.1918,0.1042,0.129,0.1619,0.0,0.2493,0.0,0.2555,0.264,0.257,0.2598,0.2601,0.2602,0.2604,0.2605,0.2421,0.1975,0.0,0.0,0.0,0.1289,0.1138,0.0683,0.0683,0.0532,0.0076,0.0456,0.0683,0.0683,0.1138,0.1367,0.1367,0.1367,0.1062,0.0683,0.0607,0.038,0.0076,0.0,0.0,0.0,0.0,0.0,0.0,0.0,0.0,0.0,0.0,0.0,0.0,0.0,0.0,0.0,0.0,0.0,0.0,0.0,0.0,0.0,0.0,0.0,0.0,0.0,0.0,0.0,0.0,0.0,0.0,0.0,0.0,0.0,0.0,0.0,0.0,0.0,0.0,0.0,0.0,0.0,0.0,0.0,0.0,0.0,0.0,-0.1189,-0.2578,0.0,0.0,0.0,0.0,0.0,-0.716,-0.8546,-0.8595,-0.86,-0.86,-0.9464,-0.9943,-1.0023,-1.0988,-1.1484,-1.1619,-1.1619,-1.1619,-1.1619,-1.1619,-1.1619,-1.1619,-1.1619,-1.1619,-1.1619,-1.1633,-1.1714,-1.183,-1.1843,-1.1945,-1.2081,0.0,0.0,0.2315,0.2469,0.2493,0.2525,0.2555,0.264,0.257,0.2598,0.2601,0.2611,0.2634,0.2637,0.2549,0.2453,0.2075,0.1717,0.1307,0.1612,0.1542,0.1168,0.1402,0.1402,0.1013,0.109,0.1324,0.1558,0.1713,0.1791,0.1791,0.1791,0.1558,0.109,0.0778,0.0545,0.0467,0.0156,0.0,0.0,0.0,0.0,0.0,0.0,0.0,0.0,0.0,0.0,0.0,0.0,0.0,0.0,0.0,0.0,0.0,0.0,0.0,0.0,0.0,0.0,0.0,0.0,0.0,0.0,0.0,0.0,0.0,0.0,0.0,0.0,0.0,0.0,0.0,0.0,0.0,0.0,0.0,0.0,0.0,0.0,0.0,0.0,0.0,-0.0326,-0.1344,0.0,0.0,0.0,-0.7653,-0.7535,-0.7769,-0.8562,-0.8677,-0.8725,-0.8725,-0.96,-1.0404,-1.1078,-1.1406,-1.1586,-1.1619,-1.1619,-1.1619,-1.1619,-1.1619,-1.1619,-1.1619,-1.1619,-1.1619,-1.1633,-1.1742,-1.1803,-1.1843,-1.1965,-1.2101,-1.2237,0.122,0.1774,0.2256,0.2489,0.2503,0.2525,0.2555,0.264,0.2575,0.2617,0.2622,0.2634,0.2664,0.2668,0.2657,0.2628,0.234,0.2144,0.1884,0.2107,0.2028,0.157,0.1807,0.1728,0.1336,0.1493,0.1807,0.22,0.22,0.22,0.22,0.22,0.1964,0.1571,0.1336,0.1099,0.0864,0.0471,0.0236,0.0236,0.0079,0.0,0.0,0.0,0.0,0.0,0.0,0.0,0.0,0.0,0.0,0.0,0.0,0.0,0.0,0.0,0.0,0.0,0.0,0.0,0.0,0.0,0.0,0.0,0.0,0.0,0.0,0.0,0.0,0.0,0.0,0.0,0.0,0.0,0.0,0.0,0.0,0.0,0.0,0.0,0.0,0.0,0.0,-0.0614,-0.1731,-0.3553,-0.4394,0.0,-0.7969,-0.8204,-0.8394,-0.866,-0.8736,-0.8796,-0.8851,-0.9735,-1.0575,-1.1213,-1.1507,-1.1619,-1.1619,-1.1619,-1.1619,-1.1619,-1.1619,-1.1619,-1.1626,-1.1687,-1.1714,-1.1728,-1.1877,-1.1979,-1.2054,-1.2135,-1.2264,-1.2386,0.1237,0.1638,0.2043,0.2435,0.2514,0.2525,0.2555,0.264,0.2579,0.2632,0.2641,0.265,0.2676,0.2679,0.2658,0.2607,0.2598,0.2583,0.2555,0.2529,0.2357,0.2043,0.1964,0.1807,0.1493,0.1807,0.2121,0.2514,0.2514,0.2514,0.2514,0.2514,0.2357,0.1964,0.1964,0.1728,0.1336,0.0864,0.0707,0.0707,0.0314,0.0157,0.0079,0.0079,0.0078,0.0,0.0,0.0,0.0,0.0,0.0,0.0,0.0,0.0,0.0,0.0,0.0,0.0,0.0,0.0,0.0,0.0,0.0,0.0,0.0,0.0,0.0,0.0,0.0,0.0,0.0,0.0,0.0,0.0,0.0,0.0,0.0,0.0,0.0,0.0,0.0,0.0,0.0,-0.111,-0.2477,-0.4192,-0.5567,-0.7009,-0.8728,-0.8894,-0.891,-0.8829,-0.8823,-0.8883,-0.9073,-0.9883,-1.0565,-1.0972,-1.1404,-1.1619,-1.1619,-1.1619,-1.1619,-1.1619,-1.1619,-1.1633,-1.166,-1.1782,-1.1843,-1.1877,-1.204,-1.2176,-1.2291,-1.2318,-1.24,-1.2501,0.1173,0.1647,0.2043,0.2435,0.2514,0.2525,0.2555,0.264,0.2571,0.2604,0.2608,0.2611,0.2615,0.2616,0.2612,0.2602,0.2579,0.2553,0.2523,0.2517,0.2435,0.2435,0.2435,0.2357,0.2278,0.2357,0.2435,0.2514,0.2514,0.2514,0.2514,0.2514,0.2435,0.2357,0.2043,0.1886,0.1807,0.1336,0.1178,0.1178,0.1099,0.0864,0.0471,0.0471,0.0314,0.0,0.0,0.0,0.0,0.0,0.0,0.0,0.0,0.0,0.0,0.0,0.0,0.0,0.0,0.0,0.0,0.0,0.0,0.0,0.0,0.0,0.0,0.0,0.0,0.0,0.0,0.0,0.0,0.0,0.0,0.0,0.0,0.0,0.0,0.0,0.0,0.0,0.0,-0.021,-0.1466,-0.4252,-0.4669,-0.5994,-0.8713,-0.8874,-0.8922,-0.9073,-0.9079,-0.9275,-0.975,-1.0197,-1.0653,-1.0972,-1.1404,-1.1619,-1.1619,-1.1619,-1.1619,-1.1619,-1.1619,-1.1687,-1.1796,-1.1823,-1.1904,-1.204,-1.2196,-1.2271,-1.2305,-1.2427,-1.2481,-1.2501,0.1599,0.2001,0.2317,0.2541,0.2538,0.2538,0.2536,0.2536,0.2545,0.2575,0.2579,0.2585,0.26,0.2601,0.2596,0.2581,0.2567,0.2547,0.2517,0.2514,0.2514,0.2514,0.2514,0.2514,0.2514,0.2514,0.2514,0.2514,0.2514,0.2514,0.2514,0.2514,0.2514,0.2514,0.2278,0.22,0.22,0.1807,0.165,0.1571,0.1414,0.1021,0.0628,0.0628,0.0314,0.0,0.0,0.0,0.0,0.0,0.0,0.0,0.0,0.0,0.0,0.0,0.0,0.0,0.0,0.0,0.0,0.0,0.0,0.0,0.0,0.0,0.0,0.0,0.0,0.0,0.0,0.0,0.0,0.0,0.0,0.0,0.0,0.0,0.0,0.0,0.0,0.0,0.0,0.0,-0.0921,-0.304,-0.41,-0.5514,-0.7631,-0.8606,-0.9166,-0.9226,-0.9226,-0.9325,-0.959,-0.9951,-1.0239,-1.0389,-1.0822,-1.1109,-1.126,-1.126,-1.1404,-1.1619,-1.1701,-1.1769,-1.1843,-1.2006,-1.2121,-1.2196,-1.2345,-1.2406,-1.2413,-1.2474,-1.2501,-1.2501,0.1858,0.2259,0.2493,0.2553,0.2549,0.2541,0.2518,0.2514,0.2522,0.2547,0.2549,0.2557,0.2579,0.2582,0.2572,0.2551,0.2549,0.254,0.2515,0.2514,0.2514,0.2514,0.2514,0.2514,0.2514,0.2514,0.2514,0.2514,0.2514,0.2514,0.2514,0.2514,0.2514,0.2514,0.2514,0.2514,0.2514,0.22,0.2043,0.2043,0.1728,0.1256,0.0785,0.0864,0.055,0.0,0.0079,0.0079,0.0,0.0,0.0,0.0,0.0,0.0,0.0,0.0,0.0,0.0,0.0,0.0,0.0,0.0,0.0,0.0,0.0,0.0,0.0,0.0,0.0,0.0,0.0,0.0,0.0,0.0,0.0,0.0,0.0,0.0,0.0,0.0,0.0,0.0,0.0,0.0,-0.0575,-0.2008,-0.3727,-0.5301,-0.6801,-0.8385,-0.9302,-0.9302,-0.9302,-0.9302,-0.9302,-0.9735,-0.9879,-0.9879,-1.0311,-1.0599,-1.0894,-1.0894,-1.1129,-1.1529,-1.1636,-1.1797,-1.1959,-1.2196,-1.2311,-1.2352,-1.2461,-1.2501,-1.2501,-1.2501,-1.2501,-1.2501,0.1737,0.1969,0.2047,0.2439,0.2518,0.2517,0.2515,0.2514,0.2515,0.2518,0.2518,0.2518,0.2521,0.2521,0.2519,0.2518,0.2518,0.2517,0.2514,0.2514,0.2514,0.2514,0.2514,0.2514,0.2514,0.2514,0.2514,0.2514,0.2514,0.2514,0.2514,0.2514,0.2514,0.2514,0.2514,0.2514,0.2514,0.2435,0.2435,0.2435,0.2435,0.1964,0.1256,0.165,0.1021,0.0079,0.0393,0.0314,0.0,0.0,0.0,0.0,0.0,0.0,0.0,0.0,0.0,0.0,0.0,0.0,0.0,0.0,0.0,0.0,0.0,0.0,0.0,0.0,0.0,0.0,0.0,0.0,0.0,0.0,0.0,0.0,0.0,0.0,0.0,0.0,0.0,0.0,0.0,0.0,-0.0655,-0.218,-0.3778,-0.5377,-0.6898,-0.843,-0.9302,-0.9302,-0.9302,-0.9302,-0.9302,-0.9735,-0.9879,-0.9879,-1.0311,-1.0527,-1.0527,-1.0527,-1.0812,-1.1304,-1.1317,-1.1696,-1.2257,-1.2284,-1.2366,-1.2488,-1.2501,-1.2501,-1.2501,-1.2501,-1.2501,-1.2501,0.2168,0.2328,0.2403,0.2545,0.2542,0.2536,0.2517,0.2514,0.2514,0.2514,0.2514,0.2514,0.2514,0.2514,0.2514,0.2514,0.2514,0.2514,0.2514,0.2514,0.2514,0.2514,0.2514,0.2514,0.2514,0.2514,0.2514,0.2514,0.2514,0.2514,0.2514,0.2514,0.2514,0.2514,0.2514,0.2514,0.2514,0.2514,0.2514,0.2514,0.2514,0.22,0.1728,0.1807,0.1414,0.0864,0.0942,0.0942,0.0785,0.0471,0.0393,0.0314,0.0079,0.0,0.0,0.0,0.0,0.0,0.0,0.0,0.0,0.0,0.0,0.0,0.0,0.0,0.0,0.0,0.0,0.0,0.0,0.0,0.0,0.0,0.0,0.0,0.0,0.0,0.0,0.0,0.0,0.0,0.0,0.0,-0.0219,-0.0802,-0.3276,-0.4947,-0.5528,-0.7923,-0.9302,-0.9302,-0.9302,-0.9302,-0.9302,-0.9446,-0.9518,-0.9518,-0.9663,-0.9879,-1.0095,-1.0178,-1.0608,-1.133,-1.1512,-1.1805,-1.2298,-1.2386,-1.2454,-1.2501,-1.2501,-1.2501,-1.2501,-1.2501,-1.2501,-1.2501,0.2416,0.2574,0.2568,0.2549,0.2545,0.2538,0.2518,0.2514,0.2514,0.2514,0.2514,0.2514,0.2514,0.2514,0.2514,0.2514,0.2514,0.2514,0.2514,0.2514,0.2514,0.2514,0.2514,0.2514,0.2514,0.2514,0.2514,0.2514,0.2514,0.2514,0.2514,0.2514,0.2514,0.2514,0.2514,0.2514,0.2514,0.2514,0.2514,0.2514,0.2514,0.2278,0.1886,0.2043,0.1728,0.1336,0.1414,0.1336,0.1021,0.0707,0.0628,0.055,0.0157,0.0,0.0,0.0,0.0,0.0,0.0,0.0,0.0,0.0,0.0,0.0,0.0,0.0,0.0,0.0,0.0,0.0,0.0,0.0,0.0,0.0,0.0,0.0,0.0,0.0,0.0,0.0,0.0,0.0,0.0,0.0,0.0,0.0,-0.2912,-0.5093,-0.6108,-0.814,-0.9302,-0.9302,-0.9302,-0.9302,-0.9302,-0.9302,-0.9302,-0.9302,-0.9345,-0.9507,-0.9797,-0.9928,-1.0378,-1.1089,-1.1214,-1.1625,-1.2213,-1.2306,-1.2424,-1.2501,-1.2501,-1.2501,-1.2501,-1.2501,-1.2501,-1.2501,0.2363,0.2514,0.2514,0.2514,0.2514,0.2514,0.2514,0.2514,0.2514,0.2514,0.2514,0.2514,0.2514,0.2514,0.2514,0.2514,0.2514,0.2514,0.2514,0.2514,0.2514,0.2514,0.2514,0.2514,0.2514,0.2514,0.2514,0.2514,0.2514,0.2514,0.2514,0.2514,0.2514,0.2514,0.2514,0.2514,0.2514,0.2514,0.2514,0.2514,0.2514,0.2278,0.1964,0.2357,0.2043,0.1336,0.1728,0.1336,0.0628,0.0628,0.0628,0.055,0.0157,0.0,0.0,0.0,0.0,0.0,0.0,0.0,0.0,0.0,0.0,0.0,0.0,0.0,0.0,0.0,0.0,0.0,0.0,0.0,0.0,0.0,0.0,0.0,0.0,0.0,0.0,0.0,0.0,0.0,0.0,0.0,0.0,0.0,-0.2912,-0.6036,-0.9157,-0.9302,-0.9302,-0.9302,-0.9302,-0.9302,-0.9302,-0.9302,-0.9302,-0.9307,-0.9427,-0.9487,-0.9492,-0.9617,-0.9958,-1.0527,-1.0527,-1.1057,-1.1882,-1.1882,-1.2114,-1.2501,-1.2501,-1.2501,-1.2501,-1.2501,-1.2501,-1.2501,0.2359,0.2514,0.2514,0.2514,0.2514,0.2514,0.2514,0.2514,0.2514,0.2514,0.2514,0.2514,0.2514,0.2514,0.2514,0.2514,0.2514,0.2514,0.2514,0.2514,0.2514,0.2514,0.2514,0.2514,0.2514,0.2514,0.2514,0.2514,0.2514,0.2514,0.2514,0.2514,0.2514,0.2514,0.2514,0.2514,0.2514,0.2514,0.2514,0.2514,0.2514,0.2435,0.2357,0.2435,0.2357,0.2121,0.2278,0.2121,0.1886,0.1571,0.1493,0.1414,0.0628,0.0393,0.0393,0.0079,0.0,0.0,0.0,0.0,0.0,0.0,0.0,0.0,0.0,0.0,0.0,0.0,0.0,0.0,0.0,0.0,0.0,0.0,0.0,0.0,0.0,0.0,0.0,0.0,0.0,0.0,0.0,0.0,0.0,0.0,-0.2912,-0.6036,-0.9157,-0.9302,-0.9302,-0.9302,-0.9302,-0.9302,-0.9302,-0.9302,-0.9345,-0.9432,-0.947,-0.953,-0.9617,-0.9737,-1.0036,-1.0527,-1.0543,-1.0916,-1.1495,-1.1805,-1.196,-1.2114,-1.2424,-1.2501,-1.2501,-1.2501,-1.2501,-1.2501,0.2435,0.2514,0.2514,0.2514,0.2514,0.2514,0.2514,0.2514,0.2514,0.2514,0.2514,0.2514,0.2514,0.2514,0.2514,0.2514,0.2514,0.2514,0.2514,0.2514,0.2514,0.2514,0.2514,0.2514,0.2514,0.2514,0.2514,0.2514,0.2514,0.2514,0.2514,0.2514,0.2514,0.2514,0.2514,0.2514,0.2514,0.2514,0.2514,0.2514,0.2514,0.2514,0.2514,0.2514,0.2514,0.2514,0.2514,0.2435,0.22,0.1964,0.1807,0.1571,0.1021,0.0864,0.0785,0.0157,0.0079,0.0236,0.0079,0.0,0.0,0.0,0.0,0.0,0.0,0.0,0.0,0.0,0.0,0.0,0.0,0.0,0.0,0.0,0.0,0.0,0.0,0.0,0.0,0.0,0.0,0.0,0.0,0.0,-0.0511,-0.1749,-0.3639,-0.6036,-0.9157,-0.9302,-0.9302,-0.9302,-0.9302,-0.9329,-0.9378,-0.9378,-0.9416,-0.9487,-0.9579,-0.9666,-0.9742,-0.9856,-1.0064,-1.0295,-1.0374,-1.0641,-1.1029,-1.1262,-1.1495,-1.1727,-1.196,-1.2037,-1.2037,-1.2037,-1.2114,-1.2269,0.2435,0.2514,0.2514,0.2514,0.2514,0.2514,0.2514,0.2514,0.2514,0.2514,0.2514,0.2514,0.2514,0.2514,0.2514,0.2514,0.2514,0.2514,0.2514,0.2514,0.2514,0.2514,0.2514,0.2514,0.2514,0.2514,0.2514,0.2514,0.2514,0.2514,0.2514,0.2514,0.2514,0.2514,0.2514,0.2514,0.2514,0.2514,0.2514,0.2514,0.2514,0.2514,0.2514,0.2514,0.2514,0.2514,0.2514,0.2278,0.1964,0.1964,0.1728,0.1414,0.1336,0.1336,0.1178,0.0393,0.0393,0.055,0.0157,0.0079,0.0079,0.0,0.0,0.0,0.0,0.0,0.0,0.0,0.0,0.0,0.0,0.0,0.0,0.0,0.0,0.0,0.0,0.0,0.0,0.0,0.0,0.0,0.0,0.0,-0.1239,-0.4293,-0.4584,-0.5963,-0.8941,-0.924,-0.9318,-0.9318,-0.9329,-0.9389,-0.9503,-0.9514,-0.9519,-0.9519,-0.9737,-0.9845,-0.9856,-0.997,-1.0019,-1.0019,-1.0019,-1.0175,-1.0563,-1.0563,-1.0874,-1.1262,-1.1262,-1.1262,-1.1262,-1.1262,-1.1495,-1.1882,0.2435,0.2514,0.2514,0.2514,0.2514,0.2514,0.2514,0.2514,0.2514,0.2514,0.2514,0.2514,0.2514,0.2514,0.2514,0.2514,0.2514,0.2514,0.2514,0.2514,0.2514,0.2514,0.2514,0.2514,0.2514,0.2514,0.2514,0.2514,0.2514,0.2514,0.2514,0.2514,0.2514,0.2514,0.2514,0.2514,0.2514,0.2514,0.2514,0.2514,0.2514,0.2514,0.2514,0.2514,0.2514,0.2514,0.2514,0.2435,0.2357,0.2357,0.2278,0.22,0.1886,0.1807,0.165,0.1178,0.1099,0.1021,0.0628,0.0471,0.0393,0.0079,0.0,0.0,0.0,0.0,0.0,0.0,0.0,0.0,0.0,0.0,0.0,0.0,0.0,0.0,0.0,0.0,0.0,0.0,0.0,0.0,0.0,0.0,-0.0802,-0.2694,-0.4003,-0.5528,-0.7417,-0.8732,-0.9449,-0.9449,-0.9541,-0.9606,-0.9628,-0.9715,-0.9764,-0.9764,-0.9813,-0.9889,-0.9981,-1.0008,-1.0019,-1.0019,-1.0019,-1.0019,-1.0175,-1.0486,-1.0641,-1.0796,-1.1184,-1.1262,-1.1262,-1.1262,-1.134,-1.1417,0.22,0.2357,0.2514,0.2514,0.2514,0.2514,0.2514,0.2514,0.2514,0.2514,0.2514,0.2514,0.2514,0.2514,0.2514,0.2514,0.2514,0.2514,0.2514,0.2514,0.2514,0.2514,0.2514,0.2514,0.2514,0.2514,0.2514,0.2514,0.2514,0.2514,0.2514,0.2514,0.2514,0.2514,0.2514,0.2514,0.2514,0.2514,0.2514,0.2514,0.2514,0.2514,0.2514,0.2514,0.2514,0.2514,0.2514,0.2514,0.2514,0.2514,0.2514,0.2435,0.2043,0.2043,0.2043,0.1493,0.1414,0.1493,0.1021,0.0942,0.0864,0.0707,0.0471,0.0236,0.0079,0.0,0.0,0.0,0.0,0.0,0.0,0.0,0.0,0.0,0.0,0.0,0.0,0.0,0.0,0.0,0.0,0.0,0.0,0.0,-0.0662,-0.2205,-0.384,-0.5404,-0.7031,-0.8716,-0.9574,-0.9574,-0.9633,-0.9693,-0.9748,-0.9807,-0.9867,-0.9927,-0.9927,-0.996,-1.0019,-1.0019,-1.0019,-1.0019,-1.0019,-1.0019,-1.0019,-1.0253,-1.033,-1.033,-1.0563,-1.0641,-1.0641,-1.0641,-1.0796,-1.1029,0.1886,0.22,0.2514,0.2514,0.2514,0.2514,0.2514,0.2514,0.2514,0.2514,0.2514,0.2514,0.2514,0.2514,0.2514,0.2514,0.2514,0.2514,0.2514,0.2514,0.2514,0.2514,0.2514,0.2514,0.2514,0.2514,0.2514,0.2514,0.2514,0.2514,0.2514,0.2514,0.2514,0.2514,0.2514,0.2514,0.2514,0.2514,0.2514,0.2514,0.2514,0.2514,0.2514,0.2514,0.2514,0.2514,0.2514,0.2514,0.2514,0.2514,0.2514,0.2435,0.2121,0.22,0.2357,0.1728,0.1728,0.1886,0.1493,0.1414,0.1414,0.1336,0.1021,0.0628,0.0314,0.0079,0.0,0.0079,0.0078,0.0,0.0,0.0,0.0,0.0,0.0,0.0,0.0,0.0,0.0,0.0,0.0,0.0,0.0,0.0,-0.0522,-0.1787,-0.3454,-0.5057,-0.6713,-0.8394,-0.9397,-0.9699,-0.972,-0.9775,-0.9867,-0.9867,-0.9921,-1.0019,-1.0019,-1.0019,-1.0019,-1.0019,-1.0019,-1.0019,-1.0019,-1.0019,-1.0019,-1.0019,-1.0019,-1.0019,-1.0019,-1.0019,-1.0019,-1.0019,-1.0175,-1.0563,0.1807,0.22,0.2514,0.2514,0.2514,0.2514,0.2514,0.2514,0.2514,0.2514,0.2514,0.2514,0.2514,0.2514,0.2514,0.2514,0.2514,0.2514,0.2514,0.2514,0.2514,0.2514,0.2514,0.2514,0.2514,0.2514,0.2514,0.2514,0.2514,0.2514,0.2514,0.2514,0.2514,0.2514,0.2514,0.2514,0.2514,0.2514,0.2514,0.2514,0.2514,0.2514,0.2514,0.2514,0.2514,0.2514,0.2514,0.2514,0.2514,0.2514,0.2514,0.2514,0.2435,0.2435,0.2514,0.2357,0.2357,0.2357,0.1964,0.1807,0.1728,0.1414,0.1256,0.1178,0.1099,0.055,0.0079,0.0471,0.0235,0.0,0.0,0.0,0.0,0.0,0.0,0.0,0.0,0.0,0.0,0.0,0.0,0.0,0.0,0.0,-0.0076,-0.0302,-0.1738,-0.34,-0.5057,-0.6709,-0.8283,-0.9737,-0.9916,-0.9981,-0.9992,-0.9992,-1.0003,-1.0019,-1.0019,-1.0019,-1.0019,-1.0019,-1.0019,-1.0019,-1.0019,-1.0019,-1.0019,-1.0019,-1.0019,-1.0019,-1.0019,-1.0019,-1.0019,-1.0019,-1.0019,-1.0097,0.1493,0.2043,0.2514,0.2514,0.2514,0.2514,0.2514,0.2514,0.2514,0.2514,0.2514,0.2514,0.2514,0.2514,0.2514,0.2514,0.2514,0.2514,0.2514,0.2514,0.2514,0.2514,0.2514,0.2514,0.2514,0.2514,0.2514,0.2514,0.2514,0.2514,0.2514,0.2514,0.2514,0.2514,0.2514,0.2514,0.2514,0.2514,0.2514,0.2514,0.2514,0.2514,0.2514,0.2514,0.2514,0.2514,0.2514,0.2514,0.2514,0.2514,0.2514,0.2514,0.2514,0.2514,0.2514,0.2514,0.2514,0.2435,0.2278,0.22,0.22,0.2043,0.1807,0.1728,0.1886,0.1336,0.0707,0.0628,0.0314,0.0,0.0,0.0,0.0,0.0,0.0,0.0,0.0,0.0,0.0,0.0,0.0,0.0,0.0,0.0,0.0,0.0,-0.1461,-0.27,-0.3469,-0.5961,-0.7765,-0.8461,-0.9444,-1.0019,-1.0019,-1.0019,-1.0019,-1.0019,-1.0019,-1.0019,-1.0019,-1.0019,-1.0019,-1.0019,-1.0019,-1.0019,-1.0019,-1.0019,-1.0019,-1.0019,-1.0019,-1.0019,-1.0019,-1.0019,-1.0019,-1.0019]}]]